<?xml version="1.0" encoding="UTF-8" standalone="no" ?>
<gpx xmlns="http://www.topografix.com/GPX/1/1" xmlns:xsi="http://www.w3.org/2001/XMLSchema-instance" xsi:schemaLocation="http://www.topografix.com/GPX/1/1 http://www.topografix.com/GPX/1/1/gpx.xsd" version="1.1" creator="VisuGPX - https://www.visugpx.com">
  <metadata>
    <name>BPM - THURY HARCOURT</name>
    <desc><![CDATA[Merville Franceville 2]]></desc>
  </metadata>
  <trk>
    <name><![CDATA[BPM - THURY HARCOURT_1]]></name>
    <trkseg>
      <trkpt lat="49.00138" lon="-0.475">
        <ele>75.3</ele>
        <time>2017-05-27T08:06:06Z</time>
      </trkpt>
      <trkpt lat="49.00138" lon="-0.475">
        <ele>75.3</ele>
        <time>2017-05-27T08:06:06Z</time>
      </trkpt>
      <trkpt lat="49.00126" lon="-0.4751">
        <ele>75.9</ele>
        <time>2017-05-27T08:06:07Z</time>
      </trkpt>
      <trkpt lat="49.00129" lon="-0.475">
        <ele>76.4</ele>
        <time>2017-05-27T08:06:11Z</time>
      </trkpt>
      <trkpt lat="49.00131" lon="-0.47488">
        <ele>76.9</ele>
        <time>2017-05-27T08:06:17Z</time>
      </trkpt>
      <trkpt lat="49.00136" lon="-0.47481">
        <ele>77.2</ele>
        <time>2017-05-27T08:06:25Z</time>
      </trkpt>
      <trkpt lat="49.00137" lon="-0.47469">
        <ele>77.2</ele>
        <time>2017-05-27T08:06:31Z</time>
      </trkpt>
      <trkpt lat="49.0014" lon="-0.47457">
        <ele>77.1</ele>
        <time>2017-05-27T08:06:37Z</time>
      </trkpt>
      <trkpt lat="49.00143" lon="-0.47449">
        <ele>77.2</ele>
        <time>2017-05-27T08:06:44Z</time>
      </trkpt>
      <trkpt lat="49.00141" lon="-0.47442">
        <ele>76.8</ele>
        <time>2017-05-27T08:06:51Z</time>
      </trkpt>
      <trkpt lat="49.00146" lon="-0.47431">
        <ele>76.2</ele>
        <time>2017-05-27T08:06:57Z</time>
      </trkpt>
      <trkpt lat="49.0015" lon="-0.47423">
        <ele>75.3</ele>
        <time>2017-05-27T08:07:04Z</time>
      </trkpt>
      <trkpt lat="49.0015" lon="-0.47413">
        <ele>74.1</ele>
        <time>2017-05-27T08:07:11Z</time>
      </trkpt>
      <trkpt lat="49.0015" lon="-0.47403">
        <ele>72.9</ele>
        <time>2017-05-27T08:07:18Z</time>
      </trkpt>
      <trkpt lat="49.00151" lon="-0.47395">
        <ele>71.6</ele>
        <time>2017-05-27T08:07:25Z</time>
      </trkpt>
      <trkpt lat="49.00153" lon="-0.47383">
        <ele>70.4</ele>
        <time>2017-05-27T08:07:31Z</time>
      </trkpt>
      <trkpt lat="49.00162" lon="-0.47372">
        <ele>68.1</ele>
        <time>2017-05-27T08:07:36Z</time>
      </trkpt>
      <trkpt lat="49.00166" lon="-0.47361">
        <ele>65.6</ele>
        <time>2017-05-27T08:07:43Z</time>
      </trkpt>
      <trkpt lat="49.00168" lon="-0.4735">
        <ele>63.4</ele>
        <time>2017-05-27T08:07:50Z</time>
      </trkpt>
      <trkpt lat="49.00171" lon="-0.4734">
        <ele>61</ele>
        <time>2017-05-27T08:07:57Z</time>
      </trkpt>
      <trkpt lat="49.00177" lon="-0.47331">
        <ele>58.9</ele>
        <time>2017-05-27T08:08:02Z</time>
      </trkpt>
      <trkpt lat="49.00181" lon="-0.4732">
        <ele>56.5</ele>
        <time>2017-05-27T08:08:08Z</time>
      </trkpt>
      <trkpt lat="49.00185" lon="-0.47311">
        <ele>55</ele>
        <time>2017-05-27T08:08:14Z</time>
      </trkpt>
      <trkpt lat="49.00188" lon="-0.47299">
        <ele>53.2</ele>
        <time>2017-05-27T08:08:21Z</time>
      </trkpt>
      <trkpt lat="49.00191" lon="-0.47289">
        <ele>51.4</ele>
        <time>2017-05-27T08:08:28Z</time>
      </trkpt>
      <trkpt lat="49.00195" lon="-0.47278">
        <ele>49.5</ele>
        <time>2017-05-27T08:08:35Z</time>
      </trkpt>
      <trkpt lat="49.002" lon="-0.47268">
        <ele>48.2</ele>
        <time>2017-05-27T08:08:42Z</time>
      </trkpt>
      <trkpt lat="49.00204" lon="-0.4726">
        <ele>47.6</ele>
        <time>2017-05-27T08:08:48Z</time>
      </trkpt>
      <trkpt lat="49.00209" lon="-0.4725">
        <ele>46.9</ele>
        <time>2017-05-27T08:08:54Z</time>
      </trkpt>
      <trkpt lat="49.00213" lon="-0.47241">
        <ele>46.6</ele>
        <time>2017-05-27T08:09:01Z</time>
      </trkpt>
      <trkpt lat="49.00215" lon="-0.47234">
        <ele>46.4</ele>
        <time>2017-05-27T08:09:08Z</time>
      </trkpt>
      <trkpt lat="49.00216" lon="-0.47223">
        <ele>46.4</ele>
        <time>2017-05-27T08:09:15Z</time>
      </trkpt>
      <trkpt lat="49.00218" lon="-0.47213">
        <ele>46.4</ele>
        <time>2017-05-27T08:09:22Z</time>
      </trkpt>
      <trkpt lat="49.00221" lon="-0.47202">
        <ele>46.5</ele>
        <time>2017-05-27T08:09:28Z</time>
      </trkpt>
      <trkpt lat="49.00225" lon="-0.47193">
        <ele>47.1</ele>
        <time>2017-05-27T08:09:35Z</time>
      </trkpt>
      <trkpt lat="49.0023" lon="-0.47182">
        <ele>47.8</ele>
        <time>2017-05-27T08:09:42Z</time>
      </trkpt>
      <trkpt lat="49.00233" lon="-0.4717">
        <ele>48.3</ele>
        <time>2017-05-27T08:09:49Z</time>
      </trkpt>
      <trkpt lat="49.00236" lon="-0.4716">
        <ele>48.3</ele>
        <time>2017-05-27T08:09:55Z</time>
      </trkpt>
      <trkpt lat="49.00239" lon="-0.47158">
        <ele>48.5</ele>
        <time>2017-05-27T08:10:02Z</time>
      </trkpt>
      <trkpt lat="49.00242" lon="-0.4715">
        <ele>48.3</ele>
        <time>2017-05-27T08:10:09Z</time>
      </trkpt>
      <trkpt lat="49.00247" lon="-0.4714">
        <ele>48</ele>
        <time>2017-05-27T08:10:16Z</time>
      </trkpt>
      <trkpt lat="49.00251" lon="-0.47129">
        <ele>47.5</ele>
        <time>2017-05-27T08:10:23Z</time>
      </trkpt>
      <trkpt lat="49.00252" lon="-0.47123">
        <ele>47.1</ele>
        <time>2017-05-27T08:10:30Z</time>
      </trkpt>
      <trkpt lat="49.00253" lon="-0.47123">
        <ele>46.5</ele>
        <time>2017-05-27T08:10:37Z</time>
      </trkpt>
      <trkpt lat="49.00256" lon="-0.47117">
        <ele>46.4</ele>
        <time>2017-05-27T08:11:14Z</time>
      </trkpt>
      <trkpt lat="49.00256" lon="-0.47114">
        <ele>45.3</ele>
        <time>2017-05-27T08:11:21Z</time>
      </trkpt>
      <trkpt lat="49.00259" lon="-0.47109">
        <ele>46.8</ele>
        <time>2017-05-27T08:12:03Z</time>
      </trkpt>
      <trkpt lat="49.00267" lon="-0.47103">
        <ele>42.1</ele>
        <time>2017-05-27T08:13:12Z</time>
      </trkpt>
      <trkpt lat="49.00273" lon="-0.47098">
        <ele>41</ele>
        <time>2017-05-27T08:13:19Z</time>
      </trkpt>
      <trkpt lat="49.0028" lon="-0.47092">
        <ele>42.2</ele>
        <time>2017-05-27T08:13:26Z</time>
      </trkpt>
      <trkpt lat="49.00287" lon="-0.47085">
        <ele>42.8</ele>
        <time>2017-05-27T08:13:33Z</time>
      </trkpt>
      <trkpt lat="49.00294" lon="-0.47081">
        <ele>43.7</ele>
        <time>2017-05-27T08:13:40Z</time>
      </trkpt>
      <trkpt lat="49.00301" lon="-0.47076">
        <ele>43.6</ele>
        <time>2017-05-27T08:13:47Z</time>
      </trkpt>
      <trkpt lat="49.00307" lon="-0.47072">
        <ele>44.9</ele>
        <time>2017-05-27T08:13:53Z</time>
      </trkpt>
      <trkpt lat="49.00315" lon="-0.47067">
        <ele>47</ele>
        <time>2017-05-27T08:14:00Z</time>
      </trkpt>
      <trkpt lat="49.00322" lon="-0.47063">
        <ele>48</ele>
        <time>2017-05-27T08:14:07Z</time>
      </trkpt>
      <trkpt lat="49.00329" lon="-0.47058">
        <ele>48.5</ele>
        <time>2017-05-27T08:14:13Z</time>
      </trkpt>
      <trkpt lat="49.00337" lon="-0.47054">
        <ele>48.9</ele>
        <time>2017-05-27T08:14:20Z</time>
      </trkpt>
      <trkpt lat="49.00344" lon="-0.47051">
        <ele>50.3</ele>
        <time>2017-05-27T08:14:26Z</time>
      </trkpt>
      <trkpt lat="49.0035" lon="-0.47046">
        <ele>47.8</ele>
        <time>2017-05-27T08:14:32Z</time>
      </trkpt>
      <trkpt lat="49.00358" lon="-0.47043">
        <ele>46.9</ele>
        <time>2017-05-27T08:14:38Z</time>
      </trkpt>
      <trkpt lat="49.00365" lon="-0.47039">
        <ele>44.7</ele>
        <time>2017-05-27T08:14:44Z</time>
      </trkpt>
      <trkpt lat="49.00373" lon="-0.47035">
        <ele>42.3</ele>
        <time>2017-05-27T08:14:51Z</time>
      </trkpt>
      <trkpt lat="49.0038" lon="-0.4703">
        <ele>42.6</ele>
        <time>2017-05-27T08:14:58Z</time>
      </trkpt>
      <trkpt lat="49.00388" lon="-0.47025">
        <ele>43</ele>
        <time>2017-05-27T08:15:04Z</time>
      </trkpt>
      <trkpt lat="49.00395" lon="-0.47019">
        <ele>43.1</ele>
        <time>2017-05-27T08:15:10Z</time>
      </trkpt>
      <trkpt lat="49.00403" lon="-0.47016">
        <ele>42.1</ele>
        <time>2017-05-27T08:15:17Z</time>
      </trkpt>
      <trkpt lat="49.0041" lon="-0.47013">
        <ele>42.9</ele>
        <time>2017-05-27T08:15:23Z</time>
      </trkpt>
      <trkpt lat="49.00418" lon="-0.47009">
        <ele>45.2</ele>
        <time>2017-05-27T08:15:29Z</time>
      </trkpt>
      <trkpt lat="49.00425" lon="-0.47006">
        <ele>45.5</ele>
        <time>2017-05-27T08:15:35Z</time>
      </trkpt>
      <trkpt lat="49.00431" lon="-0.47001">
        <ele>44</ele>
        <time>2017-05-27T08:15:42Z</time>
      </trkpt>
      <trkpt lat="49.00437" lon="-0.46998">
        <ele>41.5</ele>
        <time>2017-05-27T08:15:49Z</time>
      </trkpt>
      <trkpt lat="49.00444" lon="-0.46994">
        <ele>40.6</ele>
        <time>2017-05-27T08:15:56Z</time>
      </trkpt>
      <trkpt lat="49.00451" lon="-0.4699">
        <ele>40.9</ele>
        <time>2017-05-27T08:16:03Z</time>
      </trkpt>
      <trkpt lat="49.00458" lon="-0.46987">
        <ele>40.2</ele>
        <time>2017-05-27T08:16:09Z</time>
      </trkpt>
      <trkpt lat="49.00466" lon="-0.46983">
        <ele>41.6</ele>
        <time>2017-05-27T08:16:15Z</time>
      </trkpt>
      <trkpt lat="49.00472" lon="-0.4698">
        <ele>41.1</ele>
        <time>2017-05-27T08:16:21Z</time>
      </trkpt>
      <trkpt lat="49.00479" lon="-0.46977">
        <ele>40.1</ele>
        <time>2017-05-27T08:16:27Z</time>
      </trkpt>
      <trkpt lat="49.00487" lon="-0.46974">
        <ele>39.6</ele>
        <time>2017-05-27T08:16:34Z</time>
      </trkpt>
      <trkpt lat="49.00495" lon="-0.46974">
        <ele>38.2</ele>
        <time>2017-05-27T08:16:40Z</time>
      </trkpt>
      <trkpt lat="49.00503" lon="-0.46975">
        <ele>36.3</ele>
        <time>2017-05-27T08:16:46Z</time>
      </trkpt>
      <trkpt lat="49.0051" lon="-0.46978">
        <ele>36.9</ele>
        <time>2017-05-27T08:16:52Z</time>
      </trkpt>
      <trkpt lat="49.00517" lon="-0.46982">
        <ele>39.1</ele>
        <time>2017-05-27T08:16:58Z</time>
      </trkpt>
      <trkpt lat="49.00524" lon="-0.46987">
        <ele>39.9</ele>
        <time>2017-05-27T08:17:05Z</time>
      </trkpt>
      <trkpt lat="49.00532" lon="-0.4699">
        <ele>39.5</ele>
        <time>2017-05-27T08:17:12Z</time>
      </trkpt>
      <trkpt lat="49.00538" lon="-0.46993">
        <ele>38.6</ele>
        <time>2017-05-27T08:17:19Z</time>
      </trkpt>
      <trkpt lat="49.00545" lon="-0.46996">
        <ele>37.8</ele>
        <time>2017-05-27T08:17:26Z</time>
      </trkpt>
      <trkpt lat="49.00551" lon="-0.46999">
        <ele>37.3</ele>
        <time>2017-05-27T08:17:33Z</time>
      </trkpt>
      <trkpt lat="49.00556" lon="-0.47003">
        <ele>36.5</ele>
        <time>2017-05-27T08:17:40Z</time>
      </trkpt>
      <trkpt lat="49.0056" lon="-0.47007">
        <ele>35</ele>
        <time>2017-05-27T08:17:47Z</time>
      </trkpt>
      <trkpt lat="49.00566" lon="-0.4701">
        <ele>32.3</ele>
        <time>2017-05-27T08:17:54Z</time>
      </trkpt>
      <trkpt lat="49.00572" lon="-0.47012">
        <ele>30.4</ele>
        <time>2017-05-27T08:18:01Z</time>
      </trkpt>
      <trkpt lat="49.00579" lon="-0.47015">
        <ele>32.4</ele>
        <time>2017-05-27T08:18:08Z</time>
      </trkpt>
      <trkpt lat="49.00584" lon="-0.47017">
        <ele>32.8</ele>
        <time>2017-05-27T08:18:15Z</time>
      </trkpt>
      <trkpt lat="49.0059" lon="-0.47018">
        <ele>31.9</ele>
        <time>2017-05-27T08:18:22Z</time>
      </trkpt>
      <trkpt lat="49.00597" lon="-0.47021">
        <ele>30.6</ele>
        <time>2017-05-27T08:18:29Z</time>
      </trkpt>
      <trkpt lat="49.00604" lon="-0.47026">
        <ele>28</ele>
        <time>2017-05-27T08:18:35Z</time>
      </trkpt>
      <trkpt lat="49.0061" lon="-0.4703">
        <ele>26.6</ele>
        <time>2017-05-27T08:18:42Z</time>
      </trkpt>
      <trkpt lat="49.00616" lon="-0.47035">
        <ele>25.8</ele>
        <time>2017-05-27T08:18:49Z</time>
      </trkpt>
      <trkpt lat="49.0062" lon="-0.47039">
        <ele>24.6</ele>
        <time>2017-05-27T08:18:56Z</time>
      </trkpt>
      <trkpt lat="49.00626" lon="-0.47045">
        <ele>24.2</ele>
        <time>2017-05-27T08:19:03Z</time>
      </trkpt>
      <trkpt lat="49.00632" lon="-0.47053">
        <ele>25.7</ele>
        <time>2017-05-27T08:19:09Z</time>
      </trkpt>
      <trkpt lat="49.00638" lon="-0.47059">
        <ele>26.4</ele>
        <time>2017-05-27T08:19:16Z</time>
      </trkpt>
      <trkpt lat="49.00643" lon="-0.47067">
        <ele>26.2</ele>
        <time>2017-05-27T08:19:23Z</time>
      </trkpt>
      <trkpt lat="49.0065" lon="-0.47074">
        <ele>26.3</ele>
        <time>2017-05-27T08:19:29Z</time>
      </trkpt>
      <trkpt lat="49.00655" lon="-0.47084">
        <ele>23.3</ele>
        <time>2017-05-27T08:19:35Z</time>
      </trkpt>
      <trkpt lat="49.00658" lon="-0.47095">
        <ele>19.1</ele>
        <time>2017-05-27T08:19:41Z</time>
      </trkpt>
      <trkpt lat="49.00662" lon="-0.47104">
        <ele>17.2</ele>
        <time>2017-05-27T08:19:48Z</time>
      </trkpt>
      <trkpt lat="49.00666" lon="-0.47116">
        <ele>17.7</ele>
        <time>2017-05-27T08:19:55Z</time>
      </trkpt>
      <trkpt lat="49.0067" lon="-0.47126">
        <ele>19.5</ele>
        <time>2017-05-27T08:20:01Z</time>
      </trkpt>
      <trkpt lat="49.00674" lon="-0.47134">
        <ele>22.6</ele>
        <time>2017-05-27T08:20:08Z</time>
      </trkpt>
      <trkpt lat="49.00678" lon="-0.47142">
        <ele>23.9</ele>
        <time>2017-05-27T08:20:15Z</time>
      </trkpt>
      <trkpt lat="49.00685" lon="-0.47148">
        <ele>23.6</ele>
        <time>2017-05-27T08:20:21Z</time>
      </trkpt>
      <trkpt lat="49.00692" lon="-0.47155">
        <ele>22.2</ele>
        <time>2017-05-27T08:20:28Z</time>
      </trkpt>
      <trkpt lat="49.00698" lon="-0.47163">
        <ele>21.5</ele>
        <time>2017-05-27T08:20:33Z</time>
      </trkpt>
      <trkpt lat="49.00705" lon="-0.47169">
        <ele>21.5</ele>
        <time>2017-05-27T08:20:39Z</time>
      </trkpt>
      <trkpt lat="49.00711" lon="-0.47175">
        <ele>20.7</ele>
        <time>2017-05-27T08:20:46Z</time>
      </trkpt>
      <trkpt lat="49.00717" lon="-0.47183">
        <ele>17.4</ele>
        <time>2017-05-27T08:20:53Z</time>
      </trkpt>
      <trkpt lat="49.00724" lon="-0.47189">
        <ele>15.2</ele>
        <time>2017-05-27T08:20:59Z</time>
      </trkpt>
      <trkpt lat="49.0073" lon="-0.47194">
        <ele>15.1</ele>
        <time>2017-05-27T08:21:06Z</time>
      </trkpt>
      <trkpt lat="49.00738" lon="-0.47199">
        <ele>16.3</ele>
        <time>2017-05-27T08:21:13Z</time>
      </trkpt>
      <trkpt lat="49.00746" lon="-0.47203">
        <ele>17.5</ele>
        <time>2017-05-27T08:21:19Z</time>
      </trkpt>
      <trkpt lat="49.00752" lon="-0.47206">
        <ele>18.8</ele>
        <time>2017-05-27T08:21:26Z</time>
      </trkpt>
      <trkpt lat="49.00758" lon="-0.47211">
        <ele>19.8</ele>
        <time>2017-05-27T08:21:33Z</time>
      </trkpt>
      <trkpt lat="49.00765" lon="-0.47217">
        <ele>20.6</ele>
        <time>2017-05-27T08:21:39Z</time>
      </trkpt>
      <trkpt lat="49.00773" lon="-0.47221">
        <ele>24.8</ele>
        <time>2017-05-27T08:21:46Z</time>
      </trkpt>
      <trkpt lat="49.00779" lon="-0.47225">
        <ele>29.3</ele>
        <time>2017-05-27T08:21:52Z</time>
      </trkpt>
      <trkpt lat="49.00786" lon="-0.4723">
        <ele>31.4</ele>
        <time>2017-05-27T08:21:59Z</time>
      </trkpt>
      <trkpt lat="49.00792" lon="-0.47232">
        <ele>35</ele>
        <time>2017-05-27T08:22:06Z</time>
      </trkpt>
      <trkpt lat="49.00797" lon="-0.47231">
        <ele>36.1</ele>
        <time>2017-05-27T08:22:13Z</time>
      </trkpt>
      <trkpt lat="49.00805" lon="-0.47232">
        <ele>37.7</ele>
        <time>2017-05-27T08:22:18Z</time>
      </trkpt>
      <trkpt lat="49.00812" lon="-0.47233">
        <ele>37.5</ele>
        <time>2017-05-27T08:22:24Z</time>
      </trkpt>
      <trkpt lat="49.00819" lon="-0.47237">
        <ele>34.6</ele>
        <time>2017-05-27T08:22:31Z</time>
      </trkpt>
      <trkpt lat="49.00827" lon="-0.4724">
        <ele>33.3</ele>
        <time>2017-05-27T08:22:37Z</time>
      </trkpt>
      <trkpt lat="49.00834" lon="-0.47246">
        <ele>29.3</ele>
        <time>2017-05-27T08:22:42Z</time>
      </trkpt>
      <trkpt lat="49.00841" lon="-0.47251">
        <ele>27.2</ele>
        <time>2017-05-27T08:22:49Z</time>
      </trkpt>
      <trkpt lat="49.00849" lon="-0.47255">
        <ele>25.7</ele>
        <time>2017-05-27T08:22:56Z</time>
      </trkpt>
      <trkpt lat="49.00855" lon="-0.47259">
        <ele>23.7</ele>
        <time>2017-05-27T08:23:02Z</time>
      </trkpt>
      <trkpt lat="49.00862" lon="-0.47264">
        <ele>20.5</ele>
        <time>2017-05-27T08:23:08Z</time>
      </trkpt>
      <trkpt lat="49.00869" lon="-0.47269">
        <ele>20.2</ele>
        <time>2017-05-27T08:23:15Z</time>
      </trkpt>
      <trkpt lat="49.00878" lon="-0.47274">
        <ele>22.1</ele>
        <time>2017-05-27T08:23:21Z</time>
      </trkpt>
      <trkpt lat="49.00885" lon="-0.47278">
        <ele>21.7</ele>
        <time>2017-05-27T08:23:27Z</time>
      </trkpt>
      <trkpt lat="49.00891" lon="-0.47282">
        <ele>21.8</ele>
        <time>2017-05-27T08:23:33Z</time>
      </trkpt>
      <trkpt lat="49.00898" lon="-0.47286">
        <ele>26.5</ele>
        <time>2017-05-27T08:23:40Z</time>
      </trkpt>
      <trkpt lat="49.00903" lon="-0.4729">
        <ele>28.8</ele>
        <time>2017-05-27T08:23:47Z</time>
      </trkpt>
      <trkpt lat="49.00909" lon="-0.47295">
        <ele>28.6</ele>
        <time>2017-05-27T08:23:54Z</time>
      </trkpt>
      <trkpt lat="49.00917" lon="-0.47298">
        <ele>31.2</ele>
        <time>2017-05-27T08:24:01Z</time>
      </trkpt>
      <trkpt lat="49.00924" lon="-0.47303">
        <ele>32.2</ele>
        <time>2017-05-27T08:24:07Z</time>
      </trkpt>
      <trkpt lat="49.00931" lon="-0.47308">
        <ele>35.6</ele>
        <time>2017-05-27T08:24:13Z</time>
      </trkpt>
      <trkpt lat="49.00936" lon="-0.47312">
        <ele>34.5</ele>
        <time>2017-05-27T08:24:20Z</time>
      </trkpt>
      <trkpt lat="49.00943" lon="-0.47316">
        <ele>37</ele>
        <time>2017-05-27T08:24:27Z</time>
      </trkpt>
      <trkpt lat="49.00949" lon="-0.47323">
        <ele>34.1</ele>
        <time>2017-05-27T08:24:33Z</time>
      </trkpt>
      <trkpt lat="49.00956" lon="-0.47328">
        <ele>34.4</ele>
        <time>2017-05-27T08:24:39Z</time>
      </trkpt>
      <trkpt lat="49.00963" lon="-0.47332">
        <ele>34.6</ele>
        <time>2017-05-27T08:24:46Z</time>
      </trkpt>
      <trkpt lat="49.00966" lon="-0.47336">
        <ele>32.5</ele>
        <time>2017-05-27T08:24:53Z</time>
      </trkpt>
      <trkpt lat="49.00972" lon="-0.47343">
        <ele>30</ele>
        <time>2017-05-27T08:24:59Z</time>
      </trkpt>
      <trkpt lat="49.00978" lon="-0.4735">
        <ele>27.8</ele>
        <time>2017-05-27T08:25:06Z</time>
      </trkpt>
      <trkpt lat="49.00985" lon="-0.47356">
        <ele>27.9</ele>
        <time>2017-05-27T08:25:13Z</time>
      </trkpt>
      <trkpt lat="49.00992" lon="-0.47362">
        <ele>26.6</ele>
        <time>2017-05-27T08:25:20Z</time>
      </trkpt>
      <trkpt lat="49.00998" lon="-0.47368">
        <ele>25</ele>
        <time>2017-05-27T08:25:26Z</time>
      </trkpt>
      <trkpt lat="49.01005" lon="-0.47372">
        <ele>25.1</ele>
        <time>2017-05-27T08:25:33Z</time>
      </trkpt>
      <trkpt lat="49.01011" lon="-0.47377">
        <ele>24.1</ele>
        <time>2017-05-27T08:25:40Z</time>
      </trkpt>
      <trkpt lat="49.01018" lon="-0.47379">
        <ele>24.5</ele>
        <time>2017-05-27T08:25:46Z</time>
      </trkpt>
      <trkpt lat="49.01023" lon="-0.47382">
        <ele>23.9</ele>
        <time>2017-05-27T08:25:53Z</time>
      </trkpt>
      <trkpt lat="49.01027" lon="-0.47384">
        <ele>22.7</ele>
        <time>2017-05-27T08:26:00Z</time>
      </trkpt>
      <trkpt lat="49.01034" lon="-0.47387">
        <ele>23.8</ele>
        <time>2017-05-27T08:26:07Z</time>
      </trkpt>
      <trkpt lat="49.01035" lon="-0.47389">
        <ele>22.7</ele>
        <time>2017-05-27T08:26:14Z</time>
      </trkpt>
      <trkpt lat="49.01042" lon="-0.47399">
        <ele>24.7</ele>
        <time>2017-05-27T08:26:37Z</time>
      </trkpt>
      <trkpt lat="49.01046" lon="-0.47405">
        <ele>21.2</ele>
        <time>2017-05-27T08:27:52Z</time>
      </trkpt>
      <trkpt lat="49.01053" lon="-0.4741">
        <ele>22.6</ele>
        <time>2017-05-27T08:27:57Z</time>
      </trkpt>
      <trkpt lat="49.01061" lon="-0.47415">
        <ele>24.9</ele>
        <time>2017-05-27T08:28:02Z</time>
      </trkpt>
      <trkpt lat="49.01068" lon="-0.47418">
        <ele>28.7</ele>
        <time>2017-05-27T08:28:08Z</time>
      </trkpt>
      <trkpt lat="49.01076" lon="-0.47419">
        <ele>31.3</ele>
        <time>2017-05-27T08:28:13Z</time>
      </trkpt>
      <trkpt lat="49.01083" lon="-0.47422">
        <ele>31.8</ele>
        <time>2017-05-27T08:28:19Z</time>
      </trkpt>
      <trkpt lat="49.0109" lon="-0.47425">
        <ele>33.5</ele>
        <time>2017-05-27T08:28:25Z</time>
      </trkpt>
      <trkpt lat="49.01097" lon="-0.47431">
        <ele>31.1</ele>
        <time>2017-05-27T08:28:31Z</time>
      </trkpt>
      <trkpt lat="49.01104" lon="-0.47433">
        <ele>31.4</ele>
        <time>2017-05-27T08:28:37Z</time>
      </trkpt>
      <trkpt lat="49.01111" lon="-0.47437">
        <ele>30.5</ele>
        <time>2017-05-27T08:28:42Z</time>
      </trkpt>
      <trkpt lat="49.01118" lon="-0.4744">
        <ele>32.8</ele>
        <time>2017-05-27T08:28:49Z</time>
      </trkpt>
      <trkpt lat="49.01124" lon="-0.47446">
        <ele>30.6</ele>
        <time>2017-05-27T08:28:56Z</time>
      </trkpt>
      <trkpt lat="49.0113" lon="-0.47448">
        <ele>31.5</ele>
        <time>2017-05-27T08:29:03Z</time>
      </trkpt>
      <trkpt lat="49.01137" lon="-0.47452">
        <ele>28.5</ele>
        <time>2017-05-27T08:29:09Z</time>
      </trkpt>
      <trkpt lat="49.01144" lon="-0.47456">
        <ele>26.8</ele>
        <time>2017-05-27T08:29:15Z</time>
      </trkpt>
      <trkpt lat="49.01152" lon="-0.4746">
        <ele>27</ele>
        <time>2017-05-27T08:29:22Z</time>
      </trkpt>
      <trkpt lat="49.01158" lon="-0.47464">
        <ele>23</ele>
        <time>2017-05-27T08:29:29Z</time>
      </trkpt>
      <trkpt lat="49.01164" lon="-0.47468">
        <ele>21.5</ele>
        <time>2017-05-27T08:29:36Z</time>
      </trkpt>
      <trkpt lat="49.01173" lon="-0.47471">
        <ele>20.8</ele>
        <time>2017-05-27T08:29:41Z</time>
      </trkpt>
      <trkpt lat="49.01181" lon="-0.47472">
        <ele>22.2</ele>
        <time>2017-05-27T08:29:48Z</time>
      </trkpt>
      <trkpt lat="49.01188" lon="-0.47473">
        <ele>23.8</ele>
        <time>2017-05-27T08:29:54Z</time>
      </trkpt>
      <trkpt lat="49.01196" lon="-0.47474">
        <ele>28.3</ele>
        <time>2017-05-27T08:30:00Z</time>
      </trkpt>
      <trkpt lat="49.01203" lon="-0.47478">
        <ele>30.1</ele>
        <time>2017-05-27T08:30:07Z</time>
      </trkpt>
      <trkpt lat="49.01211" lon="-0.47481">
        <ele>29.9</ele>
        <time>2017-05-27T08:30:14Z</time>
      </trkpt>
      <trkpt lat="49.01218" lon="-0.47484">
        <ele>29.7</ele>
        <time>2017-05-27T08:30:20Z</time>
      </trkpt>
      <trkpt lat="49.01226" lon="-0.47485">
        <ele>34.3</ele>
        <time>2017-05-27T08:30:27Z</time>
      </trkpt>
      <trkpt lat="49.01233" lon="-0.47488">
        <ele>35.6</ele>
        <time>2017-05-27T08:30:32Z</time>
      </trkpt>
      <trkpt lat="49.01239" lon="-0.47497">
        <ele>31.4</ele>
        <time>2017-05-27T08:30:38Z</time>
      </trkpt>
      <trkpt lat="49.01244" lon="-0.47505">
        <ele>23.1</ele>
        <time>2017-05-27T08:30:45Z</time>
      </trkpt>
      <trkpt lat="49.01247" lon="-0.47507">
        <ele>21.1</ele>
        <time>2017-05-27T08:30:52Z</time>
      </trkpt>
      <trkpt lat="49.01254" lon="-0.47507">
        <ele>20.6</ele>
        <time>2017-05-27T08:30:59Z</time>
      </trkpt>
      <trkpt lat="49.01262" lon="-0.47507">
        <ele>20.6</ele>
        <time>2017-05-27T08:31:06Z</time>
      </trkpt>
      <trkpt lat="49.01267" lon="-0.47509">
        <ele>21.6</ele>
        <time>2017-05-27T08:31:13Z</time>
      </trkpt>
      <trkpt lat="49.01272" lon="-0.47508">
        <ele>21.5</ele>
        <time>2017-05-27T08:31:20Z</time>
      </trkpt>
      <trkpt lat="49.01277" lon="-0.47505">
        <ele>21</ele>
        <time>2017-05-27T08:31:27Z</time>
      </trkpt>
      <trkpt lat="49.01281" lon="-0.475">
        <ele>22.1</ele>
        <time>2017-05-27T08:31:34Z</time>
      </trkpt>
      <trkpt lat="49.01286" lon="-0.47494">
        <ele>21.5</ele>
        <time>2017-05-27T08:31:41Z</time>
      </trkpt>
      <trkpt lat="49.01294" lon="-0.4749">
        <ele>20.8</ele>
        <time>2017-05-27T08:31:47Z</time>
      </trkpt>
      <trkpt lat="49.01301" lon="-0.47487">
        <ele>21.5</ele>
        <time>2017-05-27T08:31:53Z</time>
      </trkpt>
      <trkpt lat="49.01307" lon="-0.47484">
        <ele>21.6</ele>
        <time>2017-05-27T08:32:00Z</time>
      </trkpt>
      <trkpt lat="49.01315" lon="-0.47482">
        <ele>22.4</ele>
        <time>2017-05-27T08:32:06Z</time>
      </trkpt>
      <trkpt lat="49.01322" lon="-0.47478">
        <ele>24.8</ele>
        <time>2017-05-27T08:32:13Z</time>
      </trkpt>
      <trkpt lat="49.01328" lon="-0.47472">
        <ele>26.1</ele>
        <time>2017-05-27T08:32:19Z</time>
      </trkpt>
      <trkpt lat="49.01335" lon="-0.47466">
        <ele>26.2</ele>
        <time>2017-05-27T08:32:26Z</time>
      </trkpt>
      <trkpt lat="49.01339" lon="-0.47462">
        <ele>24.8</ele>
        <time>2017-05-27T08:32:33Z</time>
      </trkpt>
      <trkpt lat="49.01346" lon="-0.47459">
        <ele>21</ele>
        <time>2017-05-27T08:32:39Z</time>
      </trkpt>
      <trkpt lat="49.01353" lon="-0.47454">
        <ele>23</ele>
        <time>2017-05-27T08:32:46Z</time>
      </trkpt>
      <trkpt lat="49.01359" lon="-0.47451">
        <ele>24.7</ele>
        <time>2017-05-27T08:32:53Z</time>
      </trkpt>
      <trkpt lat="49.01363" lon="-0.47449">
        <ele>27.9</ele>
        <time>2017-05-27T08:33:00Z</time>
      </trkpt>
      <trkpt lat="49.01366" lon="-0.47447">
        <ele>27.5</ele>
        <time>2017-05-27T08:33:07Z</time>
      </trkpt>
      <trkpt lat="49.01368" lon="-0.47445">
        <ele>27.5</ele>
        <time>2017-05-27T08:33:14Z</time>
      </trkpt>
      <trkpt lat="49.01375" lon="-0.47443">
        <ele>23.9</ele>
        <time>2017-05-27T08:33:21Z</time>
      </trkpt>
      <trkpt lat="49.01383" lon="-0.47443">
        <ele>21.7</ele>
        <time>2017-05-27T08:33:28Z</time>
      </trkpt>
      <trkpt lat="49.01386" lon="-0.47442">
        <ele>19.8</ele>
        <time>2017-05-27T08:33:35Z</time>
      </trkpt>
      <trkpt lat="49.01393" lon="-0.47436">
        <ele>21.9</ele>
        <time>2017-05-27T08:33:59Z</time>
      </trkpt>
      <trkpt lat="49.014" lon="-0.47431">
        <ele>22.2</ele>
        <time>2017-05-27T08:34:05Z</time>
      </trkpt>
      <trkpt lat="49.01406" lon="-0.47427">
        <ele>22.5</ele>
        <time>2017-05-27T08:34:10Z</time>
      </trkpt>
      <trkpt lat="49.01413" lon="-0.47424">
        <ele>23</ele>
        <time>2017-05-27T08:34:15Z</time>
      </trkpt>
      <trkpt lat="49.0142" lon="-0.47415">
        <ele>24</ele>
        <time>2017-05-27T08:34:21Z</time>
      </trkpt>
      <trkpt lat="49.01424" lon="-0.47405">
        <ele>23.7</ele>
        <time>2017-05-27T08:34:26Z</time>
      </trkpt>
      <trkpt lat="49.01428" lon="-0.47395">
        <ele>24.1</ele>
        <time>2017-05-27T08:34:32Z</time>
      </trkpt>
      <trkpt lat="49.01432" lon="-0.47386">
        <ele>25.5</ele>
        <time>2017-05-27T08:34:38Z</time>
      </trkpt>
      <trkpt lat="49.01435" lon="-0.47378">
        <ele>26.1</ele>
        <time>2017-05-27T08:34:45Z</time>
      </trkpt>
      <trkpt lat="49.01436" lon="-0.47372">
        <ele>26.7</ele>
        <time>2017-05-27T08:34:52Z</time>
      </trkpt>
      <trkpt lat="49.01443" lon="-0.47367">
        <ele>22.9</ele>
        <time>2017-05-27T08:35:09Z</time>
      </trkpt>
      <trkpt lat="49.01446" lon="-0.47357">
        <ele>23.5</ele>
        <time>2017-05-27T08:35:15Z</time>
      </trkpt>
      <trkpt lat="49.01447" lon="-0.47346">
        <ele>24.4</ele>
        <time>2017-05-27T08:35:22Z</time>
      </trkpt>
      <trkpt lat="49.01448" lon="-0.47345">
        <ele>25</ele>
        <time>2017-05-27T08:35:29Z</time>
      </trkpt>
      <trkpt lat="49.01453" lon="-0.47335">
        <ele>25.1</ele>
        <time>2017-05-27T08:35:36Z</time>
      </trkpt>
      <trkpt lat="49.01458" lon="-0.47327">
        <ele>24.8</ele>
        <time>2017-05-27T08:35:43Z</time>
      </trkpt>
      <trkpt lat="49.01461" lon="-0.4732">
        <ele>25.1</ele>
        <time>2017-05-27T08:35:50Z</time>
      </trkpt>
      <trkpt lat="49.01466" lon="-0.4731">
        <ele>25.3</ele>
        <time>2017-05-27T08:35:57Z</time>
      </trkpt>
      <trkpt lat="49.01471" lon="-0.47302">
        <ele>25.4</ele>
        <time>2017-05-27T08:36:04Z</time>
      </trkpt>
      <trkpt lat="49.01476" lon="-0.47294">
        <ele>26.5</ele>
        <time>2017-05-27T08:36:11Z</time>
      </trkpt>
      <trkpt lat="49.01482" lon="-0.47287">
        <ele>26.7</ele>
        <time>2017-05-27T08:36:18Z</time>
      </trkpt>
      <trkpt lat="49.01487" lon="-0.47278">
        <ele>25.9</ele>
        <time>2017-05-27T08:36:25Z</time>
      </trkpt>
      <trkpt lat="49.01489" lon="-0.4727">
        <ele>26.5</ele>
        <time>2017-05-27T08:36:32Z</time>
      </trkpt>
      <trkpt lat="49.01495" lon="-0.47262">
        <ele>26.6</ele>
        <time>2017-05-27T08:36:39Z</time>
      </trkpt>
      <trkpt lat="49.01502" lon="-0.47256">
        <ele>28.1</ele>
        <time>2017-05-27T08:36:46Z</time>
      </trkpt>
      <trkpt lat="49.01508" lon="-0.47249">
        <ele>26.6</ele>
        <time>2017-05-27T08:36:52Z</time>
      </trkpt>
      <trkpt lat="49.01514" lon="-0.47242">
        <ele>26.6</ele>
        <time>2017-05-27T08:36:58Z</time>
      </trkpt>
      <trkpt lat="49.0152" lon="-0.47237">
        <ele>25.4</ele>
        <time>2017-05-27T08:37:05Z</time>
      </trkpt>
      <trkpt lat="49.01524" lon="-0.4723">
        <ele>25.6</ele>
        <time>2017-05-27T08:37:12Z</time>
      </trkpt>
      <trkpt lat="49.0153" lon="-0.47223">
        <ele>24.2</ele>
        <time>2017-05-27T08:37:19Z</time>
      </trkpt>
      <trkpt lat="49.01536" lon="-0.47215">
        <ele>24.3</ele>
        <time>2017-05-27T08:37:26Z</time>
      </trkpt>
      <trkpt lat="49.01542" lon="-0.4721">
        <ele>24.5</ele>
        <time>2017-05-27T08:37:33Z</time>
      </trkpt>
      <trkpt lat="49.01548" lon="-0.47204">
        <ele>23.7</ele>
        <time>2017-05-27T08:37:40Z</time>
      </trkpt>
      <trkpt lat="49.01555" lon="-0.47196">
        <ele>22.2</ele>
        <time>2017-05-27T08:37:47Z</time>
      </trkpt>
      <trkpt lat="49.0156" lon="-0.47187">
        <ele>20.8</ele>
        <time>2017-05-27T08:37:54Z</time>
      </trkpt>
      <trkpt lat="49.01566" lon="-0.47179">
        <ele>20.7</ele>
        <time>2017-05-27T08:38:01Z</time>
      </trkpt>
      <trkpt lat="49.01571" lon="-0.47173">
        <ele>21.5</ele>
        <time>2017-05-27T08:38:08Z</time>
      </trkpt>
      <trkpt lat="49.01577" lon="-0.47164">
        <ele>21.3</ele>
        <time>2017-05-27T08:38:14Z</time>
      </trkpt>
      <trkpt lat="49.01584" lon="-0.47156">
        <ele>20</ele>
        <time>2017-05-27T08:38:20Z</time>
      </trkpt>
      <trkpt lat="49.01589" lon="-0.47149">
        <ele>18.1</ele>
        <time>2017-05-27T08:38:26Z</time>
      </trkpt>
      <trkpt lat="49.01593" lon="-0.4714">
        <ele>16.3</ele>
        <time>2017-05-27T08:38:33Z</time>
      </trkpt>
      <trkpt lat="49.01599" lon="-0.47132">
        <ele>14.2</ele>
        <time>2017-05-27T08:38:40Z</time>
      </trkpt>
      <trkpt lat="49.01605" lon="-0.47126">
        <ele>13.1</ele>
        <time>2017-05-27T08:38:47Z</time>
      </trkpt>
      <trkpt lat="49.01611" lon="-0.4712">
        <ele>12.2</ele>
        <time>2017-05-27T08:38:54Z</time>
      </trkpt>
      <trkpt lat="49.01618" lon="-0.47117">
        <ele>14.2</ele>
        <time>2017-05-27T08:39:01Z</time>
      </trkpt>
      <trkpt lat="49.01624" lon="-0.4711">
        <ele>15.1</ele>
        <time>2017-05-27T08:39:07Z</time>
      </trkpt>
      <trkpt lat="49.01629" lon="-0.47101">
        <ele>15.8</ele>
        <time>2017-05-27T08:39:14Z</time>
      </trkpt>
      <trkpt lat="49.01635" lon="-0.47095">
        <ele>16.4</ele>
        <time>2017-05-27T08:39:19Z</time>
      </trkpt>
      <trkpt lat="49.01641" lon="-0.47087">
        <ele>16.3</ele>
        <time>2017-05-27T08:39:25Z</time>
      </trkpt>
      <trkpt lat="49.01648" lon="-0.47081">
        <ele>14.4</ele>
        <time>2017-05-27T08:39:32Z</time>
      </trkpt>
      <trkpt lat="49.01653" lon="-0.47073">
        <ele>16</ele>
        <time>2017-05-27T08:39:38Z</time>
      </trkpt>
      <trkpt lat="49.0166" lon="-0.47067">
        <ele>14.8</ele>
        <time>2017-05-27T08:39:44Z</time>
      </trkpt>
      <trkpt lat="49.01664" lon="-0.47058">
        <ele>17.4</ele>
        <time>2017-05-27T08:39:51Z</time>
      </trkpt>
      <trkpt lat="49.01669" lon="-0.47051">
        <ele>18.1</ele>
        <time>2017-05-27T08:39:58Z</time>
      </trkpt>
      <trkpt lat="49.0167" lon="-0.47048">
        <ele>18.2</ele>
        <time>2017-05-27T08:40:05Z</time>
      </trkpt>
      <trkpt lat="49.01677" lon="-0.47047">
        <ele>16.1</ele>
        <time>2017-05-27T08:40:12Z</time>
      </trkpt>
      <trkpt lat="49.01678" lon="-0.47046">
        <ele>15.3</ele>
        <time>2017-05-27T08:40:19Z</time>
      </trkpt>
      <trkpt lat="49.0168" lon="-0.47048">
        <ele>17.8</ele>
        <time>2017-05-27T08:40:36Z</time>
      </trkpt>
      <trkpt lat="49.0168" lon="-0.47044">
        <ele>23.1</ele>
        <time>2017-05-27T08:40:36Z</time>
      </trkpt>
      <trkpt lat="49.01681" lon="-0.47033">
        <ele>26.6</ele>
        <time>2017-05-27T08:42:36Z</time>
      </trkpt>
      <trkpt lat="49.01685" lon="-0.47021">
        <ele>31.3</ele>
        <time>2017-05-27T08:43:23Z</time>
      </trkpt>
      <trkpt lat="49.01688" lon="-0.47016">
        <ele>29.7</ele>
        <time>2017-05-27T08:43:30Z</time>
      </trkpt>
      <trkpt lat="49.01694" lon="-0.47009">
        <ele>27</ele>
        <time>2017-05-27T08:43:37Z</time>
      </trkpt>
      <trkpt lat="49.01699" lon="-0.47001">
        <ele>24</ele>
        <time>2017-05-27T08:43:44Z</time>
      </trkpt>
      <trkpt lat="49.01707" lon="-0.46993">
        <ele>18.4</ele>
        <time>2017-05-27T08:43:51Z</time>
      </trkpt>
      <trkpt lat="49.01713" lon="-0.46986">
        <ele>14.7</ele>
        <time>2017-05-27T08:43:57Z</time>
      </trkpt>
      <trkpt lat="49.0172" lon="-0.46981">
        <ele>8.1</ele>
        <time>2017-05-27T08:44:04Z</time>
      </trkpt>
      <trkpt lat="49.01726" lon="-0.46975">
        <ele>4.7</ele>
        <time>2017-05-27T08:44:10Z</time>
      </trkpt>
      <trkpt lat="49.01733" lon="-0.4697">
        <ele>3.6</ele>
        <time>2017-05-27T08:44:16Z</time>
      </trkpt>
      <trkpt lat="49.01739" lon="-0.46965">
        <ele>2.5</ele>
        <time>2017-05-27T08:44:23Z</time>
      </trkpt>
      <trkpt lat="49.01745" lon="-0.46962">
        <ele>2</ele>
        <time>2017-05-27T08:44:30Z</time>
      </trkpt>
      <trkpt lat="49.01752" lon="-0.46957">
        <ele>2.8</ele>
        <time>2017-05-27T08:44:36Z</time>
      </trkpt>
      <trkpt lat="49.01759" lon="-0.4695">
        <ele>4.9</ele>
        <time>2017-05-27T08:44:43Z</time>
      </trkpt>
      <trkpt lat="49.01766" lon="-0.46946">
        <ele>6.8</ele>
        <time>2017-05-27T08:44:50Z</time>
      </trkpt>
      <trkpt lat="49.01773" lon="-0.46942">
        <ele>9.7</ele>
        <time>2017-05-27T08:44:57Z</time>
      </trkpt>
      <trkpt lat="49.01778" lon="-0.46939">
        <ele>12.1</ele>
        <time>2017-05-27T08:45:04Z</time>
      </trkpt>
      <trkpt lat="49.01784" lon="-0.46934">
        <ele>14.6</ele>
        <time>2017-05-27T08:45:11Z</time>
      </trkpt>
      <trkpt lat="49.01788" lon="-0.46926">
        <ele>17.1</ele>
        <time>2017-05-27T08:45:18Z</time>
      </trkpt>
      <trkpt lat="49.01794" lon="-0.46923">
        <ele>20.3</ele>
        <time>2017-05-27T08:45:25Z</time>
      </trkpt>
      <trkpt lat="49.01801" lon="-0.4692">
        <ele>23.1</ele>
        <time>2017-05-27T08:45:32Z</time>
      </trkpt>
      <trkpt lat="49.01809" lon="-0.46919">
        <ele>22.8</ele>
        <time>2017-05-27T08:45:39Z</time>
      </trkpt>
      <trkpt lat="49.01816" lon="-0.46916">
        <ele>25.6</ele>
        <time>2017-05-27T08:45:46Z</time>
      </trkpt>
      <trkpt lat="49.01824" lon="-0.46914">
        <ele>26.7</ele>
        <time>2017-05-27T08:45:52Z</time>
      </trkpt>
      <trkpt lat="49.01832" lon="-0.46914">
        <ele>26.1</ele>
        <time>2017-05-27T08:45:59Z</time>
      </trkpt>
      <trkpt lat="49.01839" lon="-0.46915">
        <ele>27.9</ele>
        <time>2017-05-27T08:46:06Z</time>
      </trkpt>
      <trkpt lat="49.01846" lon="-0.46918">
        <ele>29.9</ele>
        <time>2017-05-27T08:46:13Z</time>
      </trkpt>
      <trkpt lat="49.01854" lon="-0.46923">
        <ele>30.2</ele>
        <time>2017-05-27T08:46:20Z</time>
      </trkpt>
      <trkpt lat="49.01861" lon="-0.46928">
        <ele>28.1</ele>
        <time>2017-05-27T08:46:26Z</time>
      </trkpt>
      <trkpt lat="49.01868" lon="-0.46932">
        <ele>26.7</ele>
        <time>2017-05-27T08:46:31Z</time>
      </trkpt>
      <trkpt lat="49.01875" lon="-0.46936">
        <ele>25.1</ele>
        <time>2017-05-27T08:46:36Z</time>
      </trkpt>
      <trkpt lat="49.01881" lon="-0.46943">
        <ele>23.3</ele>
        <time>2017-05-27T08:46:40Z</time>
      </trkpt>
      <trkpt lat="49.01884" lon="-0.46952">
        <ele>24.8</ele>
        <time>2017-05-27T08:46:47Z</time>
      </trkpt>
      <trkpt lat="49.01885" lon="-0.46961">
        <ele>24.3</ele>
        <time>2017-05-27T08:46:54Z</time>
      </trkpt>
      <trkpt lat="49.01892" lon="-0.46962">
        <ele>23.4</ele>
        <time>2017-05-27T08:47:42Z</time>
      </trkpt>
      <trkpt lat="49.01885" lon="-0.46964">
        <ele>28.4</ele>
        <time>2017-05-27T08:49:22Z</time>
      </trkpt>
      <trkpt lat="49.01892" lon="-0.46959">
        <ele>29.1</ele>
        <time>2017-05-27T08:49:31Z</time>
      </trkpt>
      <trkpt lat="49.01891" lon="-0.46956">
        <ele>29.4</ele>
        <time>2017-05-27T08:49:38Z</time>
      </trkpt>
      <trkpt lat="49.0189" lon="-0.46972">
        <ele>16.5</ele>
        <time>2017-05-27T08:50:10Z</time>
      </trkpt>
      <trkpt lat="49.01896" lon="-0.46965">
        <ele>16.4</ele>
        <time>2017-05-27T08:50:14Z</time>
      </trkpt>
      <trkpt lat="49.01897" lon="-0.46954">
        <ele>26</ele>
        <time>2017-05-27T08:51:03Z</time>
      </trkpt>
      <trkpt lat="49.01899" lon="-0.46945">
        <ele>23.4</ele>
        <time>2017-05-27T08:51:10Z</time>
      </trkpt>
      <trkpt lat="49.01902" lon="-0.46935">
        <ele>24.3</ele>
        <time>2017-05-27T08:51:17Z</time>
      </trkpt>
      <trkpt lat="49.01905" lon="-0.46927">
        <ele>21.3</ele>
        <time>2017-05-27T08:51:24Z</time>
      </trkpt>
      <trkpt lat="49.01911" lon="-0.46918">
        <ele>19.6</ele>
        <time>2017-05-27T08:51:31Z</time>
      </trkpt>
      <trkpt lat="49.01913" lon="-0.46912">
        <ele>18.5</ele>
        <time>2017-05-27T08:51:38Z</time>
      </trkpt>
      <trkpt lat="49.01919" lon="-0.46908">
        <ele>21.9</ele>
        <time>2017-05-27T08:51:45Z</time>
      </trkpt>
      <trkpt lat="49.01926" lon="-0.46902">
        <ele>24.5</ele>
        <time>2017-05-27T08:51:52Z</time>
      </trkpt>
      <trkpt lat="49.01932" lon="-0.46896">
        <ele>29.9</ele>
        <time>2017-05-27T08:51:59Z</time>
      </trkpt>
      <trkpt lat="49.0194" lon="-0.46892">
        <ele>34.7</ele>
        <time>2017-05-27T08:52:05Z</time>
      </trkpt>
      <trkpt lat="49.01946" lon="-0.46888">
        <ele>36.7</ele>
        <time>2017-05-27T08:52:12Z</time>
      </trkpt>
      <trkpt lat="49.01952" lon="-0.46882">
        <ele>38.7</ele>
        <time>2017-05-27T08:52:19Z</time>
      </trkpt>
      <trkpt lat="49.01959" lon="-0.46878">
        <ele>40.9</ele>
        <time>2017-05-27T08:52:26Z</time>
      </trkpt>
      <trkpt lat="49.01965" lon="-0.46874">
        <ele>42</ele>
        <time>2017-05-27T08:52:33Z</time>
      </trkpt>
      <trkpt lat="49.01972" lon="-0.46868">
        <ele>44.8</ele>
        <time>2017-05-27T08:52:40Z</time>
      </trkpt>
      <trkpt lat="49.01979" lon="-0.46862">
        <ele>45.9</ele>
        <time>2017-05-27T08:52:47Z</time>
      </trkpt>
      <trkpt lat="49.01986" lon="-0.46861">
        <ele>45.6</ele>
        <time>2017-05-27T08:52:54Z</time>
      </trkpt>
      <trkpt lat="49.01992" lon="-0.46862">
        <ele>41.5</ele>
        <time>2017-05-27T08:53:01Z</time>
      </trkpt>
      <trkpt lat="49.01999" lon="-0.46861">
        <ele>32.3</ele>
        <time>2017-05-27T08:53:08Z</time>
      </trkpt>
      <trkpt lat="49.02006" lon="-0.46858">
        <ele>30.3</ele>
        <time>2017-05-27T08:53:14Z</time>
      </trkpt>
      <trkpt lat="49.02012" lon="-0.46851">
        <ele>31.6</ele>
        <time>2017-05-27T08:53:21Z</time>
      </trkpt>
      <trkpt lat="49.02018" lon="-0.46845">
        <ele>31.2</ele>
        <time>2017-05-27T08:53:28Z</time>
      </trkpt>
      <trkpt lat="49.02025" lon="-0.4684">
        <ele>28.5</ele>
        <time>2017-05-27T08:53:35Z</time>
      </trkpt>
      <trkpt lat="49.0203" lon="-0.46835">
        <ele>26.7</ele>
        <time>2017-05-27T08:53:42Z</time>
      </trkpt>
      <trkpt lat="49.02037" lon="-0.46829">
        <ele>25</ele>
        <time>2017-05-27T08:53:49Z</time>
      </trkpt>
      <trkpt lat="49.02043" lon="-0.46823">
        <ele>22.3</ele>
        <time>2017-05-27T08:53:55Z</time>
      </trkpt>
      <trkpt lat="49.02048" lon="-0.46814">
        <ele>22.3</ele>
        <time>2017-05-27T08:54:01Z</time>
      </trkpt>
      <trkpt lat="49.02055" lon="-0.46807">
        <ele>19.7</ele>
        <time>2017-05-27T08:54:08Z</time>
      </trkpt>
      <trkpt lat="49.02063" lon="-0.46806">
        <ele>19.1</ele>
        <time>2017-05-27T08:54:15Z</time>
      </trkpt>
      <trkpt lat="49.02071" lon="-0.46803">
        <ele>18.2</ele>
        <time>2017-05-27T08:54:22Z</time>
      </trkpt>
      <trkpt lat="49.02078" lon="-0.46799">
        <ele>17.7</ele>
        <time>2017-05-27T08:54:28Z</time>
      </trkpt>
      <trkpt lat="49.02086" lon="-0.46795">
        <ele>17.3</ele>
        <time>2017-05-27T08:54:35Z</time>
      </trkpt>
      <trkpt lat="49.0209" lon="-0.46789">
        <ele>17.9</ele>
        <time>2017-05-27T08:54:42Z</time>
      </trkpt>
      <trkpt lat="49.02096" lon="-0.46783">
        <ele>17.5</ele>
        <time>2017-05-27T08:54:49Z</time>
      </trkpt>
      <trkpt lat="49.02102" lon="-0.46776">
        <ele>16.9</ele>
        <time>2017-05-27T08:54:55Z</time>
      </trkpt>
      <trkpt lat="49.02106" lon="-0.46766">
        <ele>16.5</ele>
        <time>2017-05-27T08:55:02Z</time>
      </trkpt>
      <trkpt lat="49.02112" lon="-0.46758">
        <ele>14.9</ele>
        <time>2017-05-27T08:55:09Z</time>
      </trkpt>
      <trkpt lat="49.02119" lon="-0.46751">
        <ele>13.5</ele>
        <time>2017-05-27T08:55:15Z</time>
      </trkpt>
      <trkpt lat="49.02125" lon="-0.46747">
        <ele>12.4</ele>
        <time>2017-05-27T08:55:22Z</time>
      </trkpt>
      <trkpt lat="49.02131" lon="-0.4674">
        <ele>11.6</ele>
        <time>2017-05-27T08:55:29Z</time>
      </trkpt>
      <trkpt lat="49.02138" lon="-0.46734">
        <ele>11.2</ele>
        <time>2017-05-27T08:55:36Z</time>
      </trkpt>
      <trkpt lat="49.02145" lon="-0.4673">
        <ele>10.5</ele>
        <time>2017-05-27T08:55:42Z</time>
      </trkpt>
      <trkpt lat="49.02152" lon="-0.46726">
        <ele>9.9</ele>
        <time>2017-05-27T08:55:48Z</time>
      </trkpt>
      <trkpt lat="49.02158" lon="-0.46723">
        <ele>8.9</ele>
        <time>2017-05-27T08:55:54Z</time>
      </trkpt>
      <trkpt lat="49.02165" lon="-0.46721">
        <ele>8.2</ele>
        <time>2017-05-27T08:56:01Z</time>
      </trkpt>
      <trkpt lat="49.0217" lon="-0.46715">
        <ele>8.5</ele>
        <time>2017-05-27T08:56:08Z</time>
      </trkpt>
      <trkpt lat="49.02177" lon="-0.46711">
        <ele>8.2</ele>
        <time>2017-05-27T08:56:14Z</time>
      </trkpt>
      <trkpt lat="49.02183" lon="-0.46705">
        <ele>10.8</ele>
        <time>2017-05-27T08:56:21Z</time>
      </trkpt>
      <trkpt lat="49.02191" lon="-0.46702">
        <ele>12</ele>
        <time>2017-05-27T08:56:27Z</time>
      </trkpt>
      <trkpt lat="49.02196" lon="-0.46701">
        <ele>13</ele>
        <time>2017-05-27T08:56:34Z</time>
      </trkpt>
      <trkpt lat="49.02204" lon="-0.467">
        <ele>10.7</ele>
        <time>2017-05-27T08:56:41Z</time>
      </trkpt>
      <trkpt lat="49.02212" lon="-0.46697">
        <ele>12.3</ele>
        <time>2017-05-27T08:56:47Z</time>
      </trkpt>
      <trkpt lat="49.02219" lon="-0.46692">
        <ele>14.7</ele>
        <time>2017-05-27T08:56:52Z</time>
      </trkpt>
      <trkpt lat="49.02226" lon="-0.46686">
        <ele>18.9</ele>
        <time>2017-05-27T08:56:58Z</time>
      </trkpt>
      <trkpt lat="49.02232" lon="-0.46679">
        <ele>24.1</ele>
        <time>2017-05-27T08:57:04Z</time>
      </trkpt>
      <trkpt lat="49.02239" lon="-0.46676">
        <ele>26.1</ele>
        <time>2017-05-27T08:57:09Z</time>
      </trkpt>
      <trkpt lat="49.02248" lon="-0.46676">
        <ele>27.2</ele>
        <time>2017-05-27T08:57:15Z</time>
      </trkpt>
      <trkpt lat="49.02256" lon="-0.46677">
        <ele>28.7</ele>
        <time>2017-05-27T08:57:21Z</time>
      </trkpt>
      <trkpt lat="49.02264" lon="-0.46675">
        <ele>29.4</ele>
        <time>2017-05-27T08:57:27Z</time>
      </trkpt>
      <trkpt lat="49.02271" lon="-0.46677">
        <ele>29</ele>
        <time>2017-05-27T08:57:33Z</time>
      </trkpt>
      <trkpt lat="49.02278" lon="-0.46682">
        <ele>29.6</ele>
        <time>2017-05-27T08:57:40Z</time>
      </trkpt>
      <trkpt lat="49.02284" lon="-0.46679">
        <ele>29.3</ele>
        <time>2017-05-27T08:57:47Z</time>
      </trkpt>
      <trkpt lat="49.02287" lon="-0.46683">
        <ele>28.2</ele>
        <time>2017-05-27T08:57:54Z</time>
      </trkpt>
      <trkpt lat="49.0229" lon="-0.46689">
        <ele>26</ele>
        <time>2017-05-27T08:58:07Z</time>
      </trkpt>
      <trkpt lat="49.02293" lon="-0.46698">
        <ele>25.6</ele>
        <time>2017-05-27T08:58:14Z</time>
      </trkpt>
      <trkpt lat="49.02299" lon="-0.46702">
        <ele>24.4</ele>
        <time>2017-05-27T08:58:21Z</time>
      </trkpt>
      <trkpt lat="49.02302" lon="-0.46704">
        <ele>24</ele>
        <time>2017-05-27T08:58:28Z</time>
      </trkpt>
      <trkpt lat="49.02304" lon="-0.46704">
        <ele>23.8</ele>
        <time>2017-05-27T08:58:35Z</time>
      </trkpt>
      <trkpt lat="49.02304" lon="-0.46704">
        <ele>23.2</ele>
        <time>2017-05-27T08:58:42Z</time>
      </trkpt>
      <trkpt lat="49.02311" lon="-0.46698">
        <ele>24.8</ele>
        <time>2017-05-27T08:58:49Z</time>
      </trkpt>
      <trkpt lat="49.02312" lon="-0.46697">
        <ele>25.4</ele>
        <time>2017-05-27T08:58:56Z</time>
      </trkpt>
      <trkpt lat="49.0232" lon="-0.46695">
        <ele>23.6</ele>
        <time>2017-05-27T08:58:38Z</time>
      </trkpt>
      <trkpt lat="49.02327" lon="-0.46692">
        <ele>22.6</ele>
        <time>2017-05-27T08:59:49Z</time>
      </trkpt>
      <trkpt lat="49.02333" lon="-0.46687">
        <ele>20.5</ele>
        <time>2017-05-27T08:59:56Z</time>
      </trkpt>
      <trkpt lat="49.0234" lon="-0.46684">
        <ele>20.2</ele>
        <time>2017-05-27T09:00:03Z</time>
      </trkpt>
      <trkpt lat="49.02347" lon="-0.46682">
        <ele>19.4</ele>
        <time>2017-05-27T09:00:10Z</time>
      </trkpt>
      <trkpt lat="49.02355" lon="-0.46681">
        <ele>19.8</ele>
        <time>2017-05-27T09:00:17Z</time>
      </trkpt>
      <trkpt lat="49.02363" lon="-0.46681">
        <ele>19.4</ele>
        <time>2017-05-27T09:00:24Z</time>
      </trkpt>
      <trkpt lat="49.02371" lon="-0.4668">
        <ele>19</ele>
        <time>2017-05-27T09:00:31Z</time>
      </trkpt>
      <trkpt lat="49.02376" lon="-0.46678">
        <ele>19.5</ele>
        <time>2017-05-27T09:00:38Z</time>
      </trkpt>
      <trkpt lat="49.0238" lon="-0.46677">
        <ele>19.7</ele>
        <time>2017-05-27T09:00:45Z</time>
      </trkpt>
      <trkpt lat="49.02387" lon="-0.46677">
        <ele>21.3</ele>
        <time>2017-05-27T09:00:58Z</time>
      </trkpt>
      <trkpt lat="49.02395" lon="-0.46677">
        <ele>21.6</ele>
        <time>2017-05-27T09:01:12Z</time>
      </trkpt>
      <trkpt lat="49.02401" lon="-0.46673">
        <ele>23.2</ele>
        <time>2017-05-27T09:01:19Z</time>
      </trkpt>
      <trkpt lat="49.02409" lon="-0.46673">
        <ele>25.4</ele>
        <time>2017-05-27T09:01:26Z</time>
      </trkpt>
      <trkpt lat="49.02415" lon="-0.46672">
        <ele>26.3</ele>
        <time>2017-05-27T09:01:33Z</time>
      </trkpt>
      <trkpt lat="49.0242" lon="-0.46668">
        <ele>34.4</ele>
        <time>2017-05-27T09:01:40Z</time>
      </trkpt>
      <trkpt lat="49.02427" lon="-0.46667">
        <ele>37.6</ele>
        <time>2017-05-27T09:01:47Z</time>
      </trkpt>
      <trkpt lat="49.02434" lon="-0.46668">
        <ele>39</ele>
        <time>2017-05-27T09:01:54Z</time>
      </trkpt>
      <trkpt lat="49.02439" lon="-0.46669">
        <ele>39.7</ele>
        <time>2017-05-27T09:02:01Z</time>
      </trkpt>
      <trkpt lat="49.02445" lon="-0.46673">
        <ele>41.5</ele>
        <time>2017-05-27T09:02:08Z</time>
      </trkpt>
      <trkpt lat="49.0245" lon="-0.46678">
        <ele>39.5</ele>
        <time>2017-05-27T09:02:15Z</time>
      </trkpt>
      <trkpt lat="49.0245" lon="-0.46687">
        <ele>38.8</ele>
        <time>2017-05-27T09:02:22Z</time>
      </trkpt>
      <trkpt lat="49.02452" lon="-0.467">
        <ele>38.2</ele>
        <time>2017-05-27T09:02:29Z</time>
      </trkpt>
      <trkpt lat="49.02454" lon="-0.46712">
        <ele>34.7</ele>
        <time>2017-05-27T09:02:36Z</time>
      </trkpt>
      <trkpt lat="49.02455" lon="-0.46724">
        <ele>27.6</ele>
        <time>2017-05-27T09:02:42Z</time>
      </trkpt>
      <trkpt lat="49.02456" lon="-0.46737">
        <ele>25.8</ele>
        <time>2017-05-27T09:02:48Z</time>
      </trkpt>
      <trkpt lat="49.02458" lon="-0.46748">
        <ele>24.9</ele>
        <time>2017-05-27T09:02:55Z</time>
      </trkpt>
      <trkpt lat="49.02458" lon="-0.4676">
        <ele>22.7</ele>
        <time>2017-05-27T09:03:02Z</time>
      </trkpt>
      <trkpt lat="49.02458" lon="-0.46771">
        <ele>21.8</ele>
        <time>2017-05-27T09:03:09Z</time>
      </trkpt>
      <trkpt lat="49.02454" lon="-0.46779">
        <ele>23.3</ele>
        <time>2017-05-27T09:03:16Z</time>
      </trkpt>
      <trkpt lat="49.02455" lon="-0.46784">
        <ele>22.4</ele>
        <time>2017-05-27T09:03:23Z</time>
      </trkpt>
      <trkpt lat="49.02452" lon="-0.46784">
        <ele>22.9</ele>
        <time>2017-05-27T09:03:30Z</time>
      </trkpt>
      <trkpt lat="49.02446" lon="-0.46779">
        <ele>26.6</ele>
        <time>2017-05-27T09:03:37Z</time>
      </trkpt>
      <trkpt lat="49.02443" lon="-0.46774">
        <ele>29.5</ele>
        <time>2017-05-27T09:03:44Z</time>
      </trkpt>
      <trkpt lat="49.02441" lon="-0.46772">
        <ele>30.5</ele>
        <time>2017-05-27T09:03:51Z</time>
      </trkpt>
      <trkpt lat="49.02436" lon="-0.46769">
        <ele>31.2</ele>
        <time>2017-05-27T09:04:15Z</time>
      </trkpt>
      <trkpt lat="49.02442" lon="-0.46776">
        <ele>28.3</ele>
        <time>2017-05-27T09:04:30Z</time>
      </trkpt>
      <trkpt lat="49.02449" lon="-0.46779">
        <ele>28.6</ele>
        <time>2017-05-27T09:04:37Z</time>
      </trkpt>
      <trkpt lat="49.02452" lon="-0.46781">
        <ele>32.5</ele>
        <time>2017-05-27T09:04:44Z</time>
      </trkpt>
      <trkpt lat="49.02451" lon="-0.46783">
        <ele>32.7</ele>
        <time>2017-05-27T09:06:34Z</time>
      </trkpt>
      <trkpt lat="49.02455" lon="-0.4679">
        <ele>32</ele>
        <time>2017-05-27T09:07:53Z</time>
      </trkpt>
      <trkpt lat="49.02463" lon="-0.46784">
        <ele>28.2</ele>
        <time>2017-05-27T09:09:03Z</time>
      </trkpt>
      <trkpt lat="49.02464" lon="-0.46786">
        <ele>29.3</ele>
        <time>2017-05-27T09:10:11Z</time>
      </trkpt>
      <trkpt lat="49.02467" lon="-0.46787">
        <ele>31.5</ele>
        <time>2017-05-27T09:10:18Z</time>
      </trkpt>
      <trkpt lat="49.0247" lon="-0.46788">
        <ele>34</ele>
        <time>2017-05-27T09:10:25Z</time>
      </trkpt>
      <trkpt lat="49.02474" lon="-0.4679">
        <ele>37.7</ele>
        <time>2017-05-27T09:10:32Z</time>
      </trkpt>
      <trkpt lat="49.02478" lon="-0.46793">
        <ele>38.5</ele>
        <time>2017-05-27T09:10:39Z</time>
      </trkpt>
      <trkpt lat="49.02483" lon="-0.46796">
        <ele>42</ele>
        <time>2017-05-27T09:10:46Z</time>
      </trkpt>
      <trkpt lat="49.02487" lon="-0.46799">
        <ele>44.6</ele>
        <time>2017-05-27T09:10:53Z</time>
      </trkpt>
      <trkpt lat="49.02491" lon="-0.46804">
        <ele>46.8</ele>
        <time>2017-05-27T09:11:00Z</time>
      </trkpt>
      <trkpt lat="49.02497" lon="-0.46808">
        <ele>47.5</ele>
        <time>2017-05-27T09:11:07Z</time>
      </trkpt>
      <trkpt lat="49.02503" lon="-0.46815">
        <ele>48.5</ele>
        <time>2017-05-27T09:11:13Z</time>
      </trkpt>
      <trkpt lat="49.02507" lon="-0.46821">
        <ele>49.1</ele>
        <time>2017-05-27T09:11:20Z</time>
      </trkpt>
      <trkpt lat="49.02511" lon="-0.46826">
        <ele>48.6</ele>
        <time>2017-05-27T09:11:27Z</time>
      </trkpt>
      <trkpt lat="49.02516" lon="-0.46833">
        <ele>48.4</ele>
        <time>2017-05-27T09:11:34Z</time>
      </trkpt>
      <trkpt lat="49.02521" lon="-0.4684">
        <ele>49</ele>
        <time>2017-05-27T09:11:39Z</time>
      </trkpt>
      <trkpt lat="49.02528" lon="-0.46848">
        <ele>50.1</ele>
        <time>2017-05-27T09:11:46Z</time>
      </trkpt>
      <trkpt lat="49.02535" lon="-0.46853">
        <ele>49.8</ele>
        <time>2017-05-27T09:11:53Z</time>
      </trkpt>
      <trkpt lat="49.02541" lon="-0.46858">
        <ele>47.3</ele>
        <time>2017-05-27T09:12:00Z</time>
      </trkpt>
      <trkpt lat="49.02547" lon="-0.46859">
        <ele>47.2</ele>
        <time>2017-05-27T09:12:07Z</time>
      </trkpt>
      <trkpt lat="49.02552" lon="-0.46861">
        <ele>48.5</ele>
        <time>2017-05-27T09:12:14Z</time>
      </trkpt>
      <trkpt lat="49.0256" lon="-0.46862">
        <ele>48.5</ele>
        <time>2017-05-27T09:12:21Z</time>
      </trkpt>
      <trkpt lat="49.02568" lon="-0.46861">
        <ele>46.9</ele>
        <time>2017-05-27T09:12:28Z</time>
      </trkpt>
      <trkpt lat="49.02573" lon="-0.46855">
        <ele>46.3</ele>
        <time>2017-05-27T09:12:35Z</time>
      </trkpt>
      <trkpt lat="49.02579" lon="-0.46853">
        <ele>44.8</ele>
        <time>2017-05-27T09:12:42Z</time>
      </trkpt>
      <trkpt lat="49.02583" lon="-0.46849">
        <ele>45.4</ele>
        <time>2017-05-27T09:12:49Z</time>
      </trkpt>
      <trkpt lat="49.02587" lon="-0.46842">
        <ele>44.2</ele>
        <time>2017-05-27T09:12:56Z</time>
      </trkpt>
      <trkpt lat="49.02592" lon="-0.46834">
        <ele>42.1</ele>
        <time>2017-05-27T09:13:02Z</time>
      </trkpt>
      <trkpt lat="49.02597" lon="-0.46825">
        <ele>40</ele>
        <time>2017-05-27T09:13:08Z</time>
      </trkpt>
      <trkpt lat="49.02603" lon="-0.46816">
        <ele>37.7</ele>
        <time>2017-05-27T09:13:14Z</time>
      </trkpt>
      <trkpt lat="49.02607" lon="-0.46809">
        <ele>36.7</ele>
        <time>2017-05-27T09:13:21Z</time>
      </trkpt>
      <trkpt lat="49.02611" lon="-0.46802">
        <ele>35.3</ele>
        <time>2017-05-27T09:13:28Z</time>
      </trkpt>
      <trkpt lat="49.02616" lon="-0.46793">
        <ele>33.8</ele>
        <time>2017-05-27T09:13:35Z</time>
      </trkpt>
      <trkpt lat="49.02621" lon="-0.46785">
        <ele>32.4</ele>
        <time>2017-05-27T09:13:41Z</time>
      </trkpt>
      <trkpt lat="49.02626" lon="-0.46776">
        <ele>30.5</ele>
        <time>2017-05-27T09:13:48Z</time>
      </trkpt>
      <trkpt lat="49.0263" lon="-0.46773">
        <ele>30.8</ele>
        <time>2017-05-27T09:13:55Z</time>
      </trkpt>
      <trkpt lat="49.02636" lon="-0.46774">
        <ele>30.3</ele>
        <time>2017-05-27T09:14:02Z</time>
      </trkpt>
      <trkpt lat="49.02642" lon="-0.46776">
        <ele>30</ele>
        <time>2017-05-27T09:14:09Z</time>
      </trkpt>
      <trkpt lat="49.02651" lon="-0.46774">
        <ele>29.4</ele>
        <time>2017-05-27T09:14:15Z</time>
      </trkpt>
      <trkpt lat="49.02656" lon="-0.46773">
        <ele>29.3</ele>
        <time>2017-05-27T09:14:22Z</time>
      </trkpt>
      <trkpt lat="49.02661" lon="-0.46773">
        <ele>29.9</ele>
        <time>2017-05-27T09:14:29Z</time>
      </trkpt>
      <trkpt lat="49.02667" lon="-0.46772">
        <ele>30.9</ele>
        <time>2017-05-27T09:14:36Z</time>
      </trkpt>
      <trkpt lat="49.02674" lon="-0.46772">
        <ele>31.8</ele>
        <time>2017-05-27T09:14:42Z</time>
      </trkpt>
      <trkpt lat="49.02682" lon="-0.46772">
        <ele>33.2</ele>
        <time>2017-05-27T09:14:49Z</time>
      </trkpt>
      <trkpt lat="49.02688" lon="-0.46774">
        <ele>32.5</ele>
        <time>2017-05-27T09:14:56Z</time>
      </trkpt>
      <trkpt lat="49.02695" lon="-0.46774">
        <ele>32.5</ele>
        <time>2017-05-27T09:15:03Z</time>
      </trkpt>
      <trkpt lat="49.02702" lon="-0.46774">
        <ele>33.3</ele>
        <time>2017-05-27T09:15:10Z</time>
      </trkpt>
      <trkpt lat="49.02708" lon="-0.46772">
        <ele>35.1</ele>
        <time>2017-05-27T09:15:17Z</time>
      </trkpt>
      <trkpt lat="49.02713" lon="-0.46774">
        <ele>35.8</ele>
        <time>2017-05-27T09:15:24Z</time>
      </trkpt>
      <trkpt lat="49.02721" lon="-0.46774">
        <ele>35.7</ele>
        <time>2017-05-27T09:15:31Z</time>
      </trkpt>
      <trkpt lat="49.02727" lon="-0.46772">
        <ele>35.6</ele>
        <time>2017-05-27T09:15:38Z</time>
      </trkpt>
      <trkpt lat="49.02735" lon="-0.46774">
        <ele>35.1</ele>
        <time>2017-05-27T09:15:44Z</time>
      </trkpt>
      <trkpt lat="49.02742" lon="-0.46776">
        <ele>34.4</ele>
        <time>2017-05-27T09:15:51Z</time>
      </trkpt>
      <trkpt lat="49.02747" lon="-0.46777">
        <ele>31.7</ele>
        <time>2017-05-27T09:15:58Z</time>
      </trkpt>
      <trkpt lat="49.02754" lon="-0.46776">
        <ele>31.3</ele>
        <time>2017-05-27T09:16:05Z</time>
      </trkpt>
      <trkpt lat="49.02761" lon="-0.46777">
        <ele>30.9</ele>
        <time>2017-05-27T09:16:12Z</time>
      </trkpt>
      <trkpt lat="49.02766" lon="-0.46777">
        <ele>30.1</ele>
        <time>2017-05-27T09:16:19Z</time>
      </trkpt>
      <trkpt lat="49.02773" lon="-0.46776">
        <ele>29.3</ele>
        <time>2017-05-27T09:16:25Z</time>
      </trkpt>
      <trkpt lat="49.02781" lon="-0.46774">
        <ele>31.8</ele>
        <time>2017-05-27T09:16:32Z</time>
      </trkpt>
      <trkpt lat="49.02789" lon="-0.46773">
        <ele>31.9</ele>
        <time>2017-05-27T09:16:39Z</time>
      </trkpt>
      <trkpt lat="49.02795" lon="-0.46772">
        <ele>31.2</ele>
        <time>2017-05-27T09:16:46Z</time>
      </trkpt>
      <trkpt lat="49.02803" lon="-0.46771">
        <ele>31.8</ele>
        <time>2017-05-27T09:16:53Z</time>
      </trkpt>
      <trkpt lat="49.02811" lon="-0.46772">
        <ele>33</ele>
        <time>2017-05-27T09:17:00Z</time>
      </trkpt>
      <trkpt lat="49.02817" lon="-0.46771">
        <ele>34.4</ele>
        <time>2017-05-27T09:17:07Z</time>
      </trkpt>
      <trkpt lat="49.02823" lon="-0.46771">
        <ele>34.4</ele>
        <time>2017-05-27T09:17:14Z</time>
      </trkpt>
      <trkpt lat="49.0283" lon="-0.46769">
        <ele>35.1</ele>
        <time>2017-05-27T09:17:21Z</time>
      </trkpt>
      <trkpt lat="49.02837" lon="-0.4677">
        <ele>33.9</ele>
        <time>2017-05-27T09:17:27Z</time>
      </trkpt>
      <trkpt lat="49.02846" lon="-0.46771">
        <ele>33.3</ele>
        <time>2017-05-27T09:17:33Z</time>
      </trkpt>
      <trkpt lat="49.02853" lon="-0.46772">
        <ele>33.7</ele>
        <time>2017-05-27T09:17:39Z</time>
      </trkpt>
      <trkpt lat="49.02861" lon="-0.46773">
        <ele>33.8</ele>
        <time>2017-05-27T09:17:44Z</time>
      </trkpt>
      <trkpt lat="49.02868" lon="-0.46777">
        <ele>31.8</ele>
        <time>2017-05-27T09:17:50Z</time>
      </trkpt>
      <trkpt lat="49.02875" lon="-0.46778">
        <ele>30.7</ele>
        <time>2017-05-27T09:17:56Z</time>
      </trkpt>
      <trkpt lat="49.02883" lon="-0.46779">
        <ele>32.2</ele>
        <time>2017-05-27T09:18:02Z</time>
      </trkpt>
      <trkpt lat="49.02891" lon="-0.46778">
        <ele>33.3</ele>
        <time>2017-05-27T09:18:09Z</time>
      </trkpt>
      <trkpt lat="49.02898" lon="-0.46776">
        <ele>35.5</ele>
        <time>2017-05-27T09:18:16Z</time>
      </trkpt>
      <trkpt lat="49.02906" lon="-0.46777">
        <ele>37.3</ele>
        <time>2017-05-27T09:18:23Z</time>
      </trkpt>
      <trkpt lat="49.02915" lon="-0.46778">
        <ele>37.9</ele>
        <time>2017-05-27T09:18:30Z</time>
      </trkpt>
      <trkpt lat="49.02922" lon="-0.46778">
        <ele>37.6</ele>
        <time>2017-05-27T09:18:36Z</time>
      </trkpt>
      <trkpt lat="49.0293" lon="-0.46778">
        <ele>38</ele>
        <time>2017-05-27T09:18:41Z</time>
      </trkpt>
      <trkpt lat="49.02937" lon="-0.46777">
        <ele>37.9</ele>
        <time>2017-05-27T09:18:47Z</time>
      </trkpt>
      <trkpt lat="49.02946" lon="-0.46777">
        <ele>36.4</ele>
        <time>2017-05-27T09:18:54Z</time>
      </trkpt>
      <trkpt lat="49.02954" lon="-0.46779">
        <ele>37.2</ele>
        <time>2017-05-27T09:19:00Z</time>
      </trkpt>
      <trkpt lat="49.0296" lon="-0.46779">
        <ele>37.5</ele>
        <time>2017-05-27T09:19:07Z</time>
      </trkpt>
      <trkpt lat="49.02967" lon="-0.4678">
        <ele>38.4</ele>
        <time>2017-05-27T09:19:14Z</time>
      </trkpt>
      <trkpt lat="49.02975" lon="-0.46781">
        <ele>38.8</ele>
        <time>2017-05-27T09:19:20Z</time>
      </trkpt>
      <trkpt lat="49.02983" lon="-0.4678">
        <ele>40.3</ele>
        <time>2017-05-27T09:19:26Z</time>
      </trkpt>
      <trkpt lat="49.0299" lon="-0.46777">
        <ele>41.7</ele>
        <time>2017-05-27T09:19:32Z</time>
      </trkpt>
      <trkpt lat="49.02998" lon="-0.46774">
        <ele>39.5</ele>
        <time>2017-05-27T09:19:37Z</time>
      </trkpt>
      <trkpt lat="49.03005" lon="-0.4677">
        <ele>39.7</ele>
        <time>2017-05-27T09:19:43Z</time>
      </trkpt>
      <trkpt lat="49.03014" lon="-0.46766">
        <ele>39.3</ele>
        <time>2017-05-27T09:19:49Z</time>
      </trkpt>
      <trkpt lat="49.03021" lon="-0.46762">
        <ele>38.6</ele>
        <time>2017-05-27T09:19:55Z</time>
      </trkpt>
      <trkpt lat="49.03029" lon="-0.4676">
        <ele>37.8</ele>
        <time>2017-05-27T09:20:01Z</time>
      </trkpt>
      <trkpt lat="49.03036" lon="-0.46756">
        <ele>36.9</ele>
        <time>2017-05-27T09:20:08Z</time>
      </trkpt>
      <trkpt lat="49.03044" lon="-0.46754">
        <ele>35</ele>
        <time>2017-05-27T09:20:13Z</time>
      </trkpt>
      <trkpt lat="49.03051" lon="-0.46751">
        <ele>35.5</ele>
        <time>2017-05-27T09:20:19Z</time>
      </trkpt>
      <trkpt lat="49.03058" lon="-0.46749">
        <ele>37.1</ele>
        <time>2017-05-27T09:20:25Z</time>
      </trkpt>
      <trkpt lat="49.03066" lon="-0.46746">
        <ele>37.5</ele>
        <time>2017-05-27T09:20:31Z</time>
      </trkpt>
      <trkpt lat="49.03073" lon="-0.46743">
        <ele>37.7</ele>
        <time>2017-05-27T09:20:37Z</time>
      </trkpt>
      <trkpt lat="49.03081" lon="-0.46738">
        <ele>38.3</ele>
        <time>2017-05-27T09:20:43Z</time>
      </trkpt>
      <trkpt lat="49.03088" lon="-0.46734">
        <ele>36.2</ele>
        <time>2017-05-27T09:20:50Z</time>
      </trkpt>
      <trkpt lat="49.03095" lon="-0.4673">
        <ele>36.3</ele>
        <time>2017-05-27T09:20:57Z</time>
      </trkpt>
      <trkpt lat="49.03103" lon="-0.46729">
        <ele>35.9</ele>
        <time>2017-05-27T09:21:04Z</time>
      </trkpt>
      <trkpt lat="49.03111" lon="-0.4673">
        <ele>35.2</ele>
        <time>2017-05-27T09:21:11Z</time>
      </trkpt>
      <trkpt lat="49.03119" lon="-0.46734">
        <ele>30.4</ele>
        <time>2017-05-27T09:21:17Z</time>
      </trkpt>
      <trkpt lat="49.03124" lon="-0.46734">
        <ele>26.9</ele>
        <time>2017-05-27T09:21:24Z</time>
      </trkpt>
      <trkpt lat="49.03132" lon="-0.46735">
        <ele>25.4</ele>
        <time>2017-05-27T09:21:33Z</time>
      </trkpt>
      <trkpt lat="49.03139" lon="-0.46737">
        <ele>24</ele>
        <time>2017-05-27T09:21:38Z</time>
      </trkpt>
      <trkpt lat="49.03146" lon="-0.46735">
        <ele>22</ele>
        <time>2017-05-27T09:21:43Z</time>
      </trkpt>
      <trkpt lat="49.03155" lon="-0.46734">
        <ele>21.2</ele>
        <time>2017-05-27T09:21:49Z</time>
      </trkpt>
      <trkpt lat="49.03162" lon="-0.46735">
        <ele>21.2</ele>
        <time>2017-05-27T09:21:55Z</time>
      </trkpt>
      <trkpt lat="49.0317" lon="-0.46735">
        <ele>18.8</ele>
        <time>2017-05-27T09:22:02Z</time>
      </trkpt>
      <trkpt lat="49.03178" lon="-0.46735">
        <ele>17.6</ele>
        <time>2017-05-27T09:22:08Z</time>
      </trkpt>
      <trkpt lat="49.03185" lon="-0.46735">
        <ele>17.5</ele>
        <time>2017-05-27T09:22:15Z</time>
      </trkpt>
      <trkpt lat="49.03194" lon="-0.46736">
        <ele>19</ele>
        <time>2017-05-27T09:22:21Z</time>
      </trkpt>
      <trkpt lat="49.03204" lon="-0.46737">
        <ele>16.8</ele>
        <time>2017-05-27T09:22:29Z</time>
      </trkpt>
      <trkpt lat="49.03212" lon="-0.46739">
        <ele>13.6</ele>
        <time>2017-05-27T09:22:34Z</time>
      </trkpt>
      <trkpt lat="49.03221" lon="-0.46739">
        <ele>12.6</ele>
        <time>2017-05-27T09:22:40Z</time>
      </trkpt>
      <trkpt lat="49.03228" lon="-0.46739">
        <ele>13.9</ele>
        <time>2017-05-27T09:22:46Z</time>
      </trkpt>
      <trkpt lat="49.03237" lon="-0.4674">
        <ele>13.6</ele>
        <time>2017-05-27T09:22:52Z</time>
      </trkpt>
      <trkpt lat="49.03244" lon="-0.46741">
        <ele>12.3</ele>
        <time>2017-05-27T09:22:58Z</time>
      </trkpt>
      <trkpt lat="49.03251" lon="-0.46742">
        <ele>10.9</ele>
        <time>2017-05-27T09:23:05Z</time>
      </trkpt>
      <trkpt lat="49.03259" lon="-0.46746">
        <ele>8.1</ele>
        <time>2017-05-27T09:23:11Z</time>
      </trkpt>
      <trkpt lat="49.03267" lon="-0.46746">
        <ele>9.4</ele>
        <time>2017-05-27T09:23:18Z</time>
      </trkpt>
      <trkpt lat="49.03273" lon="-0.46745">
        <ele>10.9</ele>
        <time>2017-05-27T09:23:25Z</time>
      </trkpt>
      <trkpt lat="49.03281" lon="-0.46742">
        <ele>11</ele>
        <time>2017-05-27T09:23:32Z</time>
      </trkpt>
      <trkpt lat="49.03286" lon="-0.46735">
        <ele>12.6</ele>
        <time>2017-05-27T09:23:38Z</time>
      </trkpt>
      <trkpt lat="49.03292" lon="-0.46728">
        <ele>14.8</ele>
        <time>2017-05-27T09:23:45Z</time>
      </trkpt>
      <trkpt lat="49.03295" lon="-0.46722">
        <ele>16.7</ele>
        <time>2017-05-27T09:23:52Z</time>
      </trkpt>
      <trkpt lat="49.03291" lon="-0.46713">
        <ele>20.2</ele>
        <time>2017-05-27T09:24:51Z</time>
      </trkpt>
      <trkpt lat="49.03291" lon="-0.4671">
        <ele>20.8</ele>
        <time>2017-05-27T09:24:58Z</time>
      </trkpt>
      <trkpt lat="49.03295" lon="-0.46711">
        <ele>19.8</ele>
        <time>2017-05-27T09:25:36Z</time>
      </trkpt>
      <trkpt lat="49.03301" lon="-0.46716">
        <ele>19.5</ele>
        <time>2017-05-27T09:27:29Z</time>
      </trkpt>
      <trkpt lat="49.03307" lon="-0.46724">
        <ele>21.1</ele>
        <time>2017-05-27T09:28:35Z</time>
      </trkpt>
      <trkpt lat="49.03312" lon="-0.46728">
        <ele>22.8</ele>
        <time>2017-05-27T09:28:42Z</time>
      </trkpt>
      <trkpt lat="49.03317" lon="-0.46733">
        <ele>23.1</ele>
        <time>2017-05-27T09:28:49Z</time>
      </trkpt>
      <trkpt lat="49.03323" lon="-0.46734">
        <ele>22.9</ele>
        <time>2017-05-27T09:28:56Z</time>
      </trkpt>
      <trkpt lat="49.03329" lon="-0.46739">
        <ele>21.6</ele>
        <time>2017-05-27T09:29:03Z</time>
      </trkpt>
      <trkpt lat="49.03335" lon="-0.46744">
        <ele>20.5</ele>
        <time>2017-05-27T09:29:10Z</time>
      </trkpt>
      <trkpt lat="49.03336" lon="-0.46743">
        <ele>21.2</ele>
        <time>2017-05-27T09:29:17Z</time>
      </trkpt>
      <trkpt lat="49.03342" lon="-0.46744">
        <ele>23.4</ele>
        <time>2017-05-27T09:29:25Z</time>
      </trkpt>
      <trkpt lat="49.0335" lon="-0.46748">
        <ele>22.4</ele>
        <time>2017-05-27T09:29:32Z</time>
      </trkpt>
      <trkpt lat="49.03358" lon="-0.46753">
        <ele>20.4</ele>
        <time>2017-05-27T09:29:37Z</time>
      </trkpt>
      <trkpt lat="49.03365" lon="-0.46758">
        <ele>19.2</ele>
        <time>2017-05-27T09:29:41Z</time>
      </trkpt>
      <trkpt lat="49.03372" lon="-0.46762">
        <ele>18.8</ele>
        <time>2017-05-27T09:29:45Z</time>
      </trkpt>
      <trkpt lat="49.0338" lon="-0.46767">
        <ele>16.7</ele>
        <time>2017-05-27T09:29:50Z</time>
      </trkpt>
      <trkpt lat="49.03386" lon="-0.46768">
        <ele>16.1</ele>
        <time>2017-05-27T09:29:57Z</time>
      </trkpt>
      <trkpt lat="49.03394" lon="-0.46774">
        <ele>11.9</ele>
        <time>2017-05-27T09:30:03Z</time>
      </trkpt>
      <trkpt lat="49.03401" lon="-0.46777">
        <ele>13.2</ele>
        <time>2017-05-27T09:30:08Z</time>
      </trkpt>
      <trkpt lat="49.03409" lon="-0.46776">
        <ele>14.4</ele>
        <time>2017-05-27T09:30:15Z</time>
      </trkpt>
      <trkpt lat="49.03416" lon="-0.46779">
        <ele>15.5</ele>
        <time>2017-05-27T09:30:21Z</time>
      </trkpt>
      <trkpt lat="49.03424" lon="-0.4678">
        <ele>15</ele>
        <time>2017-05-27T09:30:28Z</time>
      </trkpt>
      <trkpt lat="49.03431" lon="-0.46783">
        <ele>13.9</ele>
        <time>2017-05-27T09:30:33Z</time>
      </trkpt>
      <trkpt lat="49.03439" lon="-0.46784">
        <ele>12.6</ele>
        <time>2017-05-27T09:30:39Z</time>
      </trkpt>
      <trkpt lat="49.03446" lon="-0.46786">
        <ele>10.4</ele>
        <time>2017-05-27T09:30:45Z</time>
      </trkpt>
      <trkpt lat="49.03454" lon="-0.46784">
        <ele>10.5</ele>
        <time>2017-05-27T09:30:51Z</time>
      </trkpt>
      <trkpt lat="49.03461" lon="-0.46784">
        <ele>8.6</ele>
        <time>2017-05-27T09:30:57Z</time>
      </trkpt>
      <trkpt lat="49.03468" lon="-0.46784">
        <ele>9.3</ele>
        <time>2017-05-27T09:31:04Z</time>
      </trkpt>
      <trkpt lat="49.03476" lon="-0.46788">
        <ele>6.2</ele>
        <time>2017-05-27T09:31:11Z</time>
      </trkpt>
      <trkpt lat="49.03483" lon="-0.4679">
        <ele>3.5</ele>
        <time>2017-05-27T09:31:17Z</time>
      </trkpt>
      <trkpt lat="49.03491" lon="-0.46789">
        <ele>4.3</ele>
        <time>2017-05-27T09:31:24Z</time>
      </trkpt>
      <trkpt lat="49.03497" lon="-0.46788">
        <ele>2.7</ele>
        <time>2017-05-27T09:31:31Z</time>
      </trkpt>
      <trkpt lat="49.03505" lon="-0.46786">
        <ele>3.4</ele>
        <time>2017-05-27T09:31:37Z</time>
      </trkpt>
      <trkpt lat="49.03513" lon="-0.46784">
        <ele>4</ele>
        <time>2017-05-27T09:31:43Z</time>
      </trkpt>
      <trkpt lat="49.0352" lon="-0.46784">
        <ele>3</ele>
        <time>2017-05-27T09:31:49Z</time>
      </trkpt>
      <trkpt lat="49.03528" lon="-0.46783">
        <ele>2.7</ele>
        <time>2017-05-27T09:31:55Z</time>
      </trkpt>
      <trkpt lat="49.03536" lon="-0.46783">
        <ele>4</ele>
        <time>2017-05-27T09:32:01Z</time>
      </trkpt>
      <trkpt lat="49.03543" lon="-0.46779">
        <ele>8</ele>
        <time>2017-05-27T09:32:08Z</time>
      </trkpt>
      <trkpt lat="49.03551" lon="-0.46779">
        <ele>7.5</ele>
        <time>2017-05-27T09:32:15Z</time>
      </trkpt>
      <trkpt lat="49.03559" lon="-0.46778">
        <ele>7.8</ele>
        <time>2017-05-27T09:32:21Z</time>
      </trkpt>
      <trkpt lat="49.03566" lon="-0.46774">
        <ele>7.9</ele>
        <time>2017-05-27T09:32:27Z</time>
      </trkpt>
      <trkpt lat="49.03573" lon="-0.46776">
        <ele>7</ele>
        <time>2017-05-27T09:32:32Z</time>
      </trkpt>
      <trkpt lat="49.03582" lon="-0.46774">
        <ele>8.1</ele>
        <time>2017-05-27T09:32:38Z</time>
      </trkpt>
      <trkpt lat="49.03589" lon="-0.46772">
        <ele>7.9</ele>
        <time>2017-05-27T09:32:44Z</time>
      </trkpt>
      <trkpt lat="49.03596" lon="-0.46771">
        <ele>4.5</ele>
        <time>2017-05-27T09:32:50Z</time>
      </trkpt>
      <trkpt lat="49.03604" lon="-0.46768">
        <ele>6.3</ele>
        <time>2017-05-27T09:32:56Z</time>
      </trkpt>
      <trkpt lat="49.03611" lon="-0.46763">
        <ele>7.4</ele>
        <time>2017-05-27T09:33:02Z</time>
      </trkpt>
      <trkpt lat="49.03619" lon="-0.46762">
        <ele>6.5</ele>
        <time>2017-05-27T09:33:07Z</time>
      </trkpt>
      <trkpt lat="49.03626" lon="-0.46756">
        <ele>6</ele>
        <time>2017-05-27T09:33:13Z</time>
      </trkpt>
      <trkpt lat="49.03633" lon="-0.46754">
        <ele>4.5</ele>
        <time>2017-05-27T09:33:20Z</time>
      </trkpt>
      <trkpt lat="49.0364" lon="-0.46753">
        <ele>5.1</ele>
        <time>2017-05-27T09:33:26Z</time>
      </trkpt>
      <trkpt lat="49.03647" lon="-0.46746">
        <ele>8.1</ele>
        <time>2017-05-27T09:33:33Z</time>
      </trkpt>
      <trkpt lat="49.03655" lon="-0.46741">
        <ele>7</ele>
        <time>2017-05-27T09:33:39Z</time>
      </trkpt>
      <trkpt lat="49.03663" lon="-0.46738">
        <ele>7.7</ele>
        <time>2017-05-27T09:33:45Z</time>
      </trkpt>
      <trkpt lat="49.0367" lon="-0.46734">
        <ele>7.3</ele>
        <time>2017-05-27T09:33:50Z</time>
      </trkpt>
      <trkpt lat="49.03676" lon="-0.46727">
        <ele>7.7</ele>
        <time>2017-05-27T09:33:56Z</time>
      </trkpt>
      <trkpt lat="49.03684" lon="-0.46724">
        <ele>5.7</ele>
        <time>2017-05-27T09:34:02Z</time>
      </trkpt>
      <trkpt lat="49.0369" lon="-0.46715">
        <ele>7.2</ele>
        <time>2017-05-27T09:34:08Z</time>
      </trkpt>
      <trkpt lat="49.03696" lon="-0.46711">
        <ele>6.6</ele>
        <time>2017-05-27T09:34:14Z</time>
      </trkpt>
      <trkpt lat="49.03703" lon="-0.46706">
        <ele>8</ele>
        <time>2017-05-27T09:34:20Z</time>
      </trkpt>
      <trkpt lat="49.0371" lon="-0.46702">
        <ele>9.2</ele>
        <time>2017-05-27T09:34:27Z</time>
      </trkpt>
      <trkpt lat="49.03717" lon="-0.46698">
        <ele>8.1</ele>
        <time>2017-05-27T09:34:33Z</time>
      </trkpt>
      <trkpt lat="49.03725" lon="-0.46697">
        <ele>8.9</ele>
        <time>2017-05-27T09:34:39Z</time>
      </trkpt>
      <trkpt lat="49.03734" lon="-0.46697">
        <ele>7.8</ele>
        <time>2017-05-27T09:34:45Z</time>
      </trkpt>
      <trkpt lat="49.03741" lon="-0.46694">
        <ele>9.3</ele>
        <time>2017-05-27T09:34:52Z</time>
      </trkpt>
      <trkpt lat="49.03748" lon="-0.46688">
        <ele>10.1</ele>
        <time>2017-05-27T09:34:59Z</time>
      </trkpt>
      <trkpt lat="49.0375" lon="-0.46686">
        <ele>12.8</ele>
        <time>2017-05-27T09:35:06Z</time>
      </trkpt>
      <trkpt lat="49.03757" lon="-0.46686">
        <ele>12</ele>
        <time>2017-05-27T09:35:22Z</time>
      </trkpt>
      <trkpt lat="49.03763" lon="-0.46694">
        <ele>13.2</ele>
        <time>2017-05-27T09:35:46Z</time>
      </trkpt>
      <trkpt lat="49.03763" lon="-0.46701">
        <ele>15</ele>
        <time>2017-05-27T09:35:53Z</time>
      </trkpt>
      <trkpt lat="49.03763" lon="-0.46709">
        <ele>16.7</ele>
        <time>2017-05-27T09:36:00Z</time>
      </trkpt>
      <trkpt lat="49.03762" lon="-0.46715">
        <ele>21.9</ele>
        <time>2017-05-27T09:36:07Z</time>
      </trkpt>
      <trkpt lat="49.03762" lon="-0.46723">
        <ele>25.2</ele>
        <time>2017-05-27T09:36:14Z</time>
      </trkpt>
      <trkpt lat="49.03764" lon="-0.46734">
        <ele>28.3</ele>
        <time>2017-05-27T09:36:20Z</time>
      </trkpt>
      <trkpt lat="49.03765" lon="-0.46745">
        <ele>30.8</ele>
        <time>2017-05-27T09:36:27Z</time>
      </trkpt>
      <trkpt lat="49.03765" lon="-0.46758">
        <ele>31.3</ele>
        <time>2017-05-27T09:36:34Z</time>
      </trkpt>
      <trkpt lat="49.03766" lon="-0.4677">
        <ele>33.7</ele>
        <time>2017-05-27T09:36:40Z</time>
      </trkpt>
      <trkpt lat="49.03767" lon="-0.46781">
        <ele>37</ele>
        <time>2017-05-27T09:36:46Z</time>
      </trkpt>
      <trkpt lat="49.03768" lon="-0.46794">
        <ele>38.8</ele>
        <time>2017-05-27T09:36:51Z</time>
      </trkpt>
      <trkpt lat="49.0377" lon="-0.46807">
        <ele>40</ele>
        <time>2017-05-27T09:36:56Z</time>
      </trkpt>
      <trkpt lat="49.03771" lon="-0.46819">
        <ele>41.2</ele>
        <time>2017-05-27T09:37:01Z</time>
      </trkpt>
      <trkpt lat="49.03772" lon="-0.46832">
        <ele>40</ele>
        <time>2017-05-27T09:37:07Z</time>
      </trkpt>
      <trkpt lat="49.03775" lon="-0.46844">
        <ele>39.8</ele>
        <time>2017-05-27T09:37:13Z</time>
      </trkpt>
      <trkpt lat="49.03775" lon="-0.46855">
        <ele>42.9</ele>
        <time>2017-05-27T09:37:18Z</time>
      </trkpt>
      <trkpt lat="49.03776" lon="-0.46868">
        <ele>43.1</ele>
        <time>2017-05-27T09:37:24Z</time>
      </trkpt>
      <trkpt lat="49.03777" lon="-0.4688">
        <ele>44.4</ele>
        <time>2017-05-27T09:37:30Z</time>
      </trkpt>
      <trkpt lat="49.03778" lon="-0.46892">
        <ele>46</ele>
        <time>2017-05-27T09:37:36Z</time>
      </trkpt>
      <trkpt lat="49.03779" lon="-0.46905">
        <ele>48.4</ele>
        <time>2017-05-27T09:37:41Z</time>
      </trkpt>
      <trkpt lat="49.03779" lon="-0.46916">
        <ele>51</ele>
        <time>2017-05-27T09:37:47Z</time>
      </trkpt>
      <trkpt lat="49.03781" lon="-0.46929">
        <ele>53.5</ele>
        <time>2017-05-27T09:37:54Z</time>
      </trkpt>
      <trkpt lat="49.03782" lon="-0.46941">
        <ele>55.4</ele>
        <time>2017-05-27T09:38:01Z</time>
      </trkpt>
      <trkpt lat="49.03783" lon="-0.46954">
        <ele>56.6</ele>
        <time>2017-05-27T09:38:08Z</time>
      </trkpt>
      <trkpt lat="49.03786" lon="-0.46964">
        <ele>57.8</ele>
        <time>2017-05-27T09:38:13Z</time>
      </trkpt>
      <trkpt lat="49.03789" lon="-0.46974">
        <ele>59.1</ele>
        <time>2017-05-27T09:38:19Z</time>
      </trkpt>
      <trkpt lat="49.03788" lon="-0.46984">
        <ele>60.2</ele>
        <time>2017-05-27T09:38:26Z</time>
      </trkpt>
      <trkpt lat="49.03788" lon="-0.46995">
        <ele>61.7</ele>
        <time>2017-05-27T09:38:31Z</time>
      </trkpt>
      <trkpt lat="49.0379" lon="-0.47006">
        <ele>61</ele>
        <time>2017-05-27T09:38:37Z</time>
      </trkpt>
      <trkpt lat="49.03789" lon="-0.47017">
        <ele>59.3</ele>
        <time>2017-05-27T09:38:44Z</time>
      </trkpt>
      <trkpt lat="49.03789" lon="-0.47028">
        <ele>61.6</ele>
        <time>2017-05-27T09:38:51Z</time>
      </trkpt>
      <trkpt lat="49.03792" lon="-0.47037">
        <ele>62.1</ele>
        <time>2017-05-27T09:38:58Z</time>
      </trkpt>
      <trkpt lat="49.03793" lon="-0.47046">
        <ele>60</ele>
        <time>2017-05-27T09:39:05Z</time>
      </trkpt>
      <trkpt lat="49.03797" lon="-0.47056">
        <ele>59.2</ele>
        <time>2017-05-27T09:39:12Z</time>
      </trkpt>
      <trkpt lat="49.03799" lon="-0.47067">
        <ele>59.4</ele>
        <time>2017-05-27T09:39:19Z</time>
      </trkpt>
      <trkpt lat="49.03801" lon="-0.47077">
        <ele>61</ele>
        <time>2017-05-27T09:39:26Z</time>
      </trkpt>
      <trkpt lat="49.03807" lon="-0.47085">
        <ele>62.3</ele>
        <time>2017-05-27T09:39:33Z</time>
      </trkpt>
      <trkpt lat="49.03811" lon="-0.47093">
        <ele>63.8</ele>
        <time>2017-05-27T09:39:40Z</time>
      </trkpt>
      <trkpt lat="49.03815" lon="-0.471">
        <ele>65.3</ele>
        <time>2017-05-27T09:39:47Z</time>
      </trkpt>
      <trkpt lat="49.03822" lon="-0.47106">
        <ele>65.7</ele>
        <time>2017-05-27T09:39:51Z</time>
      </trkpt>
      <trkpt lat="49.03828" lon="-0.47112">
        <ele>65.3</ele>
        <time>2017-05-27T09:39:56Z</time>
      </trkpt>
      <trkpt lat="49.03835" lon="-0.47121">
        <ele>63.4</ele>
        <time>2017-05-27T09:40:01Z</time>
      </trkpt>
      <trkpt lat="49.03842" lon="-0.47128">
        <ele>61.7</ele>
        <time>2017-05-27T09:40:05Z</time>
      </trkpt>
      <trkpt lat="49.03846" lon="-0.47136">
        <ele>63.1</ele>
        <time>2017-05-27T09:40:12Z</time>
      </trkpt>
      <trkpt lat="49.03848" lon="-0.47147">
        <ele>66</ele>
        <time>2017-05-27T09:40:19Z</time>
      </trkpt>
      <trkpt lat="49.03851" lon="-0.47157">
        <ele>72.5</ele>
        <time>2017-05-27T09:40:26Z</time>
      </trkpt>
      <trkpt lat="49.03855" lon="-0.47168">
        <ele>76.6</ele>
        <time>2017-05-27T09:40:31Z</time>
      </trkpt>
      <trkpt lat="49.0386" lon="-0.47179">
        <ele>77.7</ele>
        <time>2017-05-27T09:40:36Z</time>
      </trkpt>
      <trkpt lat="49.03864" lon="-0.4719">
        <ele>78.5</ele>
        <time>2017-05-27T09:40:41Z</time>
      </trkpt>
      <trkpt lat="49.03867" lon="-0.472">
        <ele>78.3</ele>
        <time>2017-05-27T09:40:46Z</time>
      </trkpt>
      <trkpt lat="49.03871" lon="-0.47213">
        <ele>74.9</ele>
        <time>2017-05-27T09:40:50Z</time>
      </trkpt>
      <trkpt lat="49.03874" lon="-0.47223">
        <ele>71.9</ele>
        <time>2017-05-27T09:40:53Z</time>
      </trkpt>
      <trkpt lat="49.03878" lon="-0.47234">
        <ele>71.2</ele>
        <time>2017-05-27T09:40:58Z</time>
      </trkpt>
      <trkpt lat="49.03881" lon="-0.47244">
        <ele>69.6</ele>
        <time>2017-05-27T09:41:02Z</time>
      </trkpt>
      <trkpt lat="49.03884" lon="-0.47257">
        <ele>69.2</ele>
        <time>2017-05-27T09:41:06Z</time>
      </trkpt>
      <trkpt lat="49.03887" lon="-0.47268">
        <ele>69.5</ele>
        <time>2017-05-27T09:41:11Z</time>
      </trkpt>
      <trkpt lat="49.03889" lon="-0.47279">
        <ele>70.4</ele>
        <time>2017-05-27T09:41:16Z</time>
      </trkpt>
      <trkpt lat="49.03893" lon="-0.47289">
        <ele>72.4</ele>
        <time>2017-05-27T09:41:21Z</time>
      </trkpt>
      <trkpt lat="49.03897" lon="-0.47299">
        <ele>75.4</ele>
        <time>2017-05-27T09:41:27Z</time>
      </trkpt>
      <trkpt lat="49.039" lon="-0.47309">
        <ele>75.6</ele>
        <time>2017-05-27T09:41:34Z</time>
      </trkpt>
      <trkpt lat="49.03903" lon="-0.47321">
        <ele>76.9</ele>
        <time>2017-05-27T09:41:41Z</time>
      </trkpt>
      <trkpt lat="49.03906" lon="-0.47331">
        <ele>73.8</ele>
        <time>2017-05-27T09:41:47Z</time>
      </trkpt>
      <trkpt lat="49.03908" lon="-0.4734">
        <ele>71.7</ele>
        <time>2017-05-27T09:41:54Z</time>
      </trkpt>
      <trkpt lat="49.03909" lon="-0.47348">
        <ele>72.9</ele>
        <time>2017-05-27T09:42:01Z</time>
      </trkpt>
      <trkpt lat="49.03912" lon="-0.47353">
        <ele>74.9</ele>
        <time>2017-05-27T09:42:08Z</time>
      </trkpt>
      <trkpt lat="49.03916" lon="-0.47358">
        <ele>76.9</ele>
        <time>2017-05-27T09:42:15Z</time>
      </trkpt>
      <trkpt lat="49.0392" lon="-0.47361">
        <ele>79.6</ele>
        <time>2017-05-27T09:42:22Z</time>
      </trkpt>
      <trkpt lat="49.03924" lon="-0.47362">
        <ele>80.5</ele>
        <time>2017-05-27T09:42:29Z</time>
      </trkpt>
      <trkpt lat="49.03927" lon="-0.47361">
        <ele>83.5</ele>
        <time>2017-05-27T09:42:36Z</time>
      </trkpt>
      <trkpt lat="49.03929" lon="-0.47363">
        <ele>83.1</ele>
        <time>2017-05-27T09:42:43Z</time>
      </trkpt>
      <trkpt lat="49.03936" lon="-0.47362">
        <ele>82.8</ele>
        <time>2017-05-27T09:42:50Z</time>
      </trkpt>
      <trkpt lat="49.0394" lon="-0.47368">
        <ele>82.4</ele>
        <time>2017-05-27T09:42:57Z</time>
      </trkpt>
      <trkpt lat="49.03954" lon="-0.47373">
        <ele>85.9</ele>
        <time>2017-05-27T09:49:09Z</time>
      </trkpt>
      <trkpt lat="49.03962" lon="-0.47372">
        <ele>87.7</ele>
        <time>2017-05-27T09:49:24Z</time>
      </trkpt>
      <trkpt lat="49.03969" lon="-0.47373">
        <ele>88.5</ele>
        <time>2017-05-27T09:49:31Z</time>
      </trkpt>
      <trkpt lat="49.03974" lon="-0.47373">
        <ele>88.9</ele>
        <time>2017-05-27T09:49:38Z</time>
      </trkpt>
      <trkpt lat="49.03981" lon="-0.47373">
        <ele>87.8</ele>
        <time>2017-05-27T09:49:45Z</time>
      </trkpt>
      <trkpt lat="49.03989" lon="-0.47376">
        <ele>87.3</ele>
        <time>2017-05-27T09:49:52Z</time>
      </trkpt>
      <trkpt lat="49.03995" lon="-0.47377">
        <ele>87.1</ele>
        <time>2017-05-27T09:49:59Z</time>
      </trkpt>
      <trkpt lat="49.04001" lon="-0.47378">
        <ele>87.8</ele>
        <time>2017-05-27T09:50:06Z</time>
      </trkpt>
      <trkpt lat="49.04008" lon="-0.47382">
        <ele>89</ele>
        <time>2017-05-27T09:50:13Z</time>
      </trkpt>
      <trkpt lat="49.04014" lon="-0.47385">
        <ele>90.1</ele>
        <time>2017-05-27T09:50:20Z</time>
      </trkpt>
      <trkpt lat="49.04022" lon="-0.47386">
        <ele>91.1</ele>
        <time>2017-05-27T09:50:27Z</time>
      </trkpt>
      <trkpt lat="49.04029" lon="-0.47389">
        <ele>91.9</ele>
        <time>2017-05-27T09:50:33Z</time>
      </trkpt>
      <trkpt lat="49.04037" lon="-0.47389">
        <ele>92.7</ele>
        <time>2017-05-27T09:50:40Z</time>
      </trkpt>
      <trkpt lat="49.04045" lon="-0.47389">
        <ele>92.9</ele>
        <time>2017-05-27T09:50:47Z</time>
      </trkpt>
      <trkpt lat="49.04054" lon="-0.4739">
        <ele>94</ele>
        <time>2017-05-27T09:50:53Z</time>
      </trkpt>
      <trkpt lat="49.04061" lon="-0.47391">
        <ele>94.8</ele>
        <time>2017-05-27T09:50:59Z</time>
      </trkpt>
      <trkpt lat="49.04069" lon="-0.47392">
        <ele>95.2</ele>
        <time>2017-05-27T09:51:04Z</time>
      </trkpt>
      <trkpt lat="49.04077" lon="-0.47392">
        <ele>95.4</ele>
        <time>2017-05-27T09:51:10Z</time>
      </trkpt>
      <trkpt lat="49.04084" lon="-0.47391">
        <ele>95.4</ele>
        <time>2017-05-27T09:51:16Z</time>
      </trkpt>
      <trkpt lat="49.04092" lon="-0.47393">
        <ele>94.7</ele>
        <time>2017-05-27T09:51:22Z</time>
      </trkpt>
      <trkpt lat="49.041" lon="-0.47395">
        <ele>94.3</ele>
        <time>2017-05-27T09:51:28Z</time>
      </trkpt>
      <trkpt lat="49.04104" lon="-0.47396">
        <ele>93.5</ele>
        <time>2017-05-27T09:51:35Z</time>
      </trkpt>
      <trkpt lat="49.04111" lon="-0.474">
        <ele>92.7</ele>
        <time>2017-05-27T09:51:42Z</time>
      </trkpt>
      <trkpt lat="49.04119" lon="-0.47401">
        <ele>91.7</ele>
        <time>2017-05-27T09:51:48Z</time>
      </trkpt>
      <trkpt lat="49.04127" lon="-0.47403">
        <ele>93.4</ele>
        <time>2017-05-27T09:51:54Z</time>
      </trkpt>
      <trkpt lat="49.04135" lon="-0.47404">
        <ele>93.8</ele>
        <time>2017-05-27T09:52:00Z</time>
      </trkpt>
      <trkpt lat="49.04143" lon="-0.47405">
        <ele>95.1</ele>
        <time>2017-05-27T09:52:06Z</time>
      </trkpt>
      <trkpt lat="49.04151" lon="-0.47406">
        <ele>96.8</ele>
        <time>2017-05-27T09:52:11Z</time>
      </trkpt>
      <trkpt lat="49.04156" lon="-0.47409">
        <ele>96.5</ele>
        <time>2017-05-27T09:52:18Z</time>
      </trkpt>
      <trkpt lat="49.04164" lon="-0.47409">
        <ele>97.7</ele>
        <time>2017-05-27T09:52:25Z</time>
      </trkpt>
      <trkpt lat="49.04172" lon="-0.4741">
        <ele>99.6</ele>
        <time>2017-05-27T09:52:31Z</time>
      </trkpt>
      <trkpt lat="49.04179" lon="-0.47412">
        <ele>101.9</ele>
        <time>2017-05-27T09:52:36Z</time>
      </trkpt>
      <trkpt lat="49.04187" lon="-0.47413">
        <ele>103</ele>
        <time>2017-05-27T09:52:42Z</time>
      </trkpt>
      <trkpt lat="49.04195" lon="-0.47414">
        <ele>104.6</ele>
        <time>2017-05-27T09:52:48Z</time>
      </trkpt>
      <trkpt lat="49.04204" lon="-0.47417">
        <ele>105.5</ele>
        <time>2017-05-27T09:52:54Z</time>
      </trkpt>
      <trkpt lat="49.04211" lon="-0.47419">
        <ele>107.2</ele>
        <time>2017-05-27T09:52:59Z</time>
      </trkpt>
      <trkpt lat="49.0422" lon="-0.4742">
        <ele>107.6</ele>
        <time>2017-05-27T09:53:06Z</time>
      </trkpt>
      <trkpt lat="49.04228" lon="-0.47422">
        <ele>107.5</ele>
        <time>2017-05-27T09:53:11Z</time>
      </trkpt>
      <trkpt lat="49.04236" lon="-0.47422">
        <ele>108.6</ele>
        <time>2017-05-27T09:53:16Z</time>
      </trkpt>
      <trkpt lat="49.04242" lon="-0.47422">
        <ele>108.5</ele>
        <time>2017-05-27T09:53:22Z</time>
      </trkpt>
      <trkpt lat="49.04251" lon="-0.47424">
        <ele>108.2</ele>
        <time>2017-05-27T09:53:28Z</time>
      </trkpt>
      <trkpt lat="49.04258" lon="-0.47423">
        <ele>107.4</ele>
        <time>2017-05-27T09:53:35Z</time>
      </trkpt>
      <trkpt lat="49.04261" lon="-0.47419">
        <ele>108</ele>
        <time>2017-05-27T09:53:42Z</time>
      </trkpt>
      <trkpt lat="49.04268" lon="-0.47426">
        <ele>106.6</ele>
        <time>2017-05-27T09:54:21Z</time>
      </trkpt>
      <trkpt lat="49.04276" lon="-0.47427">
        <ele>105.8</ele>
        <time>2017-05-27T09:54:27Z</time>
      </trkpt>
      <trkpt lat="49.04284" lon="-0.47429">
        <ele>106.4</ele>
        <time>2017-05-27T09:54:33Z</time>
      </trkpt>
      <trkpt lat="49.04291" lon="-0.47431">
        <ele>107.1</ele>
        <time>2017-05-27T09:54:38Z</time>
      </trkpt>
      <trkpt lat="49.04299" lon="-0.47432">
        <ele>107.4</ele>
        <time>2017-05-27T09:54:44Z</time>
      </trkpt>
      <trkpt lat="49.04306" lon="-0.47433">
        <ele>108.7</ele>
        <time>2017-05-27T09:54:50Z</time>
      </trkpt>
      <trkpt lat="49.04306" lon="-0.47433">
        <ele>109.3</ele>
        <time>2017-05-27T09:54:57Z</time>
      </trkpt>
      <trkpt lat="49.04312" lon="-0.47438">
        <ele>110.7</ele>
        <time>2017-05-27T09:55:07Z</time>
      </trkpt>
      <trkpt lat="49.04316" lon="-0.47447">
        <ele>111.3</ele>
        <time>2017-05-27T09:55:14Z</time>
      </trkpt>
      <trkpt lat="49.04317" lon="-0.4746">
        <ele>110.9</ele>
        <time>2017-05-27T09:55:21Z</time>
      </trkpt>
      <trkpt lat="49.04318" lon="-0.47472">
        <ele>110.1</ele>
        <time>2017-05-27T09:55:27Z</time>
      </trkpt>
      <trkpt lat="49.0432" lon="-0.47483">
        <ele>110.1</ele>
        <time>2017-05-27T09:55:32Z</time>
      </trkpt>
      <trkpt lat="49.04318" lon="-0.47489">
        <ele>109</ele>
        <time>2017-05-27T09:55:39Z</time>
      </trkpt>
      <trkpt lat="49.0432" lon="-0.47501">
        <ele>109.9</ele>
        <time>2017-05-27T09:56:03Z</time>
      </trkpt>
      <trkpt lat="49.04322" lon="-0.47512">
        <ele>109.5</ele>
        <time>2017-05-27T09:56:09Z</time>
      </trkpt>
      <trkpt lat="49.04323" lon="-0.47525">
        <ele>110.1</ele>
        <time>2017-05-27T09:56:15Z</time>
      </trkpt>
      <trkpt lat="49.04323" lon="-0.47537">
        <ele>109.5</ele>
        <time>2017-05-27T09:56:21Z</time>
      </trkpt>
      <trkpt lat="49.04323" lon="-0.47548">
        <ele>108.7</ele>
        <time>2017-05-27T09:56:26Z</time>
      </trkpt>
      <trkpt lat="49.04322" lon="-0.47561">
        <ele>106.7</ele>
        <time>2017-05-27T09:56:32Z</time>
      </trkpt>
      <trkpt lat="49.04322" lon="-0.47573">
        <ele>105.5</ele>
        <time>2017-05-27T09:56:38Z</time>
      </trkpt>
      <trkpt lat="49.04323" lon="-0.47586">
        <ele>104.1</ele>
        <time>2017-05-27T09:56:45Z</time>
      </trkpt>
      <trkpt lat="49.04324" lon="-0.47597">
        <ele>101.9</ele>
        <time>2017-05-27T09:56:52Z</time>
      </trkpt>
      <trkpt lat="49.04327" lon="-0.4761">
        <ele>103.7</ele>
        <time>2017-05-27T09:56:59Z</time>
      </trkpt>
      <trkpt lat="49.04328" lon="-0.47622">
        <ele>103.7</ele>
        <time>2017-05-27T09:57:05Z</time>
      </trkpt>
      <trkpt lat="49.0433" lon="-0.47633">
        <ele>104.4</ele>
        <time>2017-05-27T09:57:10Z</time>
      </trkpt>
      <trkpt lat="49.04332" lon="-0.47645">
        <ele>104.2</ele>
        <time>2017-05-27T09:57:15Z</time>
      </trkpt>
      <trkpt lat="49.04335" lon="-0.47655">
        <ele>104</ele>
        <time>2017-05-27T09:57:21Z</time>
      </trkpt>
      <trkpt lat="49.04336" lon="-0.47667">
        <ele>106.1</ele>
        <time>2017-05-27T09:57:27Z</time>
      </trkpt>
      <trkpt lat="49.04338" lon="-0.47679">
        <ele>108.9</ele>
        <time>2017-05-27T09:57:33Z</time>
      </trkpt>
      <trkpt lat="49.04341" lon="-0.47691">
        <ele>110.3</ele>
        <time>2017-05-27T09:57:39Z</time>
      </trkpt>
      <trkpt lat="49.04343" lon="-0.47701">
        <ele>112.3</ele>
        <time>2017-05-27T09:57:46Z</time>
      </trkpt>
      <trkpt lat="49.04346" lon="-0.4771">
        <ele>112.6</ele>
        <time>2017-05-27T09:57:53Z</time>
      </trkpt>
      <trkpt lat="49.0435" lon="-0.47719">
        <ele>111.4</ele>
        <time>2017-05-27T09:58:00Z</time>
      </trkpt>
      <trkpt lat="49.04353" lon="-0.47727">
        <ele>111.4</ele>
        <time>2017-05-27T09:58:07Z</time>
      </trkpt>
      <trkpt lat="49.04358" lon="-0.47738">
        <ele>112.2</ele>
        <time>2017-05-27T09:58:14Z</time>
      </trkpt>
      <trkpt lat="49.04363" lon="-0.47747">
        <ele>113.8</ele>
        <time>2017-05-27T09:58:21Z</time>
      </trkpt>
      <trkpt lat="49.04367" lon="-0.47757">
        <ele>114.6</ele>
        <time>2017-05-27T09:58:28Z</time>
      </trkpt>
      <trkpt lat="49.0437" lon="-0.47766">
        <ele>112.7</ele>
        <time>2017-05-27T09:58:35Z</time>
      </trkpt>
      <trkpt lat="49.04373" lon="-0.47777">
        <ele>111.2</ele>
        <time>2017-05-27T09:58:41Z</time>
      </trkpt>
      <trkpt lat="49.04376" lon="-0.47789">
        <ele>111.8</ele>
        <time>2017-05-27T09:58:48Z</time>
      </trkpt>
      <trkpt lat="49.0438" lon="-0.47799">
        <ele>110.5</ele>
        <time>2017-05-27T09:58:55Z</time>
      </trkpt>
      <trkpt lat="49.04383" lon="-0.4781">
        <ele>112.4</ele>
        <time>2017-05-27T09:59:02Z</time>
      </trkpt>
      <trkpt lat="49.04387" lon="-0.4782">
        <ele>113.6</ele>
        <time>2017-05-27T09:59:09Z</time>
      </trkpt>
      <trkpt lat="49.0439" lon="-0.4783">
        <ele>115.6</ele>
        <time>2017-05-27T09:59:15Z</time>
      </trkpt>
      <trkpt lat="49.04393" lon="-0.47842">
        <ele>115.3</ele>
        <time>2017-05-27T09:59:21Z</time>
      </trkpt>
      <trkpt lat="49.04396" lon="-0.47852">
        <ele>114.4</ele>
        <time>2017-05-27T09:59:27Z</time>
      </trkpt>
      <trkpt lat="49.04398" lon="-0.47863">
        <ele>114.7</ele>
        <time>2017-05-27T09:59:33Z</time>
      </trkpt>
      <trkpt lat="49.044" lon="-0.47875">
        <ele>114.5</ele>
        <time>2017-05-27T09:59:40Z</time>
      </trkpt>
      <trkpt lat="49.04402" lon="-0.47884">
        <ele>115.6</ele>
        <time>2017-05-27T09:59:47Z</time>
      </trkpt>
      <trkpt lat="49.04405" lon="-0.47896">
        <ele>115.5</ele>
        <time>2017-05-27T09:59:54Z</time>
      </trkpt>
      <trkpt lat="49.04408" lon="-0.47906">
        <ele>114.7</ele>
        <time>2017-05-27T09:59:59Z</time>
      </trkpt>
      <trkpt lat="49.04409" lon="-0.47918">
        <ele>116</ele>
        <time>2017-05-27T10:00:06Z</time>
      </trkpt>
      <trkpt lat="49.04412" lon="-0.47928">
        <ele>116.6</ele>
        <time>2017-05-27T10:00:11Z</time>
      </trkpt>
      <trkpt lat="49.04415" lon="-0.47938">
        <ele>117.4</ele>
        <time>2017-05-27T10:00:16Z</time>
      </trkpt>
      <trkpt lat="49.04419" lon="-0.4795">
        <ele>117.3</ele>
        <time>2017-05-27T10:00:22Z</time>
      </trkpt>
      <trkpt lat="49.04422" lon="-0.4796">
        <ele>116.8</ele>
        <time>2017-05-27T10:00:28Z</time>
      </trkpt>
      <trkpt lat="49.04425" lon="-0.47971">
        <ele>118.1</ele>
        <time>2017-05-27T10:00:34Z</time>
      </trkpt>
      <trkpt lat="49.04429" lon="-0.47982">
        <ele>119.9</ele>
        <time>2017-05-27T10:00:41Z</time>
      </trkpt>
      <trkpt lat="49.04433" lon="-0.47992">
        <ele>122.6</ele>
        <time>2017-05-27T10:00:48Z</time>
      </trkpt>
      <trkpt lat="49.04437" lon="-0.48004">
        <ele>123.5</ele>
        <time>2017-05-27T10:00:54Z</time>
      </trkpt>
      <trkpt lat="49.04442" lon="-0.48013">
        <ele>126.1</ele>
        <time>2017-05-27T10:01:01Z</time>
      </trkpt>
      <trkpt lat="49.04448" lon="-0.48014">
        <ele>125.1</ele>
        <time>2017-05-27T10:01:08Z</time>
      </trkpt>
      <trkpt lat="49.04453" lon="-0.48009">
        <ele>125</ele>
        <time>2017-05-27T10:01:15Z</time>
      </trkpt>
      <trkpt lat="49.04459" lon="-0.48">
        <ele>126</ele>
        <time>2017-05-27T10:01:22Z</time>
      </trkpt>
      <trkpt lat="49.04464" lon="-0.47993">
        <ele>126.8</ele>
        <time>2017-05-27T10:01:29Z</time>
      </trkpt>
      <trkpt lat="49.04471" lon="-0.47987">
        <ele>126.7</ele>
        <time>2017-05-27T10:01:36Z</time>
      </trkpt>
      <trkpt lat="49.04477" lon="-0.47982">
        <ele>127</ele>
        <time>2017-05-27T10:01:43Z</time>
      </trkpt>
      <trkpt lat="49.04482" lon="-0.47978">
        <ele>127.6</ele>
        <time>2017-05-27T10:01:50Z</time>
      </trkpt>
      <trkpt lat="49.04484" lon="-0.47975">
        <ele>127.1</ele>
        <time>2017-05-27T10:01:57Z</time>
      </trkpt>
      <trkpt lat="49.04488" lon="-0.4797">
        <ele>129.2</ele>
        <time>2017-05-27T10:02:04Z</time>
      </trkpt>
      <trkpt lat="49.04491" lon="-0.47968">
        <ele>131</ele>
        <time>2017-05-27T10:02:11Z</time>
      </trkpt>
      <trkpt lat="49.04498" lon="-0.47961">
        <ele>131.2</ele>
        <time>2017-05-27T10:02:17Z</time>
      </trkpt>
      <trkpt lat="49.04504" lon="-0.47955">
        <ele>131.7</ele>
        <time>2017-05-27T10:02:23Z</time>
      </trkpt>
      <trkpt lat="49.04511" lon="-0.4795">
        <ele>133.8</ele>
        <time>2017-05-27T10:02:30Z</time>
      </trkpt>
      <trkpt lat="49.04518" lon="-0.47946">
        <ele>135.8</ele>
        <time>2017-05-27T10:02:36Z</time>
      </trkpt>
      <trkpt lat="49.04526" lon="-0.47945">
        <ele>136.2</ele>
        <time>2017-05-27T10:02:42Z</time>
      </trkpt>
      <trkpt lat="49.04534" lon="-0.47949">
        <ele>137</ele>
        <time>2017-05-27T10:02:48Z</time>
      </trkpt>
      <trkpt lat="49.04541" lon="-0.47954">
        <ele>137.2</ele>
        <time>2017-05-27T10:02:54Z</time>
      </trkpt>
      <trkpt lat="49.04548" lon="-0.4796">
        <ele>138.6</ele>
        <time>2017-05-27T10:03:00Z</time>
      </trkpt>
      <trkpt lat="49.04554" lon="-0.47968">
        <ele>140.2</ele>
        <time>2017-05-27T10:03:07Z</time>
      </trkpt>
      <trkpt lat="49.04559" lon="-0.47977">
        <ele>141</ele>
        <time>2017-05-27T10:03:14Z</time>
      </trkpt>
      <trkpt lat="49.04563" lon="-0.47988">
        <ele>140.5</ele>
        <time>2017-05-27T10:03:21Z</time>
      </trkpt>
      <trkpt lat="49.04568" lon="-0.47997">
        <ele>138</ele>
        <time>2017-05-27T10:03:28Z</time>
      </trkpt>
      <trkpt lat="49.04574" lon="-0.48006">
        <ele>137.9</ele>
        <time>2017-05-27T10:03:34Z</time>
      </trkpt>
      <trkpt lat="49.04578" lon="-0.48015">
        <ele>138.6</ele>
        <time>2017-05-27T10:03:41Z</time>
      </trkpt>
      <trkpt lat="49.04583" lon="-0.48023">
        <ele>139.1</ele>
        <time>2017-05-27T10:03:46Z</time>
      </trkpt>
      <trkpt lat="49.04588" lon="-0.48032">
        <ele>139</ele>
        <time>2017-05-27T10:03:52Z</time>
      </trkpt>
      <trkpt lat="49.04591" lon="-0.48038">
        <ele>138.4</ele>
        <time>2017-05-27T10:03:59Z</time>
      </trkpt>
      <trkpt lat="49.04595" lon="-0.48042">
        <ele>140.9</ele>
        <time>2017-05-27T10:04:06Z</time>
      </trkpt>
      <trkpt lat="49.04605" lon="-0.48039">
        <ele>145.9</ele>
        <time>2017-05-27T10:06:07Z</time>
      </trkpt>
      <trkpt lat="49.04612" lon="-0.48038">
        <ele>145.8</ele>
        <time>2017-05-27T10:06:14Z</time>
      </trkpt>
      <trkpt lat="49.04619" lon="-0.48036">
        <ele>144.1</ele>
        <time>2017-05-27T10:06:21Z</time>
      </trkpt>
      <trkpt lat="49.04627" lon="-0.48034">
        <ele>145.2</ele>
        <time>2017-05-27T10:06:27Z</time>
      </trkpt>
      <trkpt lat="49.04634" lon="-0.48033">
        <ele>144.9</ele>
        <time>2017-05-27T10:06:34Z</time>
      </trkpt>
      <trkpt lat="49.04643" lon="-0.48033">
        <ele>143.8</ele>
        <time>2017-05-27T10:06:41Z</time>
      </trkpt>
      <trkpt lat="49.0465" lon="-0.48032">
        <ele>142</ele>
        <time>2017-05-27T10:06:47Z</time>
      </trkpt>
      <trkpt lat="49.04657" lon="-0.4803">
        <ele>140.6</ele>
        <time>2017-05-27T10:06:53Z</time>
      </trkpt>
      <trkpt lat="49.04665" lon="-0.48028">
        <ele>136.9</ele>
        <time>2017-05-27T10:06:59Z</time>
      </trkpt>
      <trkpt lat="49.04674" lon="-0.48027">
        <ele>136.5</ele>
        <time>2017-05-27T10:07:05Z</time>
      </trkpt>
      <trkpt lat="49.04681" lon="-0.48027">
        <ele>136.7</ele>
        <time>2017-05-27T10:07:11Z</time>
      </trkpt>
      <trkpt lat="49.0469" lon="-0.48027">
        <ele>137</ele>
        <time>2017-05-27T10:07:18Z</time>
      </trkpt>
      <trkpt lat="49.04698" lon="-0.48026">
        <ele>137.5</ele>
        <time>2017-05-27T10:07:25Z</time>
      </trkpt>
      <trkpt lat="49.04706" lon="-0.48024">
        <ele>136.4</ele>
        <time>2017-05-27T10:07:32Z</time>
      </trkpt>
      <trkpt lat="49.04713" lon="-0.48022">
        <ele>135.2</ele>
        <time>2017-05-27T10:07:39Z</time>
      </trkpt>
      <trkpt lat="49.04721" lon="-0.4802">
        <ele>135.2</ele>
        <time>2017-05-27T10:07:45Z</time>
      </trkpt>
      <trkpt lat="49.0473" lon="-0.48019">
        <ele>135.4</ele>
        <time>2017-05-27T10:07:51Z</time>
      </trkpt>
      <trkpt lat="49.04737" lon="-0.48017">
        <ele>135.7</ele>
        <time>2017-05-27T10:07:57Z</time>
      </trkpt>
      <trkpt lat="49.04745" lon="-0.48015">
        <ele>135.4</ele>
        <time>2017-05-27T10:08:03Z</time>
      </trkpt>
      <trkpt lat="49.04752" lon="-0.48013">
        <ele>135.7</ele>
        <time>2017-05-27T10:08:10Z</time>
      </trkpt>
      <trkpt lat="49.04759" lon="-0.48011">
        <ele>134.6</ele>
        <time>2017-05-27T10:08:16Z</time>
      </trkpt>
      <trkpt lat="49.04766" lon="-0.48008">
        <ele>134.2</ele>
        <time>2017-05-27T10:08:23Z</time>
      </trkpt>
      <trkpt lat="49.04773" lon="-0.48004">
        <ele>133</ele>
        <time>2017-05-27T10:08:29Z</time>
      </trkpt>
      <trkpt lat="49.0478" lon="-0.48">
        <ele>133.4</ele>
        <time>2017-05-27T10:08:35Z</time>
      </trkpt>
      <trkpt lat="49.04787" lon="-0.47995">
        <ele>132.8</ele>
        <time>2017-05-27T10:08:41Z</time>
      </trkpt>
      <trkpt lat="49.04793" lon="-0.47987">
        <ele>134.1</ele>
        <time>2017-05-27T10:08:47Z</time>
      </trkpt>
      <trkpt lat="49.04797" lon="-0.47977">
        <ele>133.5</ele>
        <time>2017-05-27T10:08:54Z</time>
      </trkpt>
      <trkpt lat="49.04802" lon="-0.47967">
        <ele>133.1</ele>
        <time>2017-05-27T10:08:59Z</time>
      </trkpt>
      <trkpt lat="49.04807" lon="-0.47958">
        <ele>133.3</ele>
        <time>2017-05-27T10:09:05Z</time>
      </trkpt>
      <trkpt lat="49.04812" lon="-0.47949">
        <ele>134.8</ele>
        <time>2017-05-27T10:09:11Z</time>
      </trkpt>
      <trkpt lat="49.04818" lon="-0.4794">
        <ele>135.5</ele>
        <time>2017-05-27T10:09:17Z</time>
      </trkpt>
      <trkpt lat="49.04824" lon="-0.47933">
        <ele>135.8</ele>
        <time>2017-05-27T10:09:24Z</time>
      </trkpt>
      <trkpt lat="49.04829" lon="-0.47922">
        <ele>135.6</ele>
        <time>2017-05-27T10:09:30Z</time>
      </trkpt>
      <trkpt lat="49.04833" lon="-0.47912">
        <ele>136.6</ele>
        <time>2017-05-27T10:09:36Z</time>
      </trkpt>
      <trkpt lat="49.04838" lon="-0.47903">
        <ele>137.4</ele>
        <time>2017-05-27T10:09:41Z</time>
      </trkpt>
      <trkpt lat="49.04844" lon="-0.47894">
        <ele>134.7</ele>
        <time>2017-05-27T10:09:47Z</time>
      </trkpt>
      <trkpt lat="49.04847" lon="-0.47883">
        <ele>133.8</ele>
        <time>2017-05-27T10:09:53Z</time>
      </trkpt>
      <trkpt lat="49.04852" lon="-0.47875">
        <ele>133.8</ele>
        <time>2017-05-27T10:09:59Z</time>
      </trkpt>
      <trkpt lat="49.04858" lon="-0.47868">
        <ele>133.6</ele>
        <time>2017-05-27T10:10:05Z</time>
      </trkpt>
      <trkpt lat="49.04864" lon="-0.47859">
        <ele>134.6</ele>
        <time>2017-05-27T10:10:11Z</time>
      </trkpt>
      <trkpt lat="49.04869" lon="-0.47851">
        <ele>133.8</ele>
        <time>2017-05-27T10:10:17Z</time>
      </trkpt>
      <trkpt lat="49.04874" lon="-0.47841">
        <ele>132.8</ele>
        <time>2017-05-27T10:10:24Z</time>
      </trkpt>
      <trkpt lat="49.04879" lon="-0.4783">
        <ele>133.3</ele>
        <time>2017-05-27T10:10:31Z</time>
      </trkpt>
      <trkpt lat="49.04883" lon="-0.47822">
        <ele>133.1</ele>
        <time>2017-05-27T10:10:37Z</time>
      </trkpt>
      <trkpt lat="49.04888" lon="-0.47812">
        <ele>132.8</ele>
        <time>2017-05-27T10:10:43Z</time>
      </trkpt>
      <trkpt lat="49.04894" lon="-0.47804">
        <ele>134.1</ele>
        <time>2017-05-27T10:10:49Z</time>
      </trkpt>
      <trkpt lat="49.04899" lon="-0.47797">
        <ele>135.5</ele>
        <time>2017-05-27T10:10:55Z</time>
      </trkpt>
      <trkpt lat="49.04905" lon="-0.47789">
        <ele>136.5</ele>
        <time>2017-05-27T10:11:01Z</time>
      </trkpt>
      <trkpt lat="49.04907" lon="-0.47777">
        <ele>136.3</ele>
        <time>2017-05-27T10:11:08Z</time>
      </trkpt>
      <trkpt lat="49.04907" lon="-0.47764">
        <ele>136.7</ele>
        <time>2017-05-27T10:11:15Z</time>
      </trkpt>
      <trkpt lat="49.04905" lon="-0.47752">
        <ele>137.9</ele>
        <time>2017-05-27T10:11:23Z</time>
      </trkpt>
      <trkpt lat="49.04905" lon="-0.4774">
        <ele>138.7</ele>
        <time>2017-05-27T10:11:29Z</time>
      </trkpt>
      <trkpt lat="49.04903" lon="-0.47729">
        <ele>138.1</ele>
        <time>2017-05-27T10:11:36Z</time>
      </trkpt>
      <trkpt lat="49.04903" lon="-0.47717">
        <ele>138.2</ele>
        <time>2017-05-27T10:11:42Z</time>
      </trkpt>
      <trkpt lat="49.04903" lon="-0.47705">
        <ele>139.4</ele>
        <time>2017-05-27T10:11:48Z</time>
      </trkpt>
      <trkpt lat="49.04905" lon="-0.47695">
        <ele>140.7</ele>
        <time>2017-05-27T10:11:55Z</time>
      </trkpt>
      <trkpt lat="49.04907" lon="-0.47683">
        <ele>140.8</ele>
        <time>2017-05-27T10:12:02Z</time>
      </trkpt>
      <trkpt lat="49.04906" lon="-0.47673">
        <ele>143</ele>
        <time>2017-05-27T10:12:09Z</time>
      </trkpt>
      <trkpt lat="49.04905" lon="-0.4766">
        <ele>141.5</ele>
        <time>2017-05-27T10:12:16Z</time>
      </trkpt>
      <trkpt lat="49.04903" lon="-0.4765">
        <ele>140.3</ele>
        <time>2017-05-27T10:12:23Z</time>
      </trkpt>
      <trkpt lat="49.04901" lon="-0.47639">
        <ele>139.4</ele>
        <time>2017-05-27T10:12:30Z</time>
      </trkpt>
      <trkpt lat="49.04899" lon="-0.47628">
        <ele>139.8</ele>
        <time>2017-05-27T10:12:36Z</time>
      </trkpt>
      <trkpt lat="49.04899" lon="-0.47617">
        <ele>141</ele>
        <time>2017-05-27T10:12:41Z</time>
      </trkpt>
      <trkpt lat="49.04899" lon="-0.47605">
        <ele>140.6</ele>
        <time>2017-05-27T10:12:47Z</time>
      </trkpt>
      <trkpt lat="49.04899" lon="-0.47594">
        <ele>141.3</ele>
        <time>2017-05-27T10:12:53Z</time>
      </trkpt>
      <trkpt lat="49.04898" lon="-0.47583">
        <ele>142.1</ele>
        <time>2017-05-27T10:12:59Z</time>
      </trkpt>
      <trkpt lat="49.04896" lon="-0.47573">
        <ele>142</ele>
        <time>2017-05-27T10:13:06Z</time>
      </trkpt>
      <trkpt lat="49.04897" lon="-0.47562">
        <ele>142</ele>
        <time>2017-05-27T10:13:12Z</time>
      </trkpt>
      <trkpt lat="49.04899" lon="-0.47551">
        <ele>140.5</ele>
        <time>2017-05-27T10:13:17Z</time>
      </trkpt>
      <trkpt lat="49.04901" lon="-0.47539">
        <ele>141.5</ele>
        <time>2017-05-27T10:13:22Z</time>
      </trkpt>
      <trkpt lat="49.04902" lon="-0.47527">
        <ele>142.2</ele>
        <time>2017-05-27T10:13:28Z</time>
      </trkpt>
      <trkpt lat="49.04904" lon="-0.47516">
        <ele>141.8</ele>
        <time>2017-05-27T10:13:35Z</time>
      </trkpt>
      <trkpt lat="49.04907" lon="-0.47505">
        <ele>141.1</ele>
        <time>2017-05-27T10:13:41Z</time>
      </trkpt>
      <trkpt lat="49.0491" lon="-0.47493">
        <ele>139.8</ele>
        <time>2017-05-27T10:13:46Z</time>
      </trkpt>
      <trkpt lat="49.04912" lon="-0.47481">
        <ele>136.5</ele>
        <time>2017-05-27T10:13:52Z</time>
      </trkpt>
      <trkpt lat="49.04916" lon="-0.47471">
        <ele>133.9</ele>
        <time>2017-05-27T10:13:57Z</time>
      </trkpt>
      <trkpt lat="49.04919" lon="-0.47461">
        <ele>133.5</ele>
        <time>2017-05-27T10:14:02Z</time>
      </trkpt>
      <trkpt lat="49.04921" lon="-0.47451">
        <ele>130.8</ele>
        <time>2017-05-27T10:14:09Z</time>
      </trkpt>
      <trkpt lat="49.04926" lon="-0.47442">
        <ele>127.9</ele>
        <time>2017-05-27T10:14:16Z</time>
      </trkpt>
      <trkpt lat="49.0493" lon="-0.47432">
        <ele>125.5</ele>
        <time>2017-05-27T10:14:23Z</time>
      </trkpt>
      <trkpt lat="49.04933" lon="-0.47422">
        <ele>123.7</ele>
        <time>2017-05-27T10:14:29Z</time>
      </trkpt>
      <trkpt lat="49.04937" lon="-0.47413">
        <ele>123.1</ele>
        <time>2017-05-27T10:14:35Z</time>
      </trkpt>
      <trkpt lat="49.04941" lon="-0.47405">
        <ele>124.3</ele>
        <time>2017-05-27T10:14:42Z</time>
      </trkpt>
      <trkpt lat="49.04944" lon="-0.47394">
        <ele>126.4</ele>
        <time>2017-05-27T10:14:48Z</time>
      </trkpt>
      <trkpt lat="49.04945" lon="-0.47381">
        <ele>130.8</ele>
        <time>2017-05-27T10:14:55Z</time>
      </trkpt>
      <trkpt lat="49.04947" lon="-0.4737">
        <ele>132.8</ele>
        <time>2017-05-27T10:15:02Z</time>
      </trkpt>
      <trkpt lat="49.0495" lon="-0.47361">
        <ele>132.9</ele>
        <time>2017-05-27T10:15:09Z</time>
      </trkpt>
      <trkpt lat="49.04952" lon="-0.47352">
        <ele>130.9</ele>
        <time>2017-05-27T10:15:16Z</time>
      </trkpt>
      <trkpt lat="49.04952" lon="-0.4735">
        <ele>130.5</ele>
        <time>2017-05-27T10:15:23Z</time>
      </trkpt>
      <trkpt lat="49.04954" lon="-0.47335">
        <ele>124.7</ele>
        <time>2017-05-27T10:14:57Z</time>
      </trkpt>
      <trkpt lat="49.0496" lon="-0.47329">
        <ele>122.3</ele>
        <time>2017-05-27T10:17:36Z</time>
      </trkpt>
      <trkpt lat="49.04964" lon="-0.47321">
        <ele>122</ele>
        <time>2017-05-27T10:17:43Z</time>
      </trkpt>
      <trkpt lat="49.04964" lon="-0.47308">
        <ele>120.7</ele>
        <time>2017-05-27T10:17:49Z</time>
      </trkpt>
      <trkpt lat="49.04965" lon="-0.47297">
        <ele>120.1</ele>
        <time>2017-05-27T10:17:56Z</time>
      </trkpt>
      <trkpt lat="49.04966" lon="-0.47287">
        <ele>118.9</ele>
        <time>2017-05-27T10:18:03Z</time>
      </trkpt>
      <trkpt lat="49.04967" lon="-0.47277">
        <ele>119.2</ele>
        <time>2017-05-27T10:18:10Z</time>
      </trkpt>
      <trkpt lat="49.04968" lon="-0.47266">
        <ele>119.2</ele>
        <time>2017-05-27T10:18:15Z</time>
      </trkpt>
      <trkpt lat="49.0497" lon="-0.47253">
        <ele>118.4</ele>
        <time>2017-05-27T10:18:21Z</time>
      </trkpt>
      <trkpt lat="49.04972" lon="-0.47242">
        <ele>118.7</ele>
        <time>2017-05-27T10:18:28Z</time>
      </trkpt>
      <trkpt lat="49.04974" lon="-0.47232">
        <ele>118.5</ele>
        <time>2017-05-27T10:18:35Z</time>
      </trkpt>
      <trkpt lat="49.04975" lon="-0.47223">
        <ele>119.2</ele>
        <time>2017-05-27T10:18:42Z</time>
      </trkpt>
      <trkpt lat="49.04976" lon="-0.4721">
        <ele>120.5</ele>
        <time>2017-05-27T10:18:49Z</time>
      </trkpt>
      <trkpt lat="49.04977" lon="-0.47198">
        <ele>119.5</ele>
        <time>2017-05-27T10:18:55Z</time>
      </trkpt>
      <trkpt lat="49.04978" lon="-0.47188">
        <ele>120.3</ele>
        <time>2017-05-27T10:19:02Z</time>
      </trkpt>
      <trkpt lat="49.04979" lon="-0.47177">
        <ele>120.8</ele>
        <time>2017-05-27T10:19:09Z</time>
      </trkpt>
      <trkpt lat="49.0498" lon="-0.47168">
        <ele>120.3</ele>
        <time>2017-05-27T10:19:16Z</time>
      </trkpt>
      <trkpt lat="49.04982" lon="-0.47157">
        <ele>120.3</ele>
        <time>2017-05-27T10:19:23Z</time>
      </trkpt>
      <trkpt lat="49.04983" lon="-0.47145">
        <ele>120.3</ele>
        <time>2017-05-27T10:19:30Z</time>
      </trkpt>
      <trkpt lat="49.04985" lon="-0.47135">
        <ele>119.9</ele>
        <time>2017-05-27T10:19:37Z</time>
      </trkpt>
      <trkpt lat="49.04985" lon="-0.47123">
        <ele>119.6</ele>
        <time>2017-05-27T10:19:44Z</time>
      </trkpt>
      <trkpt lat="49.04985" lon="-0.47113">
        <ele>119.9</ele>
        <time>2017-05-27T10:19:51Z</time>
      </trkpt>
      <trkpt lat="49.04985" lon="-0.47102">
        <ele>119.8</ele>
        <time>2017-05-27T10:19:58Z</time>
      </trkpt>
      <trkpt lat="49.04987" lon="-0.47091">
        <ele>118.2</ele>
        <time>2017-05-27T10:20:05Z</time>
      </trkpt>
      <trkpt lat="49.04986" lon="-0.47079">
        <ele>118.8</ele>
        <time>2017-05-27T10:20:11Z</time>
      </trkpt>
      <trkpt lat="49.04986" lon="-0.47067">
        <ele>118.9</ele>
        <time>2017-05-27T10:20:17Z</time>
      </trkpt>
      <trkpt lat="49.04987" lon="-0.47054">
        <ele>117.1</ele>
        <time>2017-05-27T10:20:24Z</time>
      </trkpt>
      <trkpt lat="49.04988" lon="-0.47044">
        <ele>114.8</ele>
        <time>2017-05-27T10:20:31Z</time>
      </trkpt>
      <trkpt lat="49.04988" lon="-0.47034">
        <ele>112.9</ele>
        <time>2017-05-27T10:20:38Z</time>
      </trkpt>
      <trkpt lat="49.04989" lon="-0.47024">
        <ele>112.9</ele>
        <time>2017-05-27T10:20:45Z</time>
      </trkpt>
      <trkpt lat="49.04988" lon="-0.47012">
        <ele>111.7</ele>
        <time>2017-05-27T10:20:51Z</time>
      </trkpt>
      <trkpt lat="49.04988" lon="-0.47">
        <ele>112.2</ele>
        <time>2017-05-27T10:20:57Z</time>
      </trkpt>
      <trkpt lat="49.0499" lon="-0.46989">
        <ele>111.9</ele>
        <time>2017-05-27T10:21:03Z</time>
      </trkpt>
      <trkpt lat="49.04992" lon="-0.46978">
        <ele>110.3</ele>
        <time>2017-05-27T10:21:10Z</time>
      </trkpt>
      <trkpt lat="49.04992" lon="-0.46966">
        <ele>110</ele>
        <time>2017-05-27T10:21:17Z</time>
      </trkpt>
      <trkpt lat="49.0499" lon="-0.46957">
        <ele>109.8</ele>
        <time>2017-05-27T10:21:24Z</time>
      </trkpt>
      <trkpt lat="49.0499" lon="-0.46945">
        <ele>110.7</ele>
        <time>2017-05-27T10:21:32Z</time>
      </trkpt>
      <trkpt lat="49.04989" lon="-0.46934">
        <ele>110.6</ele>
        <time>2017-05-27T10:21:39Z</time>
      </trkpt>
      <trkpt lat="49.04988" lon="-0.46924">
        <ele>111.1</ele>
        <time>2017-05-27T10:21:47Z</time>
      </trkpt>
      <trkpt lat="49.04988" lon="-0.46912">
        <ele>111.4</ele>
        <time>2017-05-27T10:21:53Z</time>
      </trkpt>
      <trkpt lat="49.04988" lon="-0.46902">
        <ele>110.8</ele>
        <time>2017-05-27T10:22:00Z</time>
      </trkpt>
      <trkpt lat="49.04987" lon="-0.46891">
        <ele>110.7</ele>
        <time>2017-05-27T10:22:06Z</time>
      </trkpt>
      <trkpt lat="49.04989" lon="-0.46878">
        <ele>109.7</ele>
        <time>2017-05-27T10:22:13Z</time>
      </trkpt>
      <trkpt lat="49.0499" lon="-0.46868">
        <ele>108.9</ele>
        <time>2017-05-27T10:22:19Z</time>
      </trkpt>
      <trkpt lat="49.0499" lon="-0.46855">
        <ele>106.5</ele>
        <time>2017-05-27T10:22:25Z</time>
      </trkpt>
      <trkpt lat="49.0499" lon="-0.46846">
        <ele>104.9</ele>
        <time>2017-05-27T10:22:32Z</time>
      </trkpt>
      <trkpt lat="49.04991" lon="-0.46834">
        <ele>105</ele>
        <time>2017-05-27T10:22:39Z</time>
      </trkpt>
      <trkpt lat="49.04992" lon="-0.46824">
        <ele>105.4</ele>
        <time>2017-05-27T10:22:46Z</time>
      </trkpt>
      <trkpt lat="49.04992" lon="-0.46815">
        <ele>105.1</ele>
        <time>2017-05-27T10:22:53Z</time>
      </trkpt>
      <trkpt lat="49.04991" lon="-0.46805">
        <ele>105.5</ele>
        <time>2017-05-27T10:23:00Z</time>
      </trkpt>
      <trkpt lat="49.04992" lon="-0.46795">
        <ele>105.2</ele>
        <time>2017-05-27T10:23:07Z</time>
      </trkpt>
      <trkpt lat="49.04993" lon="-0.46789">
        <ele>104.9</ele>
        <time>2017-05-27T10:23:14Z</time>
      </trkpt>
      <trkpt lat="49.04994" lon="-0.46778">
        <ele>103.7</ele>
        <time>2017-05-27T10:23:21Z</time>
      </trkpt>
      <trkpt lat="49.04996" lon="-0.46768">
        <ele>102.1</ele>
        <time>2017-05-27T10:23:29Z</time>
      </trkpt>
      <trkpt lat="49.04997" lon="-0.46758">
        <ele>101.4</ele>
        <time>2017-05-27T10:23:35Z</time>
      </trkpt>
      <trkpt lat="49.04997" lon="-0.46751">
        <ele>101.1</ele>
        <time>2017-05-27T10:23:42Z</time>
      </trkpt>
      <trkpt lat="49.04997" lon="-0.46741">
        <ele>101.2</ele>
        <time>2017-05-27T10:23:49Z</time>
      </trkpt>
      <trkpt lat="49.04997" lon="-0.46732">
        <ele>99.5</ele>
        <time>2017-05-27T10:23:56Z</time>
      </trkpt>
      <trkpt lat="49.04997" lon="-0.46721">
        <ele>99.5</ele>
        <time>2017-05-27T10:24:02Z</time>
      </trkpt>
      <trkpt lat="49.04997" lon="-0.46711">
        <ele>98.4</ele>
        <time>2017-05-27T10:24:09Z</time>
      </trkpt>
      <trkpt lat="49.04996" lon="-0.46706">
        <ele>98.4</ele>
        <time>2017-05-27T10:24:16Z</time>
      </trkpt>
      <trkpt lat="49.04988" lon="-0.46697">
        <ele>95.7</ele>
        <time>2017-05-27T10:25:23Z</time>
      </trkpt>
      <trkpt lat="49.04982" lon="-0.46695">
        <ele>96.1</ele>
        <time>2017-05-27T10:25:30Z</time>
      </trkpt>
      <trkpt lat="49.04978" lon="-0.46695">
        <ele>96</ele>
        <time>2017-05-27T10:25:37Z</time>
      </trkpt>
      <trkpt lat="49.04972" lon="-0.467">
        <ele>94.9</ele>
        <time>2017-05-27T10:25:44Z</time>
      </trkpt>
      <trkpt lat="49.04966" lon="-0.46701">
        <ele>95.9</ele>
        <time>2017-05-27T10:25:51Z</time>
      </trkpt>
      <trkpt lat="49.04959" lon="-0.46702">
        <ele>97</ele>
        <time>2017-05-27T10:25:58Z</time>
      </trkpt>
      <trkpt lat="49.04951" lon="-0.46703">
        <ele>94.2</ele>
        <time>2017-05-27T10:26:03Z</time>
      </trkpt>
      <trkpt lat="49.04943" lon="-0.46704">
        <ele>91.5</ele>
        <time>2017-05-27T10:26:08Z</time>
      </trkpt>
      <trkpt lat="49.04936" lon="-0.46709">
        <ele>90.4</ele>
        <time>2017-05-27T10:26:14Z</time>
      </trkpt>
      <trkpt lat="49.0493" lon="-0.46711">
        <ele>89.2</ele>
        <time>2017-05-27T10:26:21Z</time>
      </trkpt>
      <trkpt lat="49.04923" lon="-0.46714">
        <ele>88.3</ele>
        <time>2017-05-27T10:26:28Z</time>
      </trkpt>
      <trkpt lat="49.04918" lon="-0.46718">
        <ele>86.7</ele>
        <time>2017-05-27T10:26:35Z</time>
      </trkpt>
      <trkpt lat="49.0491" lon="-0.4672">
        <ele>84.4</ele>
        <time>2017-05-27T10:26:41Z</time>
      </trkpt>
      <trkpt lat="49.04903" lon="-0.46715">
        <ele>83.8</ele>
        <time>2017-05-27T10:26:48Z</time>
      </trkpt>
      <trkpt lat="49.04899" lon="-0.46706">
        <ele>86.6</ele>
        <time>2017-05-27T10:26:55Z</time>
      </trkpt>
      <trkpt lat="49.04894" lon="-0.46697">
        <ele>87.9</ele>
        <time>2017-05-27T10:27:01Z</time>
      </trkpt>
      <trkpt lat="49.04891" lon="-0.46685">
        <ele>88.2</ele>
        <time>2017-05-27T10:27:08Z</time>
      </trkpt>
      <trkpt lat="49.04885" lon="-0.46677">
        <ele>87.4</ele>
        <time>2017-05-27T10:27:14Z</time>
      </trkpt>
      <trkpt lat="49.04881" lon="-0.46667">
        <ele>86.8</ele>
        <time>2017-05-27T10:27:21Z</time>
      </trkpt>
      <trkpt lat="49.04877" lon="-0.46656">
        <ele>85.8</ele>
        <time>2017-05-27T10:27:27Z</time>
      </trkpt>
      <trkpt lat="49.04872" lon="-0.46647">
        <ele>84.4</ele>
        <time>2017-05-27T10:27:33Z</time>
      </trkpt>
      <trkpt lat="49.04868" lon="-0.46638">
        <ele>83</ele>
        <time>2017-05-27T10:27:40Z</time>
      </trkpt>
      <trkpt lat="49.04864" lon="-0.46628">
        <ele>80.8</ele>
        <time>2017-05-27T10:27:47Z</time>
      </trkpt>
      <trkpt lat="49.04861" lon="-0.46618">
        <ele>79.6</ele>
        <time>2017-05-27T10:27:54Z</time>
      </trkpt>
      <trkpt lat="49.04859" lon="-0.46605">
        <ele>77.9</ele>
        <time>2017-05-27T10:28:01Z</time>
      </trkpt>
      <trkpt lat="49.04857" lon="-0.46595">
        <ele>75</ele>
        <time>2017-05-27T10:28:08Z</time>
      </trkpt>
      <trkpt lat="49.04856" lon="-0.46586">
        <ele>74</ele>
        <time>2017-05-27T10:28:15Z</time>
      </trkpt>
      <trkpt lat="49.04856" lon="-0.46574">
        <ele>74.8</ele>
        <time>2017-05-27T10:28:20Z</time>
      </trkpt>
      <trkpt lat="49.04856" lon="-0.46562">
        <ele>75.2</ele>
        <time>2017-05-27T10:28:25Z</time>
      </trkpt>
      <trkpt lat="49.04857" lon="-0.4655">
        <ele>75</ele>
        <time>2017-05-27T10:28:31Z</time>
      </trkpt>
      <trkpt lat="49.04856" lon="-0.46538">
        <ele>75.8</ele>
        <time>2017-05-27T10:28:36Z</time>
      </trkpt>
      <trkpt lat="49.04853" lon="-0.46526">
        <ele>74.7</ele>
        <time>2017-05-27T10:28:42Z</time>
      </trkpt>
      <trkpt lat="49.04851" lon="-0.46515">
        <ele>73.9</ele>
        <time>2017-05-27T10:28:49Z</time>
      </trkpt>
      <trkpt lat="49.04853" lon="-0.46508">
        <ele>78.4</ele>
        <time>2017-05-27T10:30:33Z</time>
      </trkpt>
      <trkpt lat="49.04857" lon="-0.46499">
        <ele>81.2</ele>
        <time>2017-05-27T10:30:45Z</time>
      </trkpt>
      <trkpt lat="49.04854" lon="-0.46506">
        <ele>73.1</ele>
        <time>2017-05-27T10:31:13Z</time>
      </trkpt>
      <trkpt lat="49.04849" lon="-0.4651">
        <ele>72.3</ele>
        <time>2017-05-27T10:31:48Z</time>
      </trkpt>
      <trkpt lat="49.04849" lon="-0.46516">
        <ele>74.3</ele>
        <time>2017-05-27T10:31:55Z</time>
      </trkpt>
      <trkpt lat="49.04849" lon="-0.46525">
        <ele>70.3</ele>
        <time>2017-05-27T10:32:02Z</time>
      </trkpt>
      <trkpt lat="49.04848" lon="-0.46535">
        <ele>72.3</ele>
        <time>2017-05-27T10:32:32Z</time>
      </trkpt>
      <trkpt lat="49.04847" lon="-0.46547">
        <ele>72.8</ele>
        <time>2017-05-27T10:32:38Z</time>
      </trkpt>
      <trkpt lat="49.04847" lon="-0.46554">
        <ele>74</ele>
        <time>2017-05-27T10:32:45Z</time>
      </trkpt>
      <trkpt lat="49.04847" lon="-0.46556">
        <ele>76.4</ele>
        <time>2017-05-27T10:32:52Z</time>
      </trkpt>
      <trkpt lat="49.04846" lon="-0.46563">
        <ele>75</ele>
        <time>2017-05-27T10:32:59Z</time>
      </trkpt>
      <trkpt lat="49.04845" lon="-0.46574">
        <ele>73.3</ele>
        <time>2017-05-27T10:33:06Z</time>
      </trkpt>
      <trkpt lat="49.04843" lon="-0.46584">
        <ele>72.4</ele>
        <time>2017-05-27T10:33:13Z</time>
      </trkpt>
      <trkpt lat="49.04843" lon="-0.46585">
        <ele>73.2</ele>
        <time>2017-05-27T10:33:20Z</time>
      </trkpt>
      <trkpt lat="49.04842" lon="-0.46596">
        <ele>72</ele>
        <time>2017-05-27T10:33:34Z</time>
      </trkpt>
      <trkpt lat="49.04841" lon="-0.46601">
        <ele>75</ele>
        <time>2017-05-27T10:33:41Z</time>
      </trkpt>
      <trkpt lat="49.04837" lon="-0.46607">
        <ele>73.8</ele>
        <time>2017-05-27T10:33:54Z</time>
      </trkpt>
      <trkpt lat="49.04831" lon="-0.46603">
        <ele>76</ele>
        <time>2017-05-27T10:34:01Z</time>
      </trkpt>
      <trkpt lat="49.04826" lon="-0.46601">
        <ele>77.5</ele>
        <time>2017-05-27T10:34:08Z</time>
      </trkpt>
      <trkpt lat="49.04823" lon="-0.46594">
        <ele>79.2</ele>
        <time>2017-05-27T10:34:15Z</time>
      </trkpt>
      <trkpt lat="49.04818" lon="-0.46584">
        <ele>80.8</ele>
        <time>2017-05-27T10:34:22Z</time>
      </trkpt>
      <trkpt lat="49.04813" lon="-0.46575">
        <ele>81.9</ele>
        <time>2017-05-27T10:34:29Z</time>
      </trkpt>
      <trkpt lat="49.0481" lon="-0.46569">
        <ele>82.7</ele>
        <time>2017-05-27T10:34:36Z</time>
      </trkpt>
      <trkpt lat="49.04809" lon="-0.46567">
        <ele>83</ele>
        <time>2017-05-27T10:34:43Z</time>
      </trkpt>
      <trkpt lat="49.04801" lon="-0.46566">
        <ele>54.8</ele>
        <time>2017-05-27T10:35:23Z</time>
      </trkpt>
      <trkpt lat="49.048" lon="-0.46568">
        <ele>51.8</ele>
        <time>2017-05-27T10:35:30Z</time>
      </trkpt>
      <trkpt lat="49.04797" lon="-0.46568">
        <ele>49.6</ele>
        <time>2017-05-27T10:35:37Z</time>
      </trkpt>
      <trkpt lat="49.048" lon="-0.46568">
        <ele>53.4</ele>
        <time>2017-05-27T10:35:44Z</time>
      </trkpt>
      <trkpt lat="49.04809" lon="-0.46563">
        <ele>57.5</ele>
        <time>2017-05-27T10:36:45Z</time>
      </trkpt>
      <trkpt lat="49.04813" lon="-0.46563">
        <ele>64.2</ele>
        <time>2017-05-27T10:37:00Z</time>
      </trkpt>
      <trkpt lat="49.04812" lon="-0.46574">
        <ele>76.6</ele>
        <time>2017-05-27T10:36:37Z</time>
      </trkpt>
      <trkpt lat="49.04813" lon="-0.46573">
        <ele>77.9</ele>
        <time>2017-05-27T10:37:49Z</time>
      </trkpt>
      <trkpt lat="49.0482" lon="-0.46577">
        <ele>80.8</ele>
        <time>2017-05-27T10:38:08Z</time>
      </trkpt>
      <trkpt lat="49.04822" lon="-0.46578">
        <ele>82</ele>
        <time>2017-05-27T10:38:15Z</time>
      </trkpt>
      <trkpt lat="49.0482" lon="-0.46575">
        <ele>83.4</ele>
        <time>2017-05-27T10:38:22Z</time>
      </trkpt>
      <trkpt lat="49.04819" lon="-0.46587">
        <ele>65.1</ele>
        <time>2017-05-27T10:39:06Z</time>
      </trkpt>
      <trkpt lat="49.0482" lon="-0.46595">
        <ele>64.9</ele>
        <time>2017-05-27T10:39:13Z</time>
      </trkpt>
      <trkpt lat="49.04823" lon="-0.46602">
        <ele>68.6</ele>
        <time>2017-05-27T10:39:20Z</time>
      </trkpt>
      <trkpt lat="49.04826" lon="-0.46608">
        <ele>69.8</ele>
        <time>2017-05-27T10:39:27Z</time>
      </trkpt>
      <trkpt lat="49.04828" lon="-0.4661">
        <ele>70.3</ele>
        <time>2017-05-27T10:39:34Z</time>
      </trkpt>
      <trkpt lat="49.04835" lon="-0.46607">
        <ele>75.7</ele>
        <time>2017-05-27T10:39:56Z</time>
      </trkpt>
      <trkpt lat="49.0484" lon="-0.46597">
        <ele>77.5</ele>
        <time>2017-05-27T10:40:02Z</time>
      </trkpt>
      <trkpt lat="49.04842" lon="-0.46585">
        <ele>80.2</ele>
        <time>2017-05-27T10:40:08Z</time>
      </trkpt>
      <trkpt lat="49.04842" lon="-0.46573">
        <ele>81.4</ele>
        <time>2017-05-27T10:40:15Z</time>
      </trkpt>
      <trkpt lat="49.04841" lon="-0.46563">
        <ele>82.7</ele>
        <time>2017-05-27T10:40:22Z</time>
      </trkpt>
      <trkpt lat="49.04843" lon="-0.46552">
        <ele>82.4</ele>
        <time>2017-05-27T10:40:28Z</time>
      </trkpt>
      <trkpt lat="49.04843" lon="-0.4654">
        <ele>82.6</ele>
        <time>2017-05-27T10:40:34Z</time>
      </trkpt>
      <trkpt lat="49.04845" lon="-0.46529">
        <ele>79.6</ele>
        <time>2017-05-27T10:40:39Z</time>
      </trkpt>
      <trkpt lat="49.04847" lon="-0.46518">
        <ele>76.4</ele>
        <time>2017-05-27T10:40:44Z</time>
      </trkpt>
      <trkpt lat="49.04847" lon="-0.46507">
        <ele>74.6</ele>
        <time>2017-05-27T10:40:51Z</time>
      </trkpt>
      <trkpt lat="49.04848" lon="-0.46502">
        <ele>74.2</ele>
        <time>2017-05-27T10:40:58Z</time>
      </trkpt>
      <trkpt lat="49.04848" lon="-0.465">
        <ele>73</ele>
        <time>2017-05-27T10:41:05Z</time>
      </trkpt>
      <trkpt lat="49.04848" lon="-0.4649">
        <ele>71.5</ele>
        <time>2017-05-27T10:41:12Z</time>
      </trkpt>
      <trkpt lat="49.04847" lon="-0.46478">
        <ele>70.7</ele>
        <time>2017-05-27T10:41:19Z</time>
      </trkpt>
      <trkpt lat="49.04847" lon="-0.46467">
        <ele>70.1</ele>
        <time>2017-05-27T10:41:26Z</time>
      </trkpt>
      <trkpt lat="49.04845" lon="-0.46457">
        <ele>67.3</ele>
        <time>2017-05-27T10:41:33Z</time>
      </trkpt>
      <trkpt lat="49.04843" lon="-0.46446">
        <ele>66.4</ele>
        <time>2017-05-27T10:41:39Z</time>
      </trkpt>
      <trkpt lat="49.04842" lon="-0.46434">
        <ele>65.7</ele>
        <time>2017-05-27T10:41:46Z</time>
      </trkpt>
      <trkpt lat="49.04842" lon="-0.46422">
        <ele>64</ele>
        <time>2017-05-27T10:41:53Z</time>
      </trkpt>
      <trkpt lat="49.04842" lon="-0.4641">
        <ele>63.6</ele>
        <time>2017-05-27T10:42:00Z</time>
      </trkpt>
      <trkpt lat="49.04841" lon="-0.46399">
        <ele>63.5</ele>
        <time>2017-05-27T10:42:07Z</time>
      </trkpt>
      <trkpt lat="49.0484" lon="-0.46389">
        <ele>61.6</ele>
        <time>2017-05-27T10:42:14Z</time>
      </trkpt>
      <trkpt lat="49.04838" lon="-0.46377">
        <ele>60.8</ele>
        <time>2017-05-27T10:42:20Z</time>
      </trkpt>
      <trkpt lat="49.04839" lon="-0.46364">
        <ele>60</ele>
        <time>2017-05-27T10:42:26Z</time>
      </trkpt>
      <trkpt lat="49.0484" lon="-0.46351">
        <ele>58.7</ele>
        <time>2017-05-27T10:42:32Z</time>
      </trkpt>
      <trkpt lat="49.04842" lon="-0.4634">
        <ele>57.9</ele>
        <time>2017-05-27T10:42:38Z</time>
      </trkpt>
      <trkpt lat="49.04844" lon="-0.46327">
        <ele>57.3</ele>
        <time>2017-05-27T10:42:45Z</time>
      </trkpt>
      <trkpt lat="49.04847" lon="-0.46317">
        <ele>57.2</ele>
        <time>2017-05-27T10:42:52Z</time>
      </trkpt>
      <trkpt lat="49.04848" lon="-0.46312">
        <ele>57.2</ele>
        <time>2017-05-27T10:42:59Z</time>
      </trkpt>
      <trkpt lat="49.04852" lon="-0.46302">
        <ele>56.8</ele>
        <time>2017-05-27T10:43:09Z</time>
      </trkpt>
      <trkpt lat="49.04854" lon="-0.46291">
        <ele>54.7</ele>
        <time>2017-05-27T10:43:16Z</time>
      </trkpt>
      <trkpt lat="49.04856" lon="-0.46279">
        <ele>53</ele>
        <time>2017-05-27T10:43:23Z</time>
      </trkpt>
      <trkpt lat="49.04858" lon="-0.46268">
        <ele>52.4</ele>
        <time>2017-05-27T10:43:29Z</time>
      </trkpt>
      <trkpt lat="49.04858" lon="-0.46257">
        <ele>51.9</ele>
        <time>2017-05-27T10:43:35Z</time>
      </trkpt>
      <trkpt lat="49.0486" lon="-0.46246">
        <ele>51</ele>
        <time>2017-05-27T10:43:42Z</time>
      </trkpt>
      <trkpt lat="49.04864" lon="-0.46235">
        <ele>51.3</ele>
        <time>2017-05-27T10:43:49Z</time>
      </trkpt>
      <trkpt lat="49.04868" lon="-0.46223">
        <ele>49.1</ele>
        <time>2017-05-27T10:43:56Z</time>
      </trkpt>
      <trkpt lat="49.04872" lon="-0.46213">
        <ele>47.2</ele>
        <time>2017-05-27T10:44:03Z</time>
      </trkpt>
      <trkpt lat="49.04876" lon="-0.46205">
        <ele>46.2</ele>
        <time>2017-05-27T10:44:09Z</time>
      </trkpt>
      <trkpt lat="49.04882" lon="-0.46196">
        <ele>46.5</ele>
        <time>2017-05-27T10:44:16Z</time>
      </trkpt>
      <trkpt lat="49.04887" lon="-0.46187">
        <ele>47.5</ele>
        <time>2017-05-27T10:44:23Z</time>
      </trkpt>
      <trkpt lat="49.04888" lon="-0.46186">
        <ele>47.6</ele>
        <time>2017-05-27T10:44:30Z</time>
      </trkpt>
      <trkpt lat="49.04893" lon="-0.46178">
        <ele>49.9</ele>
        <time>2017-05-27T10:44:35Z</time>
      </trkpt>
      <trkpt lat="49.04898" lon="-0.46169">
        <ele>49.4</ele>
        <time>2017-05-27T10:44:41Z</time>
      </trkpt>
      <trkpt lat="49.04903" lon="-0.46159">
        <ele>48.1</ele>
        <time>2017-05-27T10:44:48Z</time>
      </trkpt>
      <trkpt lat="49.04908" lon="-0.46149">
        <ele>46.7</ele>
        <time>2017-05-27T10:44:55Z</time>
      </trkpt>
      <trkpt lat="49.04913" lon="-0.4614">
        <ele>43.9</ele>
        <time>2017-05-27T10:45:02Z</time>
      </trkpt>
      <trkpt lat="49.04918" lon="-0.46132">
        <ele>42.2</ele>
        <time>2017-05-27T10:45:09Z</time>
      </trkpt>
      <trkpt lat="49.04921" lon="-0.46124">
        <ele>38.7</ele>
        <time>2017-05-27T10:45:23Z</time>
      </trkpt>
      <trkpt lat="49.04925" lon="-0.46114">
        <ele>36.4</ele>
        <time>2017-05-27T10:45:30Z</time>
      </trkpt>
      <trkpt lat="49.0493" lon="-0.46105">
        <ele>36.4</ele>
        <time>2017-05-27T10:45:36Z</time>
      </trkpt>
      <trkpt lat="49.04934" lon="-0.46096">
        <ele>36.5</ele>
        <time>2017-05-27T10:45:42Z</time>
      </trkpt>
      <trkpt lat="49.04938" lon="-0.46087">
        <ele>35.8</ele>
        <time>2017-05-27T10:45:48Z</time>
      </trkpt>
      <trkpt lat="49.04943" lon="-0.46077">
        <ele>35</ele>
        <time>2017-05-27T10:45:55Z</time>
      </trkpt>
      <trkpt lat="49.04948" lon="-0.46068">
        <ele>32.5</ele>
        <time>2017-05-27T10:46:02Z</time>
      </trkpt>
      <trkpt lat="49.04952" lon="-0.46057">
        <ele>32.3</ele>
        <time>2017-05-27T10:46:08Z</time>
      </trkpt>
      <trkpt lat="49.04958" lon="-0.46047">
        <ele>32.3</ele>
        <time>2017-05-27T10:46:14Z</time>
      </trkpt>
      <trkpt lat="49.04961" lon="-0.46039">
        <ele>30.2</ele>
        <time>2017-05-27T10:46:21Z</time>
      </trkpt>
      <trkpt lat="49.04967" lon="-0.4603">
        <ele>27.5</ele>
        <time>2017-05-27T10:46:28Z</time>
      </trkpt>
      <trkpt lat="49.04975" lon="-0.46026">
        <ele>25</ele>
        <time>2017-05-27T10:46:35Z</time>
      </trkpt>
      <trkpt lat="49.04983" lon="-0.46027">
        <ele>24.4</ele>
        <time>2017-05-27T10:46:41Z</time>
      </trkpt>
      <trkpt lat="49.0499" lon="-0.46027">
        <ele>24.5</ele>
        <time>2017-05-27T10:46:47Z</time>
      </trkpt>
      <trkpt lat="49.04998" lon="-0.46027">
        <ele>23.6</ele>
        <time>2017-05-27T10:46:53Z</time>
      </trkpt>
      <trkpt lat="49.05006" lon="-0.46028">
        <ele>20.3</ele>
        <time>2017-05-27T10:47:00Z</time>
      </trkpt>
      <trkpt lat="49.05013" lon="-0.46029">
        <ele>19.5</ele>
        <time>2017-05-27T10:47:07Z</time>
      </trkpt>
      <trkpt lat="49.05018" lon="-0.4603">
        <ele>21</ele>
        <time>2017-05-27T10:47:14Z</time>
      </trkpt>
      <trkpt lat="49.05026" lon="-0.4603">
        <ele>19</ele>
        <time>2017-05-27T10:47:28Z</time>
      </trkpt>
      <trkpt lat="49.05033" lon="-0.46029">
        <ele>16.3</ele>
        <time>2017-05-27T10:47:35Z</time>
      </trkpt>
      <trkpt lat="49.05041" lon="-0.46028">
        <ele>15.6</ele>
        <time>2017-05-27T10:47:42Z</time>
      </trkpt>
      <trkpt lat="49.0505" lon="-0.46026">
        <ele>15.6</ele>
        <time>2017-05-27T10:47:49Z</time>
      </trkpt>
      <trkpt lat="49.05057" lon="-0.46023">
        <ele>15.4</ele>
        <time>2017-05-27T10:47:55Z</time>
      </trkpt>
      <trkpt lat="49.05064" lon="-0.4602">
        <ele>15.5</ele>
        <time>2017-05-27T10:48:01Z</time>
      </trkpt>
      <trkpt lat="49.05072" lon="-0.46018">
        <ele>15.5</ele>
        <time>2017-05-27T10:48:07Z</time>
      </trkpt>
      <trkpt lat="49.0508" lon="-0.46016">
        <ele>15.3</ele>
        <time>2017-05-27T10:48:13Z</time>
      </trkpt>
      <trkpt lat="49.05086" lon="-0.46014">
        <ele>15.4</ele>
        <time>2017-05-27T10:48:20Z</time>
      </trkpt>
      <trkpt lat="49.05092" lon="-0.46012">
        <ele>16.7</ele>
        <time>2017-05-27T10:48:27Z</time>
      </trkpt>
      <trkpt lat="49.05098" lon="-0.46014">
        <ele>16.7</ele>
        <time>2017-05-27T10:48:34Z</time>
      </trkpt>
      <trkpt lat="49.05103" lon="-0.46018">
        <ele>18.8</ele>
        <time>2017-05-27T10:48:41Z</time>
      </trkpt>
      <trkpt lat="49.0511" lon="-0.46024">
        <ele>20.7</ele>
        <time>2017-05-27T10:48:48Z</time>
      </trkpt>
      <trkpt lat="49.05116" lon="-0.46029">
        <ele>22.5</ele>
        <time>2017-05-27T10:48:55Z</time>
      </trkpt>
      <trkpt lat="49.0512" lon="-0.46031">
        <ele>26.6</ele>
        <time>2017-05-27T10:49:02Z</time>
      </trkpt>
      <trkpt lat="49.05126" lon="-0.46034">
        <ele>29.7</ele>
        <time>2017-05-27T10:49:09Z</time>
      </trkpt>
      <trkpt lat="49.05132" lon="-0.46039">
        <ele>31.2</ele>
        <time>2017-05-27T10:49:16Z</time>
      </trkpt>
      <trkpt lat="49.05138" lon="-0.46045">
        <ele>31.5</ele>
        <time>2017-05-27T10:49:23Z</time>
      </trkpt>
      <trkpt lat="49.05144" lon="-0.46047">
        <ele>33.8</ele>
        <time>2017-05-27T10:49:30Z</time>
      </trkpt>
      <trkpt lat="49.05149" lon="-0.4605">
        <ele>36.9</ele>
        <time>2017-05-27T10:49:37Z</time>
      </trkpt>
      <trkpt lat="49.05157" lon="-0.46051">
        <ele>38.3</ele>
        <time>2017-05-27T10:49:44Z</time>
      </trkpt>
      <trkpt lat="49.05165" lon="-0.46054">
        <ele>39.1</ele>
        <time>2017-05-27T10:49:50Z</time>
      </trkpt>
      <trkpt lat="49.05172" lon="-0.46058">
        <ele>39.1</ele>
        <time>2017-05-27T10:49:57Z</time>
      </trkpt>
      <trkpt lat="49.05179" lon="-0.46062">
        <ele>39.8</ele>
        <time>2017-05-27T10:50:04Z</time>
      </trkpt>
      <trkpt lat="49.05187" lon="-0.46063">
        <ele>40.3</ele>
        <time>2017-05-27T10:50:10Z</time>
      </trkpt>
      <trkpt lat="49.05195" lon="-0.46066">
        <ele>38.8</ele>
        <time>2017-05-27T10:50:17Z</time>
      </trkpt>
      <trkpt lat="49.05202" lon="-0.46067">
        <ele>37.7</ele>
        <time>2017-05-27T10:50:24Z</time>
      </trkpt>
      <trkpt lat="49.05209" lon="-0.46066">
        <ele>38.3</ele>
        <time>2017-05-27T10:50:31Z</time>
      </trkpt>
      <trkpt lat="49.05217" lon="-0.46065">
        <ele>37.8</ele>
        <time>2017-05-27T10:50:38Z</time>
      </trkpt>
      <trkpt lat="49.05225" lon="-0.46063">
        <ele>36.9</ele>
        <time>2017-05-27T10:50:45Z</time>
      </trkpt>
      <trkpt lat="49.05233" lon="-0.46064">
        <ele>37.4</ele>
        <time>2017-05-27T10:50:52Z</time>
      </trkpt>
      <trkpt lat="49.0524" lon="-0.46064">
        <ele>37.1</ele>
        <time>2017-05-27T10:50:59Z</time>
      </trkpt>
      <trkpt lat="49.05247" lon="-0.46066">
        <ele>34.7</ele>
        <time>2017-05-27T10:51:06Z</time>
      </trkpt>
      <trkpt lat="49.05253" lon="-0.46067">
        <ele>34.3</ele>
        <time>2017-05-27T10:51:13Z</time>
      </trkpt>
      <trkpt lat="49.0526" lon="-0.46071">
        <ele>31.5</ele>
        <time>2017-05-27T10:51:20Z</time>
      </trkpt>
      <trkpt lat="49.05268" lon="-0.46072">
        <ele>31</ele>
        <time>2017-05-27T10:51:25Z</time>
      </trkpt>
      <trkpt lat="49.05275" lon="-0.46071">
        <ele>30</ele>
        <time>2017-05-27T10:51:32Z</time>
      </trkpt>
      <trkpt lat="49.05281" lon="-0.46071">
        <ele>29</ele>
        <time>2017-05-27T10:51:39Z</time>
      </trkpt>
      <trkpt lat="49.05289" lon="-0.46069">
        <ele>27.5</ele>
        <time>2017-05-27T10:51:45Z</time>
      </trkpt>
      <trkpt lat="49.05296" lon="-0.46067">
        <ele>27.7</ele>
        <time>2017-05-27T10:51:51Z</time>
      </trkpt>
      <trkpt lat="49.05304" lon="-0.46065">
        <ele>28.2</ele>
        <time>2017-05-27T10:51:58Z</time>
      </trkpt>
      <trkpt lat="49.05311" lon="-0.46065">
        <ele>28.5</ele>
        <time>2017-05-27T10:52:05Z</time>
      </trkpt>
      <trkpt lat="49.05319" lon="-0.46065">
        <ele>28.2</ele>
        <time>2017-05-27T10:52:12Z</time>
      </trkpt>
      <trkpt lat="49.05326" lon="-0.46066">
        <ele>28.6</ele>
        <time>2017-05-27T10:52:19Z</time>
      </trkpt>
      <trkpt lat="49.05332" lon="-0.46064">
        <ele>30.3</ele>
        <time>2017-05-27T10:52:26Z</time>
      </trkpt>
      <trkpt lat="49.05341" lon="-0.46063">
        <ele>31.1</ele>
        <time>2017-05-27T10:52:33Z</time>
      </trkpt>
      <trkpt lat="49.05348" lon="-0.46062">
        <ele>31.3</ele>
        <time>2017-05-27T10:52:40Z</time>
      </trkpt>
      <trkpt lat="49.05355" lon="-0.46063">
        <ele>32.4</ele>
        <time>2017-05-27T10:52:47Z</time>
      </trkpt>
      <trkpt lat="49.05362" lon="-0.46062">
        <ele>33.7</ele>
        <time>2017-05-27T10:52:54Z</time>
      </trkpt>
      <trkpt lat="49.05368" lon="-0.46063">
        <ele>34.4</ele>
        <time>2017-05-27T10:53:01Z</time>
      </trkpt>
      <trkpt lat="49.05374" lon="-0.46063">
        <ele>33.1</ele>
        <time>2017-05-27T10:53:08Z</time>
      </trkpt>
      <trkpt lat="49.05379" lon="-0.46064">
        <ele>32.1</ele>
        <time>2017-05-27T10:53:15Z</time>
      </trkpt>
      <trkpt lat="49.05386" lon="-0.46062">
        <ele>31.2</ele>
        <time>2017-05-27T10:53:21Z</time>
      </trkpt>
      <trkpt lat="49.05393" lon="-0.46059">
        <ele>30.1</ele>
        <time>2017-05-27T10:53:27Z</time>
      </trkpt>
      <trkpt lat="49.054" lon="-0.46057">
        <ele>27</ele>
        <time>2017-05-27T10:53:31Z</time>
      </trkpt>
      <trkpt lat="49.05407" lon="-0.46053">
        <ele>24.9</ele>
        <time>2017-05-27T10:53:37Z</time>
      </trkpt>
      <trkpt lat="49.05414" lon="-0.46053">
        <ele>23.3</ele>
        <time>2017-05-27T10:53:43Z</time>
      </trkpt>
      <trkpt lat="49.05422" lon="-0.46055">
        <ele>22.1</ele>
        <time>2017-05-27T10:53:50Z</time>
      </trkpt>
      <trkpt lat="49.05429" lon="-0.46056">
        <ele>21.4</ele>
        <time>2017-05-27T10:53:56Z</time>
      </trkpt>
      <trkpt lat="49.05436" lon="-0.46059">
        <ele>17.6</ele>
        <time>2017-05-27T10:54:03Z</time>
      </trkpt>
      <trkpt lat="49.05443" lon="-0.46059">
        <ele>17.7</ele>
        <time>2017-05-27T10:54:10Z</time>
      </trkpt>
      <trkpt lat="49.05451" lon="-0.46064">
        <ele>15.7</ele>
        <time>2017-05-27T10:54:17Z</time>
      </trkpt>
      <trkpt lat="49.05459" lon="-0.46066">
        <ele>15.4</ele>
        <time>2017-05-27T10:54:23Z</time>
      </trkpt>
      <trkpt lat="49.05467" lon="-0.46068">
        <ele>16.1</ele>
        <time>2017-05-27T10:54:29Z</time>
      </trkpt>
      <trkpt lat="49.05475" lon="-0.46067">
        <ele>17.5</ele>
        <time>2017-05-27T10:54:36Z</time>
      </trkpt>
      <trkpt lat="49.05483" lon="-0.46069">
        <ele>18.3</ele>
        <time>2017-05-27T10:54:43Z</time>
      </trkpt>
      <trkpt lat="49.05492" lon="-0.46069">
        <ele>20</ele>
        <time>2017-05-27T10:54:49Z</time>
      </trkpt>
      <trkpt lat="49.05499" lon="-0.46071">
        <ele>20.2</ele>
        <time>2017-05-27T10:54:55Z</time>
      </trkpt>
      <trkpt lat="49.05507" lon="-0.46071">
        <ele>21</ele>
        <time>2017-05-27T10:55:01Z</time>
      </trkpt>
      <trkpt lat="49.05516" lon="-0.46069">
        <ele>19.6</ele>
        <time>2017-05-27T10:55:07Z</time>
      </trkpt>
      <trkpt lat="49.05523" lon="-0.46071">
        <ele>19.9</ele>
        <time>2017-05-27T10:55:12Z</time>
      </trkpt>
      <trkpt lat="49.0553" lon="-0.46073">
        <ele>20.8</ele>
        <time>2017-05-27T10:55:18Z</time>
      </trkpt>
      <trkpt lat="49.05538" lon="-0.46075">
        <ele>19.2</ele>
        <time>2017-05-27T10:55:24Z</time>
      </trkpt>
      <trkpt lat="49.05545" lon="-0.46075">
        <ele>19.9</ele>
        <time>2017-05-27T10:55:31Z</time>
      </trkpt>
      <trkpt lat="49.05553" lon="-0.46078">
        <ele>21.8</ele>
        <time>2017-05-27T10:55:38Z</time>
      </trkpt>
      <trkpt lat="49.0556" lon="-0.4608">
        <ele>22.6</ele>
        <time>2017-05-27T10:55:43Z</time>
      </trkpt>
      <trkpt lat="49.05568" lon="-0.46083">
        <ele>23.2</ele>
        <time>2017-05-27T10:55:48Z</time>
      </trkpt>
      <trkpt lat="49.05575" lon="-0.46085">
        <ele>25</ele>
        <time>2017-05-27T10:55:54Z</time>
      </trkpt>
      <trkpt lat="49.05583" lon="-0.46086">
        <ele>26.7</ele>
        <time>2017-05-27T10:56:00Z</time>
      </trkpt>
      <trkpt lat="49.05591" lon="-0.46087">
        <ele>26.5</ele>
        <time>2017-05-27T10:56:07Z</time>
      </trkpt>
      <trkpt lat="49.05598" lon="-0.46089">
        <ele>26</ele>
        <time>2017-05-27T10:56:13Z</time>
      </trkpt>
      <trkpt lat="49.05607" lon="-0.46089">
        <ele>25.9</ele>
        <time>2017-05-27T10:56:20Z</time>
      </trkpt>
      <trkpt lat="49.05614" lon="-0.46091">
        <ele>25.1</ele>
        <time>2017-05-27T10:56:27Z</time>
      </trkpt>
      <trkpt lat="49.05621" lon="-0.46092">
        <ele>25.7</ele>
        <time>2017-05-27T10:56:32Z</time>
      </trkpt>
      <trkpt lat="49.05629" lon="-0.46095">
        <ele>24.1</ele>
        <time>2017-05-27T10:56:37Z</time>
      </trkpt>
      <trkpt lat="49.05636" lon="-0.46101">
        <ele>21.7</ele>
        <time>2017-05-27T10:56:43Z</time>
      </trkpt>
      <trkpt lat="49.05643" lon="-0.46107">
        <ele>20.7</ele>
        <time>2017-05-27T10:56:50Z</time>
      </trkpt>
      <trkpt lat="49.0565" lon="-0.46108">
        <ele>19.9</ele>
        <time>2017-05-27T10:56:57Z</time>
      </trkpt>
      <trkpt lat="49.05659" lon="-0.46106">
        <ele>24.4</ele>
        <time>2017-05-27T10:57:04Z</time>
      </trkpt>
      <trkpt lat="49.05666" lon="-0.46105">
        <ele>30.7</ele>
        <time>2017-05-27T10:57:11Z</time>
      </trkpt>
      <trkpt lat="49.05673" lon="-0.46108">
        <ele>34.2</ele>
        <time>2017-05-27T10:57:18Z</time>
      </trkpt>
      <trkpt lat="49.0568" lon="-0.46112">
        <ele>34.8</ele>
        <time>2017-05-27T10:57:24Z</time>
      </trkpt>
      <trkpt lat="49.05687" lon="-0.46117">
        <ele>36.9</ele>
        <time>2017-05-27T10:57:32Z</time>
      </trkpt>
      <trkpt lat="49.05697" lon="-0.46123">
        <ele>33.3</ele>
        <time>2017-05-27T10:57:38Z</time>
      </trkpt>
      <trkpt lat="49.05704" lon="-0.46124">
        <ele>33</ele>
        <time>2017-05-27T10:57:43Z</time>
      </trkpt>
      <trkpt lat="49.05713" lon="-0.46123">
        <ele>35.4</ele>
        <time>2017-05-27T10:57:49Z</time>
      </trkpt>
      <trkpt lat="49.0572" lon="-0.4612">
        <ele>37.2</ele>
        <time>2017-05-27T10:57:56Z</time>
      </trkpt>
      <trkpt lat="49.05728" lon="-0.46115">
        <ele>38</ele>
        <time>2017-05-27T10:58:02Z</time>
      </trkpt>
      <trkpt lat="49.05736" lon="-0.46111">
        <ele>36.3</ele>
        <time>2017-05-27T10:58:09Z</time>
      </trkpt>
      <trkpt lat="49.05744" lon="-0.46107">
        <ele>36.4</ele>
        <time>2017-05-27T10:58:16Z</time>
      </trkpt>
      <trkpt lat="49.05751" lon="-0.46105">
        <ele>35.2</ele>
        <time>2017-05-27T10:58:21Z</time>
      </trkpt>
      <trkpt lat="49.05758" lon="-0.46104">
        <ele>34.6</ele>
        <time>2017-05-27T10:58:25Z</time>
      </trkpt>
      <trkpt lat="49.05766" lon="-0.46105">
        <ele>32.8</ele>
        <time>2017-05-27T10:58:31Z</time>
      </trkpt>
      <trkpt lat="49.05773" lon="-0.46104">
        <ele>31.9</ele>
        <time>2017-05-27T10:58:36Z</time>
      </trkpt>
      <trkpt lat="49.0578" lon="-0.46108">
        <ele>29.4</ele>
        <time>2017-05-27T10:58:42Z</time>
      </trkpt>
      <trkpt lat="49.05789" lon="-0.4611">
        <ele>27.7</ele>
        <time>2017-05-27T10:58:48Z</time>
      </trkpt>
      <trkpt lat="49.05796" lon="-0.46112">
        <ele>24.3</ele>
        <time>2017-05-27T10:58:53Z</time>
      </trkpt>
      <trkpt lat="49.05803" lon="-0.46115">
        <ele>18.3</ele>
        <time>2017-05-27T10:58:58Z</time>
      </trkpt>
      <trkpt lat="49.05811" lon="-0.46117">
        <ele>18.3</ele>
        <time>2017-05-27T10:59:03Z</time>
      </trkpt>
      <trkpt lat="49.05819" lon="-0.4612">
        <ele>17.5</ele>
        <time>2017-05-27T10:59:09Z</time>
      </trkpt>
      <trkpt lat="49.05826" lon="-0.46124">
        <ele>16.1</ele>
        <time>2017-05-27T10:59:15Z</time>
      </trkpt>
      <trkpt lat="49.05833" lon="-0.46125">
        <ele>17.3</ele>
        <time>2017-05-27T10:59:22Z</time>
      </trkpt>
      <trkpt lat="49.05842" lon="-0.46126">
        <ele>17.1</ele>
        <time>2017-05-27T10:59:29Z</time>
      </trkpt>
      <trkpt lat="49.05849" lon="-0.46127">
        <ele>16.6</ele>
        <time>2017-05-27T10:59:35Z</time>
      </trkpt>
      <trkpt lat="49.05856" lon="-0.46126">
        <ele>18.2</ele>
        <time>2017-05-27T10:59:42Z</time>
      </trkpt>
      <trkpt lat="49.05863" lon="-0.46124">
        <ele>17.5</ele>
        <time>2017-05-27T10:59:48Z</time>
      </trkpt>
      <trkpt lat="49.05872" lon="-0.46125">
        <ele>16</ele>
        <time>2017-05-27T10:59:55Z</time>
      </trkpt>
      <trkpt lat="49.05879" lon="-0.46125">
        <ele>15.4</ele>
        <time>2017-05-27T11:00:02Z</time>
      </trkpt>
      <trkpt lat="49.05887" lon="-0.46124">
        <ele>15.1</ele>
        <time>2017-05-27T11:00:09Z</time>
      </trkpt>
      <trkpt lat="49.05896" lon="-0.46124">
        <ele>14.9</ele>
        <time>2017-05-27T11:00:16Z</time>
      </trkpt>
      <trkpt lat="49.05902" lon="-0.46126">
        <ele>16.9</ele>
        <time>2017-05-27T11:00:23Z</time>
      </trkpt>
      <trkpt lat="49.0591" lon="-0.46127">
        <ele>20.2</ele>
        <time>2017-05-27T11:00:30Z</time>
      </trkpt>
      <trkpt lat="49.05918" lon="-0.46127">
        <ele>22</ele>
        <time>2017-05-27T11:00:36Z</time>
      </trkpt>
      <trkpt lat="49.05924" lon="-0.46124">
        <ele>26.1</ele>
        <time>2017-05-27T11:00:43Z</time>
      </trkpt>
      <trkpt lat="49.0593" lon="-0.4612">
        <ele>28.5</ele>
        <time>2017-05-27T11:00:50Z</time>
      </trkpt>
      <trkpt lat="49.05938" lon="-0.46115">
        <ele>30.1</ele>
        <time>2017-05-27T11:00:57Z</time>
      </trkpt>
      <trkpt lat="49.05946" lon="-0.46112">
        <ele>29.6</ele>
        <time>2017-05-27T11:01:02Z</time>
      </trkpt>
      <trkpt lat="49.05953" lon="-0.46108">
        <ele>31.4</ele>
        <time>2017-05-27T11:01:08Z</time>
      </trkpt>
      <trkpt lat="49.05961" lon="-0.46103">
        <ele>32.1</ele>
        <time>2017-05-27T11:01:14Z</time>
      </trkpt>
      <trkpt lat="49.0597" lon="-0.461">
        <ele>30.2</ele>
        <time>2017-05-27T11:01:21Z</time>
      </trkpt>
      <trkpt lat="49.05977" lon="-0.46098">
        <ele>28.8</ele>
        <time>2017-05-27T11:01:27Z</time>
      </trkpt>
      <trkpt lat="49.05984" lon="-0.46095">
        <ele>26.2</ele>
        <time>2017-05-27T11:01:34Z</time>
      </trkpt>
      <trkpt lat="49.05992" lon="-0.46091">
        <ele>24.3</ele>
        <time>2017-05-27T11:01:40Z</time>
      </trkpt>
      <trkpt lat="49.06" lon="-0.46089">
        <ele>23</ele>
        <time>2017-05-27T11:01:45Z</time>
      </trkpt>
      <trkpt lat="49.06007" lon="-0.46087">
        <ele>21</ele>
        <time>2017-05-27T11:01:51Z</time>
      </trkpt>
      <trkpt lat="49.06016" lon="-0.46086">
        <ele>18.2</ele>
        <time>2017-05-27T11:01:57Z</time>
      </trkpt>
      <trkpt lat="49.06024" lon="-0.46084">
        <ele>16.2</ele>
        <time>2017-05-27T11:02:03Z</time>
      </trkpt>
      <trkpt lat="49.06031" lon="-0.4608">
        <ele>16.3</ele>
        <time>2017-05-27T11:02:09Z</time>
      </trkpt>
      <trkpt lat="49.06038" lon="-0.46075">
        <ele>17.9</ele>
        <time>2017-05-27T11:02:15Z</time>
      </trkpt>
      <trkpt lat="49.06044" lon="-0.46072">
        <ele>19.6</ele>
        <time>2017-05-27T11:02:22Z</time>
      </trkpt>
      <trkpt lat="49.06052" lon="-0.46068">
        <ele>19</ele>
        <time>2017-05-27T11:02:29Z</time>
      </trkpt>
      <trkpt lat="49.0606" lon="-0.46065">
        <ele>17.8</ele>
        <time>2017-05-27T11:02:35Z</time>
      </trkpt>
      <trkpt lat="49.06067" lon="-0.46059">
        <ele>17.4</ele>
        <time>2017-05-27T11:02:41Z</time>
      </trkpt>
      <trkpt lat="49.06074" lon="-0.46057">
        <ele>17.2</ele>
        <time>2017-05-27T11:02:47Z</time>
      </trkpt>
      <trkpt lat="49.06081" lon="-0.46052">
        <ele>16.2</ele>
        <time>2017-05-27T11:02:54Z</time>
      </trkpt>
      <trkpt lat="49.06088" lon="-0.46046">
        <ele>14.9</ele>
        <time>2017-05-27T11:03:01Z</time>
      </trkpt>
      <trkpt lat="49.06096" lon="-0.46044">
        <ele>14.1</ele>
        <time>2017-05-27T11:03:07Z</time>
      </trkpt>
      <trkpt lat="49.06103" lon="-0.46041">
        <ele>14.2</ele>
        <time>2017-05-27T11:03:14Z</time>
      </trkpt>
      <trkpt lat="49.06109" lon="-0.46039">
        <ele>14</ele>
        <time>2017-05-27T11:03:21Z</time>
      </trkpt>
      <trkpt lat="49.06116" lon="-0.46036">
        <ele>14.3</ele>
        <time>2017-05-27T11:03:28Z</time>
      </trkpt>
      <trkpt lat="49.06125" lon="-0.46035">
        <ele>16.4</ele>
        <time>2017-05-27T11:03:35Z</time>
      </trkpt>
      <trkpt lat="49.06131" lon="-0.46029">
        <ele>18.8</ele>
        <time>2017-05-27T11:03:42Z</time>
      </trkpt>
      <trkpt lat="49.06139" lon="-0.46023">
        <ele>18.9</ele>
        <time>2017-05-27T11:03:49Z</time>
      </trkpt>
      <trkpt lat="49.06146" lon="-0.4602">
        <ele>20.5</ele>
        <time>2017-05-27T11:03:55Z</time>
      </trkpt>
      <trkpt lat="49.06154" lon="-0.46017">
        <ele>21.5</ele>
        <time>2017-05-27T11:04:02Z</time>
      </trkpt>
      <trkpt lat="49.06162" lon="-0.46013">
        <ele>23.2</ele>
        <time>2017-05-27T11:04:09Z</time>
      </trkpt>
      <trkpt lat="49.06169" lon="-0.46007">
        <ele>24.8</ele>
        <time>2017-05-27T11:04:16Z</time>
      </trkpt>
      <trkpt lat="49.06176" lon="-0.46002">
        <ele>24.2</ele>
        <time>2017-05-27T11:04:22Z</time>
      </trkpt>
      <trkpt lat="49.06183" lon="-0.45997">
        <ele>25</ele>
        <time>2017-05-27T11:04:29Z</time>
      </trkpt>
      <trkpt lat="49.0619" lon="-0.4599">
        <ele>23.8</ele>
        <time>2017-05-27T11:04:36Z</time>
      </trkpt>
      <trkpt lat="49.06198" lon="-0.45985">
        <ele>22.4</ele>
        <time>2017-05-27T11:04:43Z</time>
      </trkpt>
      <trkpt lat="49.06206" lon="-0.4598">
        <ele>21.9</ele>
        <time>2017-05-27T11:04:49Z</time>
      </trkpt>
      <trkpt lat="49.06212" lon="-0.45973">
        <ele>21.8</ele>
        <time>2017-05-27T11:04:55Z</time>
      </trkpt>
      <trkpt lat="49.06219" lon="-0.45967">
        <ele>23.6</ele>
        <time>2017-05-27T11:05:01Z</time>
      </trkpt>
      <trkpt lat="49.06227" lon="-0.45964">
        <ele>24.2</ele>
        <time>2017-05-27T11:05:08Z</time>
      </trkpt>
      <trkpt lat="49.06234" lon="-0.45962">
        <ele>23.8</ele>
        <time>2017-05-27T11:05:15Z</time>
      </trkpt>
      <trkpt lat="49.0624" lon="-0.45957">
        <ele>23.8</ele>
        <time>2017-05-27T11:05:22Z</time>
      </trkpt>
      <trkpt lat="49.06247" lon="-0.45953">
        <ele>26.1</ele>
        <time>2017-05-27T11:05:29Z</time>
      </trkpt>
      <trkpt lat="49.06254" lon="-0.45948">
        <ele>24.9</ele>
        <time>2017-05-27T11:05:35Z</time>
      </trkpt>
      <trkpt lat="49.06261" lon="-0.45944">
        <ele>24.3</ele>
        <time>2017-05-27T11:05:42Z</time>
      </trkpt>
      <trkpt lat="49.06268" lon="-0.45941">
        <ele>23.2</ele>
        <time>2017-05-27T11:05:48Z</time>
      </trkpt>
      <trkpt lat="49.06276" lon="-0.45936">
        <ele>23.5</ele>
        <time>2017-05-27T11:05:55Z</time>
      </trkpt>
      <trkpt lat="49.06283" lon="-0.45933">
        <ele>24.2</ele>
        <time>2017-05-27T11:06:00Z</time>
      </trkpt>
      <trkpt lat="49.0629" lon="-0.45927">
        <ele>25</ele>
        <time>2017-05-27T11:06:06Z</time>
      </trkpt>
      <trkpt lat="49.06298" lon="-0.45923">
        <ele>26.6</ele>
        <time>2017-05-27T11:06:12Z</time>
      </trkpt>
      <trkpt lat="49.06304" lon="-0.45917">
        <ele>26.1</ele>
        <time>2017-05-27T11:06:19Z</time>
      </trkpt>
      <trkpt lat="49.0631" lon="-0.45911">
        <ele>27.3</ele>
        <time>2017-05-27T11:06:25Z</time>
      </trkpt>
      <trkpt lat="49.06318" lon="-0.45907">
        <ele>25.6</ele>
        <time>2017-05-27T11:06:32Z</time>
      </trkpt>
      <trkpt lat="49.06325" lon="-0.45902">
        <ele>22.9</ele>
        <time>2017-05-27T11:06:37Z</time>
      </trkpt>
      <trkpt lat="49.06333" lon="-0.45895">
        <ele>20.1</ele>
        <time>2017-05-27T11:06:43Z</time>
      </trkpt>
      <trkpt lat="49.06338" lon="-0.45888">
        <ele>19.4</ele>
        <time>2017-05-27T11:06:48Z</time>
      </trkpt>
      <trkpt lat="49.06345" lon="-0.4588">
        <ele>21.3</ele>
        <time>2017-05-27T11:06:54Z</time>
      </trkpt>
      <trkpt lat="49.06351" lon="-0.45876">
        <ele>22.3</ele>
        <time>2017-05-27T11:07:01Z</time>
      </trkpt>
      <trkpt lat="49.06358" lon="-0.45871">
        <ele>21.7</ele>
        <time>2017-05-27T11:07:08Z</time>
      </trkpt>
      <trkpt lat="49.06364" lon="-0.45862">
        <ele>21.9</ele>
        <time>2017-05-27T11:07:15Z</time>
      </trkpt>
      <trkpt lat="49.06369" lon="-0.45852">
        <ele>24.5</ele>
        <time>2017-05-27T11:07:21Z</time>
      </trkpt>
      <trkpt lat="49.06373" lon="-0.45843">
        <ele>26.5</ele>
        <time>2017-05-27T11:07:27Z</time>
      </trkpt>
      <trkpt lat="49.06381" lon="-0.45838">
        <ele>26.3</ele>
        <time>2017-05-27T11:07:33Z</time>
      </trkpt>
      <trkpt lat="49.06388" lon="-0.45841">
        <ele>24.3</ele>
        <time>2017-05-27T11:07:39Z</time>
      </trkpt>
      <trkpt lat="49.06393" lon="-0.45847">
        <ele>22.6</ele>
        <time>2017-05-27T11:07:46Z</time>
      </trkpt>
      <trkpt lat="49.06399" lon="-0.45855">
        <ele>20.8</ele>
        <time>2017-05-27T11:07:52Z</time>
      </trkpt>
      <trkpt lat="49.06406" lon="-0.45862">
        <ele>19.6</ele>
        <time>2017-05-27T11:07:58Z</time>
      </trkpt>
      <trkpt lat="49.0641" lon="-0.45873">
        <ele>18.5</ele>
        <time>2017-05-27T11:08:05Z</time>
      </trkpt>
      <trkpt lat="49.06415" lon="-0.45884">
        <ele>15.7</ele>
        <time>2017-05-27T11:08:10Z</time>
      </trkpt>
      <trkpt lat="49.06419" lon="-0.45893">
        <ele>14.2</ele>
        <time>2017-05-27T11:08:17Z</time>
      </trkpt>
      <trkpt lat="49.06425" lon="-0.45901">
        <ele>13.6</ele>
        <time>2017-05-27T11:08:24Z</time>
      </trkpt>
      <trkpt lat="49.06428" lon="-0.4591">
        <ele>13.3</ele>
        <time>2017-05-27T11:08:31Z</time>
      </trkpt>
      <trkpt lat="49.06429" lon="-0.45923">
        <ele>13</ele>
        <time>2017-05-27T11:08:37Z</time>
      </trkpt>
      <trkpt lat="49.06429" lon="-0.45934">
        <ele>14.5</ele>
        <time>2017-05-27T11:08:43Z</time>
      </trkpt>
      <trkpt lat="49.06427" lon="-0.45945">
        <ele>18</ele>
        <time>2017-05-27T11:08:49Z</time>
      </trkpt>
      <trkpt lat="49.06428" lon="-0.45956">
        <ele>19.8</ele>
        <time>2017-05-27T11:08:55Z</time>
      </trkpt>
      <trkpt lat="49.06427" lon="-0.45968">
        <ele>21.8</ele>
        <time>2017-05-27T11:09:00Z</time>
      </trkpt>
      <trkpt lat="49.06432" lon="-0.45975">
        <ele>21.7</ele>
        <time>2017-05-27T11:09:07Z</time>
      </trkpt>
      <trkpt lat="49.06437" lon="-0.45975">
        <ele>21.9</ele>
        <time>2017-05-27T11:09:14Z</time>
      </trkpt>
      <trkpt lat="49.06443" lon="-0.45973">
        <ele>23.1</ele>
        <time>2017-05-27T11:09:21Z</time>
      </trkpt>
      <trkpt lat="49.06449" lon="-0.45971">
        <ele>24.1</ele>
        <time>2017-05-27T11:09:28Z</time>
      </trkpt>
      <trkpt lat="49.06455" lon="-0.45967">
        <ele>28.9</ele>
        <time>2017-05-27T11:09:35Z</time>
      </trkpt>
      <trkpt lat="49.06457" lon="-0.4596">
        <ele>32</ele>
        <time>2017-05-27T11:09:42Z</time>
      </trkpt>
      <trkpt lat="49.0646" lon="-0.45949">
        <ele>32.5</ele>
        <time>2017-05-27T11:09:49Z</time>
      </trkpt>
      <trkpt lat="49.06463" lon="-0.45939">
        <ele>34.4</ele>
        <time>2017-05-27T11:09:56Z</time>
      </trkpt>
      <trkpt lat="49.06467" lon="-0.45929">
        <ele>40.5</ele>
        <time>2017-05-27T11:10:01Z</time>
      </trkpt>
      <trkpt lat="49.0647" lon="-0.45919">
        <ele>43.8</ele>
        <time>2017-05-27T11:10:07Z</time>
      </trkpt>
      <trkpt lat="49.06473" lon="-0.45908">
        <ele>47.4</ele>
        <time>2017-05-27T11:10:13Z</time>
      </trkpt>
      <trkpt lat="49.06475" lon="-0.45897">
        <ele>50.5</ele>
        <time>2017-05-27T11:10:19Z</time>
      </trkpt>
      <trkpt lat="49.06479" lon="-0.45886">
        <ele>53.4</ele>
        <time>2017-05-27T11:10:24Z</time>
      </trkpt>
      <trkpt lat="49.06483" lon="-0.45875">
        <ele>55.6</ele>
        <time>2017-05-27T11:10:29Z</time>
      </trkpt>
      <trkpt lat="49.06489" lon="-0.45866">
        <ele>53.8</ele>
        <time>2017-05-27T11:10:34Z</time>
      </trkpt>
      <trkpt lat="49.06496" lon="-0.4586">
        <ele>50.9</ele>
        <time>2017-05-27T11:10:39Z</time>
      </trkpt>
      <trkpt lat="49.06501" lon="-0.45852">
        <ele>51.3</ele>
        <time>2017-05-27T11:10:44Z</time>
      </trkpt>
      <trkpt lat="49.06506" lon="-0.45843">
        <ele>49.9</ele>
        <time>2017-05-27T11:10:51Z</time>
      </trkpt>
      <trkpt lat="49.06511" lon="-0.45834">
        <ele>50.1</ele>
        <time>2017-05-27T11:10:57Z</time>
      </trkpt>
      <trkpt lat="49.06516" lon="-0.45824">
        <ele>49.8</ele>
        <time>2017-05-27T11:11:04Z</time>
      </trkpt>
      <trkpt lat="49.06521" lon="-0.45815">
        <ele>50.9</ele>
        <time>2017-05-27T11:11:10Z</time>
      </trkpt>
      <trkpt lat="49.06527" lon="-0.45806">
        <ele>53.5</ele>
        <time>2017-05-27T11:11:16Z</time>
      </trkpt>
      <trkpt lat="49.06533" lon="-0.45799">
        <ele>56.2</ele>
        <time>2017-05-27T11:11:22Z</time>
      </trkpt>
      <trkpt lat="49.06539" lon="-0.45796">
        <ele>57.1</ele>
        <time>2017-05-27T11:11:29Z</time>
      </trkpt>
      <trkpt lat="49.06543" lon="-0.45787">
        <ele>58.3</ele>
        <time>2017-05-27T11:11:36Z</time>
      </trkpt>
      <trkpt lat="49.06548" lon="-0.45778">
        <ele>56.7</ele>
        <time>2017-05-27T11:11:40Z</time>
      </trkpt>
      <trkpt lat="49.06556" lon="-0.45771">
        <ele>48.8</ele>
        <time>2017-05-27T11:11:44Z</time>
      </trkpt>
      <trkpt lat="49.06562" lon="-0.45764">
        <ele>50.5</ele>
        <time>2017-05-27T11:11:49Z</time>
      </trkpt>
      <trkpt lat="49.06567" lon="-0.45756">
        <ele>51.8</ele>
        <time>2017-05-27T11:11:56Z</time>
      </trkpt>
      <trkpt lat="49.06571" lon="-0.4575">
        <ele>51.3</ele>
        <time>2017-05-27T11:12:03Z</time>
      </trkpt>
      <trkpt lat="49.06568" lon="-0.45754">
        <ele>47.9</ele>
        <time>2017-05-27T11:15:26Z</time>
      </trkpt>
      <trkpt lat="49.06572" lon="-0.45752">
        <ele>46.4</ele>
        <time>2017-05-27T11:16:33Z</time>
      </trkpt>
      <trkpt lat="49.06575" lon="-0.45748">
        <ele>46.9</ele>
        <time>2017-05-27T11:16:59Z</time>
      </trkpt>
      <trkpt lat="49.0658" lon="-0.4574">
        <ele>49.1</ele>
        <time>2017-05-27T11:17:10Z</time>
      </trkpt>
      <trkpt lat="49.06586" lon="-0.45734">
        <ele>52.1</ele>
        <time>2017-05-27T11:17:17Z</time>
      </trkpt>
      <trkpt lat="49.06592" lon="-0.45725">
        <ele>53.1</ele>
        <time>2017-05-27T11:17:24Z</time>
      </trkpt>
      <trkpt lat="49.06597" lon="-0.45716">
        <ele>55.9</ele>
        <time>2017-05-27T11:17:31Z</time>
      </trkpt>
      <trkpt lat="49.06602" lon="-0.45707">
        <ele>57.9</ele>
        <time>2017-05-27T11:17:37Z</time>
      </trkpt>
      <trkpt lat="49.06609" lon="-0.45699">
        <ele>59.6</ele>
        <time>2017-05-27T11:17:43Z</time>
      </trkpt>
      <trkpt lat="49.06614" lon="-0.45692">
        <ele>60.5</ele>
        <time>2017-05-27T11:17:49Z</time>
      </trkpt>
      <trkpt lat="49.0662" lon="-0.45683">
        <ele>60.6</ele>
        <time>2017-05-27T11:17:56Z</time>
      </trkpt>
      <trkpt lat="49.06624" lon="-0.45674">
        <ele>59.8</ele>
        <time>2017-05-27T11:18:02Z</time>
      </trkpt>
      <trkpt lat="49.06628" lon="-0.45664">
        <ele>60.2</ele>
        <time>2017-05-27T11:18:09Z</time>
      </trkpt>
      <trkpt lat="49.06631" lon="-0.45653">
        <ele>57.7</ele>
        <time>2017-05-27T11:18:16Z</time>
      </trkpt>
      <trkpt lat="49.06634" lon="-0.45642">
        <ele>55.2</ele>
        <time>2017-05-27T11:18:23Z</time>
      </trkpt>
      <trkpt lat="49.06638" lon="-0.45632">
        <ele>53.9</ele>
        <time>2017-05-27T11:18:29Z</time>
      </trkpt>
      <trkpt lat="49.06642" lon="-0.45622">
        <ele>52.3</ele>
        <time>2017-05-27T11:18:35Z</time>
      </trkpt>
      <trkpt lat="49.06646" lon="-0.45612">
        <ele>48.9</ele>
        <time>2017-05-27T11:18:41Z</time>
      </trkpt>
      <trkpt lat="49.06649" lon="-0.456">
        <ele>48.5</ele>
        <time>2017-05-27T11:18:47Z</time>
      </trkpt>
      <trkpt lat="49.06653" lon="-0.4559">
        <ele>50.8</ele>
        <time>2017-05-27T11:18:52Z</time>
      </trkpt>
      <trkpt lat="49.06656" lon="-0.45579">
        <ele>50.3</ele>
        <time>2017-05-27T11:18:58Z</time>
      </trkpt>
      <trkpt lat="49.0666" lon="-0.45568">
        <ele>50.5</ele>
        <time>2017-05-27T11:19:04Z</time>
      </trkpt>
      <trkpt lat="49.06664" lon="-0.45559">
        <ele>49.2</ele>
        <time>2017-05-27T11:19:10Z</time>
      </trkpt>
      <trkpt lat="49.06669" lon="-0.45551">
        <ele>48.2</ele>
        <time>2017-05-27T11:19:16Z</time>
      </trkpt>
      <trkpt lat="49.06675" lon="-0.45544">
        <ele>47.7</ele>
        <time>2017-05-27T11:19:21Z</time>
      </trkpt>
      <trkpt lat="49.06682" lon="-0.45536">
        <ele>46.3</ele>
        <time>2017-05-27T11:19:27Z</time>
      </trkpt>
      <trkpt lat="49.06688" lon="-0.4553">
        <ele>43.8</ele>
        <time>2017-05-27T11:19:33Z</time>
      </trkpt>
      <trkpt lat="49.06696" lon="-0.45529">
        <ele>43.2</ele>
        <time>2017-05-27T11:19:39Z</time>
      </trkpt>
      <trkpt lat="49.06703" lon="-0.45527">
        <ele>43</ele>
        <time>2017-05-27T11:19:44Z</time>
      </trkpt>
      <trkpt lat="49.06712" lon="-0.45528">
        <ele>42.3</ele>
        <time>2017-05-27T11:19:50Z</time>
      </trkpt>
      <trkpt lat="49.0672" lon="-0.45529">
        <ele>41.4</ele>
        <time>2017-05-27T11:19:56Z</time>
      </trkpt>
      <trkpt lat="49.06727" lon="-0.45531">
        <ele>40.2</ele>
        <time>2017-05-27T11:20:03Z</time>
      </trkpt>
      <trkpt lat="49.06734" lon="-0.45534">
        <ele>42.9</ele>
        <time>2017-05-27T11:20:10Z</time>
      </trkpt>
      <trkpt lat="49.06743" lon="-0.45534">
        <ele>45.9</ele>
        <time>2017-05-27T11:20:16Z</time>
      </trkpt>
      <trkpt lat="49.06749" lon="-0.45529">
        <ele>46.8</ele>
        <time>2017-05-27T11:20:23Z</time>
      </trkpt>
      <trkpt lat="49.06757" lon="-0.45524">
        <ele>48.3</ele>
        <time>2017-05-27T11:20:29Z</time>
      </trkpt>
      <trkpt lat="49.06763" lon="-0.45518">
        <ele>47.4</ele>
        <time>2017-05-27T11:20:36Z</time>
      </trkpt>
      <trkpt lat="49.06767" lon="-0.45509">
        <ele>46.1</ele>
        <time>2017-05-27T11:20:43Z</time>
      </trkpt>
      <trkpt lat="49.06771" lon="-0.45499">
        <ele>47.8</ele>
        <time>2017-05-27T11:20:50Z</time>
      </trkpt>
      <trkpt lat="49.06773" lon="-0.45488">
        <ele>46.5</ele>
        <time>2017-05-27T11:20:57Z</time>
      </trkpt>
      <trkpt lat="49.06774" lon="-0.45477">
        <ele>45.2</ele>
        <time>2017-05-27T11:21:04Z</time>
      </trkpt>
      <trkpt lat="49.06772" lon="-0.4547">
        <ele>42</ele>
        <time>2017-05-27T11:21:11Z</time>
      </trkpt>
      <trkpt lat="49.06771" lon="-0.45463">
        <ele>39.4</ele>
        <time>2017-05-27T11:21:18Z</time>
      </trkpt>
      <trkpt lat="49.06769" lon="-0.45455">
        <ele>41.9</ele>
        <time>2017-05-27T11:21:25Z</time>
      </trkpt>
      <trkpt lat="49.06766" lon="-0.45445">
        <ele>42.4</ele>
        <time>2017-05-27T11:21:32Z</time>
      </trkpt>
      <trkpt lat="49.06763" lon="-0.45435">
        <ele>41.3</ele>
        <time>2017-05-27T11:21:39Z</time>
      </trkpt>
      <trkpt lat="49.06763" lon="-0.45423">
        <ele>38.2</ele>
        <time>2017-05-27T11:21:45Z</time>
      </trkpt>
      <trkpt lat="49.06764" lon="-0.45411">
        <ele>36</ele>
        <time>2017-05-27T11:21:52Z</time>
      </trkpt>
      <trkpt lat="49.06763" lon="-0.45402">
        <ele>34.1</ele>
        <time>2017-05-27T11:21:59Z</time>
      </trkpt>
      <trkpt lat="49.06762" lon="-0.45391">
        <ele>33.3</ele>
        <time>2017-05-27T11:22:06Z</time>
      </trkpt>
      <trkpt lat="49.0676" lon="-0.45379">
        <ele>31.3</ele>
        <time>2017-05-27T11:22:13Z</time>
      </trkpt>
      <trkpt lat="49.06756" lon="-0.45369">
        <ele>30.5</ele>
        <time>2017-05-27T11:22:18Z</time>
      </trkpt>
      <trkpt lat="49.06752" lon="-0.45358">
        <ele>29.2</ele>
        <time>2017-05-27T11:22:25Z</time>
      </trkpt>
      <trkpt lat="49.06749" lon="-0.45348">
        <ele>28.6</ele>
        <time>2017-05-27T11:22:31Z</time>
      </trkpt>
      <trkpt lat="49.06744" lon="-0.4534">
        <ele>27.2</ele>
        <time>2017-05-27T11:22:37Z</time>
      </trkpt>
      <trkpt lat="49.06738" lon="-0.45331">
        <ele>25</ele>
        <time>2017-05-27T11:22:44Z</time>
      </trkpt>
      <trkpt lat="49.06731" lon="-0.45324">
        <ele>22.4</ele>
        <time>2017-05-27T11:22:51Z</time>
      </trkpt>
      <trkpt lat="49.06725" lon="-0.45319">
        <ele>23.1</ele>
        <time>2017-05-27T11:22:57Z</time>
      </trkpt>
      <trkpt lat="49.06718" lon="-0.45313">
        <ele>23.3</ele>
        <time>2017-05-27T11:23:02Z</time>
      </trkpt>
      <trkpt lat="49.06711" lon="-0.45307">
        <ele>21.5</ele>
        <time>2017-05-27T11:23:08Z</time>
      </trkpt>
      <trkpt lat="49.06704" lon="-0.45303">
        <ele>19.8</ele>
        <time>2017-05-27T11:23:14Z</time>
      </trkpt>
      <trkpt lat="49.06696" lon="-0.45298">
        <ele>19.3</ele>
        <time>2017-05-27T11:23:20Z</time>
      </trkpt>
      <trkpt lat="49.0669" lon="-0.45293">
        <ele>20.1</ele>
        <time>2017-05-27T11:23:25Z</time>
      </trkpt>
      <trkpt lat="49.06684" lon="-0.45285">
        <ele>21.9</ele>
        <time>2017-05-27T11:23:31Z</time>
      </trkpt>
      <trkpt lat="49.06678" lon="-0.45279">
        <ele>21</ele>
        <time>2017-05-27T11:23:36Z</time>
      </trkpt>
      <trkpt lat="49.06673" lon="-0.4527">
        <ele>20.6</ele>
        <time>2017-05-27T11:23:42Z</time>
      </trkpt>
      <trkpt lat="49.06669" lon="-0.45261">
        <ele>18.4</ele>
        <time>2017-05-27T11:23:48Z</time>
      </trkpt>
      <trkpt lat="49.06664" lon="-0.45252">
        <ele>16.9</ele>
        <time>2017-05-27T11:23:54Z</time>
      </trkpt>
      <trkpt lat="49.06658" lon="-0.45244">
        <ele>14.3</ele>
        <time>2017-05-27T11:24:00Z</time>
      </trkpt>
      <trkpt lat="49.06655" lon="-0.45233">
        <ele>13.9</ele>
        <time>2017-05-27T11:24:06Z</time>
      </trkpt>
      <trkpt lat="49.06649" lon="-0.45225">
        <ele>13.9</ele>
        <time>2017-05-27T11:24:12Z</time>
      </trkpt>
      <trkpt lat="49.06644" lon="-0.45216">
        <ele>12.7</ele>
        <time>2017-05-27T11:24:18Z</time>
      </trkpt>
      <trkpt lat="49.06638" lon="-0.45209">
        <ele>14.4</ele>
        <time>2017-05-27T11:24:24Z</time>
      </trkpt>
      <trkpt lat="49.06632" lon="-0.45199">
        <ele>12.5</ele>
        <time>2017-05-27T11:24:29Z</time>
      </trkpt>
      <trkpt lat="49.06627" lon="-0.4519">
        <ele>14.1</ele>
        <time>2017-05-27T11:24:34Z</time>
      </trkpt>
      <trkpt lat="49.06623" lon="-0.45178">
        <ele>13.9</ele>
        <time>2017-05-27T11:24:39Z</time>
      </trkpt>
      <trkpt lat="49.06619" lon="-0.45166">
        <ele>11.7</ele>
        <time>2017-05-27T11:24:44Z</time>
      </trkpt>
      <trkpt lat="49.06618" lon="-0.45154">
        <ele>10.6</ele>
        <time>2017-05-27T11:24:48Z</time>
      </trkpt>
      <trkpt lat="49.06618" lon="-0.45142">
        <ele>11</ele>
        <time>2017-05-27T11:24:52Z</time>
      </trkpt>
      <trkpt lat="49.06619" lon="-0.4513">
        <ele>11.1</ele>
        <time>2017-05-27T11:24:58Z</time>
      </trkpt>
      <trkpt lat="49.06619" lon="-0.45118">
        <ele>9.2</ele>
        <time>2017-05-27T11:25:04Z</time>
      </trkpt>
      <trkpt lat="49.06619" lon="-0.45106">
        <ele>7.7</ele>
        <time>2017-05-27T11:25:10Z</time>
      </trkpt>
      <trkpt lat="49.06619" lon="-0.45094">
        <ele>10.6</ele>
        <time>2017-05-27T11:25:15Z</time>
      </trkpt>
      <trkpt lat="49.0662" lon="-0.45082">
        <ele>9.5</ele>
        <time>2017-05-27T11:25:21Z</time>
      </trkpt>
      <trkpt lat="49.0662" lon="-0.45071">
        <ele>15.4</ele>
        <time>2017-05-27T11:25:26Z</time>
      </trkpt>
      <trkpt lat="49.0662" lon="-0.45059">
        <ele>15.8</ele>
        <time>2017-05-27T11:25:31Z</time>
      </trkpt>
      <trkpt lat="49.0662" lon="-0.45047">
        <ele>17.8</ele>
        <time>2017-05-27T11:25:36Z</time>
      </trkpt>
      <trkpt lat="49.06619" lon="-0.45035">
        <ele>18.4</ele>
        <time>2017-05-27T11:25:42Z</time>
      </trkpt>
      <trkpt lat="49.06619" lon="-0.45022">
        <ele>17.6</ele>
        <time>2017-05-27T11:25:49Z</time>
      </trkpt>
      <trkpt lat="49.06619" lon="-0.45012">
        <ele>18.8</ele>
        <time>2017-05-27T11:25:55Z</time>
      </trkpt>
      <trkpt lat="49.06618" lon="-0.45">
        <ele>15.2</ele>
        <time>2017-05-27T11:26:01Z</time>
      </trkpt>
      <trkpt lat="49.06619" lon="-0.44988">
        <ele>19.2</ele>
        <time>2017-05-27T11:26:07Z</time>
      </trkpt>
      <trkpt lat="49.06619" lon="-0.44977">
        <ele>20.8</ele>
        <time>2017-05-27T11:26:13Z</time>
      </trkpt>
      <trkpt lat="49.0662" lon="-0.44964">
        <ele>19</ele>
        <time>2017-05-27T11:26:19Z</time>
      </trkpt>
      <trkpt lat="49.0662" lon="-0.44953">
        <ele>13.2</ele>
        <time>2017-05-27T11:26:26Z</time>
      </trkpt>
      <trkpt lat="49.0662" lon="-0.44942">
        <ele>10.4</ele>
        <time>2017-05-27T11:26:32Z</time>
      </trkpt>
      <trkpt lat="49.0662" lon="-0.44931">
        <ele>7.9</ele>
        <time>2017-05-27T11:26:39Z</time>
      </trkpt>
      <trkpt lat="49.0662" lon="-0.44918">
        <ele>7.6</ele>
        <time>2017-05-27T11:26:45Z</time>
      </trkpt>
      <trkpt lat="49.0662" lon="-0.44906">
        <ele>8.6</ele>
        <time>2017-05-27T11:26:50Z</time>
      </trkpt>
      <trkpt lat="49.06621" lon="-0.44893">
        <ele>8.3</ele>
        <time>2017-05-27T11:26:54Z</time>
      </trkpt>
      <trkpt lat="49.0662" lon="-0.44882">
        <ele>8.2</ele>
        <time>2017-05-27T11:26:59Z</time>
      </trkpt>
      <trkpt lat="49.06621" lon="-0.44871">
        <ele>9.2</ele>
        <time>2017-05-27T11:27:04Z</time>
      </trkpt>
      <trkpt lat="49.06623" lon="-0.44858">
        <ele>4.9</ele>
        <time>2017-05-27T11:27:10Z</time>
      </trkpt>
      <trkpt lat="49.06623" lon="-0.44847">
        <ele>3.8</ele>
        <time>2017-05-27T11:27:16Z</time>
      </trkpt>
      <trkpt lat="49.06624" lon="-0.44835">
        <ele>2.4</ele>
        <time>2017-05-27T11:27:22Z</time>
      </trkpt>
      <trkpt lat="49.06622" lon="-0.44823">
        <ele>2.5</ele>
        <time>2017-05-27T11:27:27Z</time>
      </trkpt>
      <trkpt lat="49.0662" lon="-0.44813">
        <ele>1.4</ele>
        <time>2017-05-27T11:27:32Z</time>
      </trkpt>
      <trkpt lat="49.06618" lon="-0.448">
        <ele>0.2</ele>
        <time>2017-05-27T11:27:38Z</time>
      </trkpt>
      <trkpt lat="49.06616" lon="-0.44788">
        <ele>1.4</ele>
        <time>2017-05-27T11:27:44Z</time>
      </trkpt>
      <trkpt lat="49.06613" lon="-0.44777">
        <ele>4.2</ele>
        <time>2017-05-27T11:27:50Z</time>
      </trkpt>
      <trkpt lat="49.06609" lon="-0.44766">
        <ele>5.3</ele>
        <time>2017-05-27T11:27:56Z</time>
      </trkpt>
      <trkpt lat="49.06604" lon="-0.44755">
        <ele>6.1</ele>
        <time>2017-05-27T11:28:02Z</time>
      </trkpt>
      <trkpt lat="49.06598" lon="-0.44748">
        <ele>8.7</ele>
        <time>2017-05-27T11:28:08Z</time>
      </trkpt>
      <trkpt lat="49.06594" lon="-0.44736">
        <ele>8</ele>
        <time>2017-05-27T11:28:14Z</time>
      </trkpt>
      <trkpt lat="49.06591" lon="-0.44725">
        <ele>8.6</ele>
        <time>2017-05-27T11:28:20Z</time>
      </trkpt>
      <trkpt lat="49.06588" lon="-0.44714">
        <ele>10.3</ele>
        <time>2017-05-27T11:28:26Z</time>
      </trkpt>
      <trkpt lat="49.06582" lon="-0.44704">
        <ele>13.1</ele>
        <time>2017-05-27T11:28:33Z</time>
      </trkpt>
      <trkpt lat="49.0658" lon="-0.44693">
        <ele>13</ele>
        <time>2017-05-27T11:28:38Z</time>
      </trkpt>
      <trkpt lat="49.06578" lon="-0.4468">
        <ele>14.3</ele>
        <time>2017-05-27T11:28:44Z</time>
      </trkpt>
      <trkpt lat="49.06575" lon="-0.44669">
        <ele>12.9</ele>
        <time>2017-05-27T11:28:50Z</time>
      </trkpt>
      <trkpt lat="49.0657" lon="-0.44659">
        <ele>12.4</ele>
        <time>2017-05-27T11:28:57Z</time>
      </trkpt>
      <trkpt lat="49.06565" lon="-0.4465">
        <ele>10</ele>
        <time>2017-05-27T11:29:04Z</time>
      </trkpt>
      <trkpt lat="49.06559" lon="-0.44643">
        <ele>8.6</ele>
        <time>2017-05-27T11:29:11Z</time>
      </trkpt>
      <trkpt lat="49.06556" lon="-0.44635">
        <ele>6.9</ele>
        <time>2017-05-27T11:29:18Z</time>
      </trkpt>
      <trkpt lat="49.06556" lon="-0.44634">
        <ele>5.6</ele>
        <time>2017-05-27T11:29:25Z</time>
      </trkpt>
      <trkpt lat="49.06551" lon="-0.44626">
        <ele>6.3</ele>
        <time>2017-05-27T11:28:58Z</time>
      </trkpt>
      <trkpt lat="49.06544" lon="-0.44624">
        <ele>5.4</ele>
        <time>2017-05-27T11:30:09Z</time>
      </trkpt>
      <trkpt lat="49.06537" lon="-0.44619">
        <ele>4</ele>
        <time>2017-05-27T11:30:15Z</time>
      </trkpt>
      <trkpt lat="49.0653" lon="-0.44614">
        <ele>3.5</ele>
        <time>2017-05-27T11:30:21Z</time>
      </trkpt>
      <trkpt lat="49.06523" lon="-0.44609">
        <ele>3</ele>
        <time>2017-05-27T11:30:27Z</time>
      </trkpt>
      <trkpt lat="49.06516" lon="-0.44604">
        <ele>1.5</ele>
        <time>2017-05-27T11:30:34Z</time>
      </trkpt>
      <trkpt lat="49.06508" lon="-0.44602">
        <ele>-0.8</ele>
        <time>2017-05-27T11:30:41Z</time>
      </trkpt>
      <trkpt lat="49.06501" lon="-0.44597">
        <ele>-0.1</ele>
        <time>2017-05-27T11:30:46Z</time>
      </trkpt>
      <trkpt lat="49.06496" lon="-0.44592">
        <ele>-4</ele>
        <time>2017-05-27T11:30:53Z</time>
      </trkpt>
      <trkpt lat="49.0649" lon="-0.44591">
        <ele>-3.8</ele>
        <time>2017-05-27T11:31:00Z</time>
      </trkpt>
      <trkpt lat="49.06483" lon="-0.44594">
        <ele>-2.8</ele>
        <time>2017-05-27T11:31:06Z</time>
      </trkpt>
      <trkpt lat="49.06474" lon="-0.44595">
        <ele>-3.1</ele>
        <time>2017-05-27T11:31:11Z</time>
      </trkpt>
      <trkpt lat="49.06467" lon="-0.44595">
        <ele>-3.2</ele>
        <time>2017-05-27T11:31:15Z</time>
      </trkpt>
      <trkpt lat="49.06459" lon="-0.44594">
        <ele>-3.4</ele>
        <time>2017-05-27T11:31:19Z</time>
      </trkpt>
      <trkpt lat="49.06452" lon="-0.44588">
        <ele>-2.8</ele>
        <time>2017-05-27T11:31:24Z</time>
      </trkpt>
      <trkpt lat="49.06446" lon="-0.44582">
        <ele>-3.8</ele>
        <time>2017-05-27T11:31:29Z</time>
      </trkpt>
      <trkpt lat="49.0644" lon="-0.44575">
        <ele>-1.7</ele>
        <time>2017-05-27T11:31:34Z</time>
      </trkpt>
      <trkpt lat="49.06439" lon="-0.44573">
        <ele>-1.4</ele>
        <time>2017-05-27T11:31:41Z</time>
      </trkpt>
      <trkpt lat="49.06433" lon="-0.44565">
        <ele>-0.4</ele>
        <time>2017-05-27T11:31:25Z</time>
      </trkpt>
      <trkpt lat="49.06426" lon="-0.44558">
        <ele>-0.5</ele>
        <time>2017-05-27T11:32:33Z</time>
      </trkpt>
      <trkpt lat="49.0642" lon="-0.44552">
        <ele>-1.2</ele>
        <time>2017-05-27T11:32:38Z</time>
      </trkpt>
      <trkpt lat="49.06413" lon="-0.44546">
        <ele>-0.6</ele>
        <time>2017-05-27T11:32:44Z</time>
      </trkpt>
      <trkpt lat="49.06407" lon="-0.44539">
        <ele>0.4</ele>
        <time>2017-05-27T11:32:49Z</time>
      </trkpt>
      <trkpt lat="49.064" lon="-0.4453">
        <ele>0.3</ele>
        <time>2017-05-27T11:32:55Z</time>
      </trkpt>
      <trkpt lat="49.06394" lon="-0.44523">
        <ele>-0.4</ele>
        <time>2017-05-27T11:33:01Z</time>
      </trkpt>
      <trkpt lat="49.06389" lon="-0.44514">
        <ele>0.7</ele>
        <time>2017-05-27T11:33:07Z</time>
      </trkpt>
      <trkpt lat="49.06384" lon="-0.44504">
        <ele>0.3</ele>
        <time>2017-05-27T11:33:13Z</time>
      </trkpt>
      <trkpt lat="49.06379" lon="-0.44496">
        <ele>0.1</ele>
        <time>2017-05-27T11:33:19Z</time>
      </trkpt>
      <trkpt lat="49.06374" lon="-0.44487">
        <ele>-1.5</ele>
        <time>2017-05-27T11:33:25Z</time>
      </trkpt>
      <trkpt lat="49.06368" lon="-0.4448">
        <ele>-1.9</ele>
        <time>2017-05-27T11:33:31Z</time>
      </trkpt>
      <trkpt lat="49.06362" lon="-0.44471">
        <ele>-1.9</ele>
        <time>2017-05-27T11:33:37Z</time>
      </trkpt>
      <trkpt lat="49.06357" lon="-0.44463">
        <ele>-2.6</ele>
        <time>2017-05-27T11:33:43Z</time>
      </trkpt>
      <trkpt lat="49.06352" lon="-0.44452">
        <ele>-3.6</ele>
        <time>2017-05-27T11:33:49Z</time>
      </trkpt>
      <trkpt lat="49.06347" lon="-0.44443">
        <ele>-4.3</ele>
        <time>2017-05-27T11:33:55Z</time>
      </trkpt>
      <trkpt lat="49.06342" lon="-0.44434">
        <ele>-1.6</ele>
        <time>2017-05-27T11:34:01Z</time>
      </trkpt>
      <trkpt lat="49.06337" lon="-0.44426">
        <ele>-0.5</ele>
        <time>2017-05-27T11:34:06Z</time>
      </trkpt>
      <trkpt lat="49.06333" lon="-0.44415">
        <ele>-0.2</ele>
        <time>2017-05-27T11:34:12Z</time>
      </trkpt>
      <trkpt lat="49.06329" lon="-0.44405">
        <ele>1.1</ele>
        <time>2017-05-27T11:34:17Z</time>
      </trkpt>
      <trkpt lat="49.06323" lon="-0.44397">
        <ele>3.9</ele>
        <time>2017-05-27T11:34:22Z</time>
      </trkpt>
      <trkpt lat="49.06319" lon="-0.44388">
        <ele>6.7</ele>
        <time>2017-05-27T11:34:28Z</time>
      </trkpt>
      <trkpt lat="49.06316" lon="-0.44377">
        <ele>5.9</ele>
        <time>2017-05-27T11:34:34Z</time>
      </trkpt>
      <trkpt lat="49.06312" lon="-0.44367">
        <ele>5.2</ele>
        <time>2017-05-27T11:34:39Z</time>
      </trkpt>
      <trkpt lat="49.06309" lon="-0.44357">
        <ele>6.6</ele>
        <time>2017-05-27T11:34:44Z</time>
      </trkpt>
      <trkpt lat="49.06305" lon="-0.44347">
        <ele>7.3</ele>
        <time>2017-05-27T11:34:50Z</time>
      </trkpt>
      <trkpt lat="49.06302" lon="-0.44335">
        <ele>8.2</ele>
        <time>2017-05-27T11:34:57Z</time>
      </trkpt>
      <trkpt lat="49.06299" lon="-0.44324">
        <ele>8.8</ele>
        <time>2017-05-27T11:35:02Z</time>
      </trkpt>
      <trkpt lat="49.06295" lon="-0.44314">
        <ele>8.5</ele>
        <time>2017-05-27T11:35:07Z</time>
      </trkpt>
      <trkpt lat="49.06292" lon="-0.44302">
        <ele>11.4</ele>
        <time>2017-05-27T11:35:12Z</time>
      </trkpt>
      <trkpt lat="49.0629" lon="-0.44291">
        <ele>10.3</ele>
        <time>2017-05-27T11:35:18Z</time>
      </trkpt>
      <trkpt lat="49.06288" lon="-0.4428">
        <ele>9.4</ele>
        <time>2017-05-27T11:35:23Z</time>
      </trkpt>
      <trkpt lat="49.06288" lon="-0.44267">
        <ele>8.6</ele>
        <time>2017-05-27T11:35:29Z</time>
      </trkpt>
      <trkpt lat="49.0629" lon="-0.44254">
        <ele>9.4</ele>
        <time>2017-05-27T11:35:35Z</time>
      </trkpt>
      <trkpt lat="49.06292" lon="-0.44243">
        <ele>10.5</ele>
        <time>2017-05-27T11:35:40Z</time>
      </trkpt>
      <trkpt lat="49.06294" lon="-0.44233">
        <ele>11.8</ele>
        <time>2017-05-27T11:35:45Z</time>
      </trkpt>
      <trkpt lat="49.06297" lon="-0.44223">
        <ele>15.2</ele>
        <time>2017-05-27T11:35:50Z</time>
      </trkpt>
      <trkpt lat="49.06301" lon="-0.44212">
        <ele>19.2</ele>
        <time>2017-05-27T11:35:56Z</time>
      </trkpt>
      <trkpt lat="49.06305" lon="-0.44202">
        <ele>21.3</ele>
        <time>2017-05-27T11:36:01Z</time>
      </trkpt>
      <trkpt lat="49.06309" lon="-0.44191">
        <ele>21.2</ele>
        <time>2017-05-27T11:36:07Z</time>
      </trkpt>
      <trkpt lat="49.06315" lon="-0.44181">
        <ele>22.2</ele>
        <time>2017-05-27T11:36:13Z</time>
      </trkpt>
      <trkpt lat="49.0632" lon="-0.44172">
        <ele>23.2</ele>
        <time>2017-05-27T11:36:19Z</time>
      </trkpt>
      <trkpt lat="49.06326" lon="-0.44166">
        <ele>23.9</ele>
        <time>2017-05-27T11:36:25Z</time>
      </trkpt>
      <trkpt lat="49.06333" lon="-0.44161">
        <ele>25.2</ele>
        <time>2017-05-27T11:36:31Z</time>
      </trkpt>
      <trkpt lat="49.0634" lon="-0.44159">
        <ele>26.3</ele>
        <time>2017-05-27T11:36:36Z</time>
      </trkpt>
      <trkpt lat="49.06348" lon="-0.4416">
        <ele>25</ele>
        <time>2017-05-27T11:36:41Z</time>
      </trkpt>
      <trkpt lat="49.06356" lon="-0.44163">
        <ele>24.4</ele>
        <time>2017-05-27T11:36:46Z</time>
      </trkpt>
      <trkpt lat="49.06365" lon="-0.44164">
        <ele>26.4</ele>
        <time>2017-05-27T11:36:53Z</time>
      </trkpt>
      <trkpt lat="49.06373" lon="-0.44167">
        <ele>26.9</ele>
        <time>2017-05-27T11:36:58Z</time>
      </trkpt>
      <trkpt lat="49.0638" lon="-0.44172">
        <ele>26.4</ele>
        <time>2017-05-27T11:37:03Z</time>
      </trkpt>
      <trkpt lat="49.06387" lon="-0.44175">
        <ele>26.7</ele>
        <time>2017-05-27T11:37:10Z</time>
      </trkpt>
      <trkpt lat="49.06395" lon="-0.44179">
        <ele>28.1</ele>
        <time>2017-05-27T11:37:16Z</time>
      </trkpt>
      <trkpt lat="49.06402" lon="-0.44183">
        <ele>29.6</ele>
        <time>2017-05-27T11:37:21Z</time>
      </trkpt>
      <trkpt lat="49.06406" lon="-0.44186">
        <ele>30</ele>
        <time>2017-05-27T11:37:28Z</time>
      </trkpt>
      <trkpt lat="49.06411" lon="-0.44182">
        <ele>29.3</ele>
        <time>2017-05-27T11:37:59Z</time>
      </trkpt>
      <trkpt lat="49.06416" lon="-0.44172">
        <ele>31.1</ele>
        <time>2017-05-27T11:38:05Z</time>
      </trkpt>
      <trkpt lat="49.0642" lon="-0.44163">
        <ele>31.1</ele>
        <time>2017-05-27T11:38:11Z</time>
      </trkpt>
      <trkpt lat="49.06425" lon="-0.44153">
        <ele>30.6</ele>
        <time>2017-05-27T11:38:17Z</time>
      </trkpt>
      <trkpt lat="49.06429" lon="-0.44143">
        <ele>28.8</ele>
        <time>2017-05-27T11:38:23Z</time>
      </trkpt>
      <trkpt lat="49.06434" lon="-0.44134">
        <ele>26.2</ele>
        <time>2017-05-27T11:38:29Z</time>
      </trkpt>
      <trkpt lat="49.06437" lon="-0.44124">
        <ele>22.6</ele>
        <time>2017-05-27T11:38:34Z</time>
      </trkpt>
      <trkpt lat="49.06442" lon="-0.44114">
        <ele>19.8</ele>
        <time>2017-05-27T11:38:39Z</time>
      </trkpt>
      <trkpt lat="49.06447" lon="-0.44105">
        <ele>19.5</ele>
        <time>2017-05-27T11:38:44Z</time>
      </trkpt>
      <trkpt lat="49.06452" lon="-0.44097">
        <ele>17.5</ele>
        <time>2017-05-27T11:38:49Z</time>
      </trkpt>
      <trkpt lat="49.06457" lon="-0.44088">
        <ele>17.8</ele>
        <time>2017-05-27T11:38:55Z</time>
      </trkpt>
      <trkpt lat="49.06462" lon="-0.44086">
        <ele>19.3</ele>
        <time>2017-05-27T11:39:02Z</time>
      </trkpt>
      <trkpt lat="49.0647" lon="-0.44086">
        <ele>22.9</ele>
        <time>2017-05-27T11:39:09Z</time>
      </trkpt>
      <trkpt lat="49.06478" lon="-0.44082">
        <ele>23.4</ele>
        <time>2017-05-27T11:39:16Z</time>
      </trkpt>
      <trkpt lat="49.06485" lon="-0.44078">
        <ele>24.5</ele>
        <time>2017-05-27T11:39:22Z</time>
      </trkpt>
      <trkpt lat="49.06492" lon="-0.4408">
        <ele>25.2</ele>
        <time>2017-05-27T11:39:29Z</time>
      </trkpt>
      <trkpt lat="49.065" lon="-0.44085">
        <ele>26.7</ele>
        <time>2017-05-27T11:39:35Z</time>
      </trkpt>
      <trkpt lat="49.06506" lon="-0.44093">
        <ele>25.6</ele>
        <time>2017-05-27T11:39:41Z</time>
      </trkpt>
      <trkpt lat="49.06513" lon="-0.44097">
        <ele>26.4</ele>
        <time>2017-05-27T11:39:47Z</time>
      </trkpt>
      <trkpt lat="49.06518" lon="-0.44103">
        <ele>26</ele>
        <time>2017-05-27T11:39:54Z</time>
      </trkpt>
      <trkpt lat="49.06519" lon="-0.44104">
        <ele>25.9</ele>
        <time>2017-05-27T11:40:01Z</time>
      </trkpt>
      <trkpt lat="49.06521" lon="-0.44112">
        <ele>26</ele>
        <time>2017-05-27T11:40:13Z</time>
      </trkpt>
      <trkpt lat="49.06522" lon="-0.44116">
        <ele>25.4</ele>
        <time>2017-05-27T11:40:20Z</time>
      </trkpt>
      <trkpt lat="49.0652" lon="-0.44115">
        <ele>24.5</ele>
        <time>2017-05-27T11:40:27Z</time>
      </trkpt>
      <trkpt lat="49.06519" lon="-0.44121">
        <ele>18.2</ele>
        <time>2017-05-27T11:43:25Z</time>
      </trkpt>
      <trkpt lat="49.06519" lon="-0.44115">
        <ele>18.3</ele>
        <time>2017-05-27T11:43:32Z</time>
      </trkpt>
      <trkpt lat="49.06515" lon="-0.44108">
        <ele>17.6</ele>
        <time>2017-05-27T11:43:39Z</time>
      </trkpt>
      <trkpt lat="49.06509" lon="-0.44102">
        <ele>16.3</ele>
        <time>2017-05-27T11:43:46Z</time>
      </trkpt>
      <trkpt lat="49.06502" lon="-0.44097">
        <ele>14.2</ele>
        <time>2017-05-27T11:43:52Z</time>
      </trkpt>
      <trkpt lat="49.06495" lon="-0.44093">
        <ele>14</ele>
        <time>2017-05-27T11:43:58Z</time>
      </trkpt>
      <trkpt lat="49.06487" lon="-0.44091">
        <ele>14</ele>
        <time>2017-05-27T11:44:04Z</time>
      </trkpt>
      <trkpt lat="49.06479" lon="-0.44092">
        <ele>13.4</ele>
        <time>2017-05-27T11:44:10Z</time>
      </trkpt>
      <trkpt lat="49.06471" lon="-0.44092">
        <ele>14.7</ele>
        <time>2017-05-27T11:44:16Z</time>
      </trkpt>
      <trkpt lat="49.06465" lon="-0.44084">
        <ele>13</ele>
        <time>2017-05-27T11:44:21Z</time>
      </trkpt>
      <trkpt lat="49.06467" lon="-0.44071">
        <ele>12</ele>
        <time>2017-05-27T11:44:28Z</time>
      </trkpt>
      <trkpt lat="49.0647" lon="-0.44059">
        <ele>9.2</ele>
        <time>2017-05-27T11:44:34Z</time>
      </trkpt>
      <trkpt lat="49.06474" lon="-0.44048">
        <ele>8.2</ele>
        <time>2017-05-27T11:44:39Z</time>
      </trkpt>
      <trkpt lat="49.06478" lon="-0.44037">
        <ele>8.1</ele>
        <time>2017-05-27T11:44:45Z</time>
      </trkpt>
      <trkpt lat="49.06481" lon="-0.44026">
        <ele>5.8</ele>
        <time>2017-05-27T11:44:51Z</time>
      </trkpt>
      <trkpt lat="49.06486" lon="-0.44015">
        <ele>5.2</ele>
        <time>2017-05-27T11:44:57Z</time>
      </trkpt>
      <trkpt lat="49.06492" lon="-0.44007">
        <ele>4.2</ele>
        <time>2017-05-27T11:45:03Z</time>
      </trkpt>
      <trkpt lat="49.06498" lon="-0.44">
        <ele>4.9</ele>
        <time>2017-05-27T11:45:09Z</time>
      </trkpt>
      <trkpt lat="49.06505" lon="-0.43994">
        <ele>6.2</ele>
        <time>2017-05-27T11:45:16Z</time>
      </trkpt>
      <trkpt lat="49.06511" lon="-0.43989">
        <ele>8.4</ele>
        <time>2017-05-27T11:45:23Z</time>
      </trkpt>
      <trkpt lat="49.06518" lon="-0.43986">
        <ele>10.4</ele>
        <time>2017-05-27T11:45:29Z</time>
      </trkpt>
      <trkpt lat="49.06525" lon="-0.43983">
        <ele>12.5</ele>
        <time>2017-05-27T11:45:35Z</time>
      </trkpt>
      <trkpt lat="49.06531" lon="-0.4398">
        <ele>15.1</ele>
        <time>2017-05-27T11:45:42Z</time>
      </trkpt>
      <trkpt lat="49.06539" lon="-0.4398">
        <ele>19.1</ele>
        <time>2017-05-27T11:45:48Z</time>
      </trkpt>
      <trkpt lat="49.06546" lon="-0.43982">
        <ele>22.4</ele>
        <time>2017-05-27T11:45:55Z</time>
      </trkpt>
      <trkpt lat="49.06553" lon="-0.4399">
        <ele>20.9</ele>
        <time>2017-05-27T11:46:00Z</time>
      </trkpt>
      <trkpt lat="49.06558" lon="-0.43999">
        <ele>18.1</ele>
        <time>2017-05-27T11:46:04Z</time>
      </trkpt>
      <trkpt lat="49.06564" lon="-0.44008">
        <ele>14</ele>
        <time>2017-05-27T11:46:09Z</time>
      </trkpt>
      <trkpt lat="49.0657" lon="-0.44014">
        <ele>13.9</ele>
        <time>2017-05-27T11:46:13Z</time>
      </trkpt>
      <trkpt lat="49.06576" lon="-0.44022">
        <ele>14.1</ele>
        <time>2017-05-27T11:46:17Z</time>
      </trkpt>
      <trkpt lat="49.06582" lon="-0.44031">
        <ele>14.1</ele>
        <time>2017-05-27T11:46:24Z</time>
      </trkpt>
      <trkpt lat="49.06587" lon="-0.44039">
        <ele>13.6</ele>
        <time>2017-05-27T11:46:30Z</time>
      </trkpt>
      <trkpt lat="49.06593" lon="-0.44047">
        <ele>12.3</ele>
        <time>2017-05-27T11:46:36Z</time>
      </trkpt>
      <trkpt lat="49.066" lon="-0.44053">
        <ele>13.1</ele>
        <time>2017-05-27T11:46:43Z</time>
      </trkpt>
      <trkpt lat="49.06607" lon="-0.44056">
        <ele>14.7</ele>
        <time>2017-05-27T11:46:48Z</time>
      </trkpt>
      <trkpt lat="49.06615" lon="-0.44056">
        <ele>15.3</ele>
        <time>2017-05-27T11:46:54Z</time>
      </trkpt>
      <trkpt lat="49.06624" lon="-0.44056">
        <ele>15.2</ele>
        <time>2017-05-27T11:47:01Z</time>
      </trkpt>
      <trkpt lat="49.06632" lon="-0.44056">
        <ele>16.2</ele>
        <time>2017-05-27T11:47:08Z</time>
      </trkpt>
      <trkpt lat="49.0664" lon="-0.44052">
        <ele>19.8</ele>
        <time>2017-05-27T11:47:14Z</time>
      </trkpt>
      <trkpt lat="49.06647" lon="-0.44049">
        <ele>19.9</ele>
        <time>2017-05-27T11:47:19Z</time>
      </trkpt>
      <trkpt lat="49.06655" lon="-0.44048">
        <ele>17.4</ele>
        <time>2017-05-27T11:47:25Z</time>
      </trkpt>
      <trkpt lat="49.06662" lon="-0.44047">
        <ele>15.6</ele>
        <time>2017-05-27T11:47:30Z</time>
      </trkpt>
      <trkpt lat="49.0667" lon="-0.44047">
        <ele>12.2</ele>
        <time>2017-05-27T11:47:35Z</time>
      </trkpt>
      <trkpt lat="49.06678" lon="-0.44044">
        <ele>11.3</ele>
        <time>2017-05-27T11:47:41Z</time>
      </trkpt>
      <trkpt lat="49.06686" lon="-0.4404">
        <ele>11.1</ele>
        <time>2017-05-27T11:47:47Z</time>
      </trkpt>
      <trkpt lat="49.06693" lon="-0.44034">
        <ele>11.6</ele>
        <time>2017-05-27T11:47:53Z</time>
      </trkpt>
      <trkpt lat="49.067" lon="-0.44029">
        <ele>12.2</ele>
        <time>2017-05-27T11:47:59Z</time>
      </trkpt>
      <trkpt lat="49.06707" lon="-0.44022">
        <ele>10.4</ele>
        <time>2017-05-27T11:48:04Z</time>
      </trkpt>
      <trkpt lat="49.06713" lon="-0.44018">
        <ele>7.9</ele>
        <time>2017-05-27T11:48:09Z</time>
      </trkpt>
      <trkpt lat="49.06719" lon="-0.4401">
        <ele>8.9</ele>
        <time>2017-05-27T11:48:16Z</time>
      </trkpt>
      <trkpt lat="49.06725" lon="-0.44002">
        <ele>8.2</ele>
        <time>2017-05-27T11:48:22Z</time>
      </trkpt>
      <trkpt lat="49.06731" lon="-0.43994">
        <ele>5.6</ele>
        <time>2017-05-27T11:48:29Z</time>
      </trkpt>
      <trkpt lat="49.06726" lon="-0.43989">
        <ele>3.3</ele>
        <time>2017-05-27T11:48:36Z</time>
      </trkpt>
      <trkpt lat="49.06725" lon="-0.43988">
        <ele>5</ele>
        <time>2017-05-27T11:48:43Z</time>
      </trkpt>
      <trkpt lat="49.06719" lon="-0.43981">
        <ele>7.7</ele>
        <time>2017-05-27T11:48:12Z</time>
      </trkpt>
      <trkpt lat="49.06711" lon="-0.43978">
        <ele>11.6</ele>
        <time>2017-05-27T11:49:23Z</time>
      </trkpt>
      <trkpt lat="49.06705" lon="-0.43976">
        <ele>13.2</ele>
        <time>2017-05-27T11:49:30Z</time>
      </trkpt>
      <trkpt lat="49.06705" lon="-0.43973">
        <ele>9.1</ele>
        <time>2017-05-27T11:49:37Z</time>
      </trkpt>
      <trkpt lat="49.0671" lon="-0.43973">
        <ele>8</ele>
        <time>2017-05-27T11:55:12Z</time>
      </trkpt>
      <trkpt lat="49.06712" lon="-0.43974">
        <ele>5.8</ele>
        <time>2017-05-27T11:55:37Z</time>
      </trkpt>
      <trkpt lat="49.06712" lon="-0.43978">
        <ele>3.8</ele>
        <time>2017-05-27T11:55:57Z</time>
      </trkpt>
      <trkpt lat="49.06709" lon="-0.43968">
        <ele>4.3</ele>
        <time>2017-05-27T11:56:19Z</time>
      </trkpt>
    </trkseg>
  </trk>
</gpx>